[[{"header":{"parameterUnit":"m.s-1","parameterCategory":1,"la1":30.6,"la2":29.2853,"lo1":-89.7004,"lo2":-87.6739,"dy":0.0162,"dx":0.0183,"nx":112,"ny":82,"refTime":"2024-04-06T12:00:00:Z","depth":0,"parameterNumber":2,"parameterNumberName":"U-component_of_WINDS"},"data":[0.0,0.0,0.0,0.0,0.0,0.0,0.0,0.0,0.0,0.0,0.0,0.0,0.0,0.0,0.0,0.0,0.0,0.0,0.0,0.0,0.0,0.0,0.0,0.0,0.0,0.0,0.0,0.0,0.0,0.0,0.0,0.0,0.0,0.0,0.0,0.0,0.0,0.0,0.0,0.0,0.0,0.0,0.0,0.0,0.0,0.0,0.0,0.0,0.0,0.0,0.0,0.0,0.0,0.0,0.0,0.0,0.0,0.0,0.0,0.0,0.0,0.0,0.0,0.0,0.0,0.0,0.0,0.0,0.0,0.0,0.0,0.0,0.0,0.0,0.0,0.0,0.0,0.0,0.0,0.0,0.0,0.0,0.0,0.0,0.0,0.0,0.0,0.0,0.0,0.0,-2.8041,-2.7915,-2.7808,-2.7096,-2.5556,-2.5203,-2.5543,-2.655,0.0,0.0,0.0,0.0,0.0,0.0,0.0,0.0,0.0,0.0,0.0,0.0,0.0,0.0,0.0,0.0,0.0,0.0,0.0,0.0,0.0,0.0,0.0,0.0,0.0,0.0,0.0,0.0,0.0,0.0,0.0,0.0,0.0,0.0,0.0,0.0,0.0,0.0,0.0,0.0,0.0,0.0,0.0,0.0,0.0,0.0,0.0,0.0,0.0,0.0,0.0,0.0,0.0,0.0,0.0,0.0,0.0,0.0,0.0,0.0,0.0,0.0,0.0,0.0,0.0,0.0,0.0,0.0,0.0,0.0,0.0,0.0,0.0,0.0,0.0,0.0,0.0,0.0,0.0,0.0,0.0,0.0,0.0,0.0,0.0,0.0,0.0,0.0,0.0,0.0,0.0,0.0,0.0,0.0,0.0,0.0,0.0,0.0,0.0,0.0,0.0,0.0,0.0,0.0,-2.6401,-2.581,-2.4496,-2.3995,-2.5203,-2.2632,-2.2449,-2.6381,0.0,0.0,0.0,0.0,0.0,0.0,0.0,0.0,0.0,0.0,0.0,0.0,0.0,0.0,0.0,0.0,0.0,0.0,0.0,0.0,0.0,0.0,0.0,0.0,0.0,0.0,0.0,0.0,0.0,0.0,0.0,0.0,0.0,0.0,0.0,0.0,0.0,0.0,0.0,0.0,0.0,0.0,0.0,0.0,0.0,0.0,0.0,0.0,0.0,0.0,0.0,0.0,0.0,0.0,0.0,0.0,0.0,0.0,0.0,0.0,0.0,0.0,0.0,0.0,0.0,0.0,0.0,0.0,0.0,0.0,0.0,0.0,0.0,0.0,0.0,0.0,0.0,0.0,0.0,0.0,0.0,0.0,0.0,0.0,0.0,0.0,0.0,0.0,0.0,0.0,0.0,0.0,0.0,0.0,0.0,0.0,0.0,0.0,0.0,0.0,0.0,0.0,0.0,-2.8257,-2.7459,-2.6914,-2.5203,-2.3995,-2.3824,-2.1424,-2.1465,-2.5211,-2.5554,0.0,0.0,0.0,0.0,0.0,0.0,0.0,0.0,0.0,0.0,0.0,0.0,0.0,0.0,0.0,0.0,0.0,0.0,0.0,0.0,0.0,0.0,0.0,0.0,0.0,0.0,0.0,0.0,0.0,0.0,0.0,0.0,0.0,0.0,0.0,0.0,0.0,0.0,0.0,0.0,0.0,0.0,0.0,0.0,0.0,0.0,0.0,0.0,0.0,0.0,0.0,0.0,0.0,0.0,0.0,0.0,0.0,0.0,0.0,0.0,0.0,0.0,0.0,0.0,0.0,0.0,0.0,0.0,0.0,0.0,0.0,0.0,0.0,0.0,0.0,0.0,0.0,0.0,0.0,0.0,0.0,0.0,0.0,0.0,0.0,0.0,0.0,0.0,0.0,0.0,0.0,0.0,0.0,0.0,0.0,0.0,0.0,0.0,0.0,0.0,0.0,0.0,-2.8136,-2.7968,-2.7617,-2.5556,-2.3652,-2.2622,-2.0558,-2.0821,-2.4338,-2.4523,0.0,0.0,0.0,0.0,0.0,0.0,0.0,0.0,0.0,0.0,0.0,0.0,0.0,0.0,0.0,0.0,0.0,0.0,0.0,0.0,0.0,0.0,0.0,0.0,0.0,0.0,0.0,0.0,0.0,0.0,0.0,0.0,0.0,0.0,0.0,0.0,0.0,0.0,0.0,0.0,0.0,0.0,0.0,0.0,0.0,0.0,0.0,0.0,0.0,0.0,0.0,0.0,0.0,0.0,0.0,0.0,0.0,0.0,0.0,0.0,0.0,0.0,0.0,0.0,0.0,0.0,0.0,0.0,0.0,0.0,0.0,0.0,0.0,0.0,0.0,0.0,0.0,0.0,0.0,0.0,0.0,0.0,0.0,0.0,0.0,0.0,0.0,0.0,0.0,0.0,0.0,0.0,0.0,0.0,0.0,0.0,0.0,0.0,0.0,0.0,0.0,0.0,-2.5896,-2.5556,-2.5556,-2.2449,-2.0905,-2.2449,-1.9351,-1.9434,-2.4164,-2.4523,0.0,0.0,0.0,0.0,0.0,0.0,0.0,0.0,0.0,0.0,0.0,0.0,0.0,0.0,0.0,0.0,0.0,0.0,0.0,0.0,0.0,0.0,0.0,0.0,0.0,0.0,0.0,0.0,0.0,0.0,0.0,0.0,0.0,0.0,0.0,0.0,0.0,0.0,0.0,0.0,0.0,0.0,0.0,0.0,0.0,0.0,0.0,0.0,0.0,0.0,0.0,0.0,0.0,0.0,0.0,0.0,0.0,0.0,0.0,0.0,0.0,0.0,0.0,0.0,0.0,0.0,0.0,0.0,0.0,0.0,0.0,0.0,0.0,0.0,0.0,0.0,0.0,0.0,0.0,0.0,0.0,0.0,0.0,0.0,0.0,0.0,0.0,0.0,0.0,0.0,0.0,0.0,0.0,0.0,0.0,0.0,0.0,0.0,0.0,0.0,0.0,0.0,-2.4861,-2.4006,-2.3652,-2.1424,-2.0269,-2.0929,-1.8681,-1.9505,-2.4617,0.0,0.0,0.0,0.0,0.0,0.0,0.0,0.0,0.0,0.0,0.0,0.0,0.0,0.0,0.0,0.0,0.0,0.0,0.0,0.0,0.0,0.0,0.0,0.0,0.0,0.0,0.0,0.0,0.0,0.0,0.0,0.0,0.0,0.0,0.0,0.0,0.0,0.0,0.0,0.0,0.0,0.0,0.0,0.0,0.0,0.0,0.0,0.0,0.0,0.0,0.0,0.0,0.0,0.0,0.0,0.0,0.0,0.0,0.0,0.0,0.0,0.0,0.0,0.0,0.0,0.0,0.0,0.0,0.0,0.0,0.0,0.0,0.0,0.0,0.0,0.0,0.0,0.0,0.0,0.0,0.0,0.0,0.0,0.0,0.0,0.0,0.0,0.0,0.0,0.0,0.0,0.0,0.0,0.0,0.0,0.0,0.0,0.0,0.0,0.0,0.0,0.0,-2.5306,-2.3542,-2.2326,-2.1977,-2.0238,-1.9432,-2.0093,-1.8526,-1.9366,-2.3835,0.0,0.0,0.0,0.0,0.0,0.0,0.0,0.0,0.0,0.0,0.0,0.0,0.0,0.0,0.0,0.0,0.0,0.0,0.0,0.0,0.0,0.0,0.0,0.0,0.0,0.0,0.0,0.0,0.0,0.0,0.0,0.0,0.0,0.0,0.0,0.0,0.0,0.0,0.0,0.0,0.0,0.0,0.0,0.0,0.0,0.0,0.0,0.0,0.0,0.0,0.0,0.0,0.0,0.0,0.0,0.0,0.0,0.0,0.0,0.0,0.0,0.0,0.0,0.0,0.0,0.0,0.0,0.0,0.0,0.0,0.0,0.0,0.0,0.0,0.0,0.0,0.0,0.0,0.0,0.0,0.0,0.0,0.0,0.0,0.0,0.0,0.0,0.0,0.0,0.0,0.0,0.0,0.0,0.0,0.0,0.0,0.0,0.0,0.0,0.0,0.0,0.0,-2.3521,-2.1552,-2.0308,-2.0308,-1.8708,-1.8355,-2.0138,-1.8716,-1.8794,0.0,0.0,0.0,0.0,0.0,0.0,0.0,0.0,0.0,0.0,0.0,0.0,0.0,0.0,0.0,0.0,0.0,0.0,0.0,0.0,0.0,0.0,0.0,0.0,0.0,0.0,0.0,0.0,0.0,0.0,0.0,0.0,0.0,0.0,0.0,0.0,0.0,0.0,0.0,0.0,0.0,0.0,0.0,0.0,0.0,0.0,0.0,0.0,0.0,0.0,0.0,0.0,0.0,0.0,0.0,0.0,0.0,0.0,0.0,0.0,0.0,0.0,0.0,0.0,0.0,0.0,0.0,0.0,0.0,0.0,0.0,0.0,0.0,0.0,0.0,0.0,0.0,0.0,0.0,0.0,0.0,0.0,0.0,0.0,0.0,0.0,0.0,0.0,0.0,0.0,0.0,0.0,0.0,0.0,0.0,0.0,0.0,0.0,0.0,0.0,0.0,0.0,0.0,-2.3354,-2.0488,-1.8355,-1.8355,-1.8002,-1.787,-1.8541,-1.8201,-1.8992,-2.1539,0.0,0.0,0.0,0.0,0.0,0.0,0.0,0.0,0.0,0.0,0.0,0.0,0.0,0.0,0.0,0.0,0.0,0.0,0.0,0.0,0.0,0.0,0.0,0.0,0.0,0.0,0.0,0.0,0.0,0.0,0.0,0.0,0.0,0.0,0.0,0.0,0.0,0.0,0.0,0.0,0.0,0.0,0.0,0.0,0.0,0.0,0.0,0.0,0.0,0.0,0.0,0.0,0.0,0.0,0.0,0.0,0.0,0.0,0.0,0.0,0.0,0.0,0.0,0.0,0.0,0.0,0.0,0.0,0.0,0.0,0.0,0.0,0.0,0.0,0.0,0.0,0.0,0.0,0.0,0.0,0.0,0.0,0.0,0.0,0.0,0.0,0.0,0.0,0.0,0.0,0.0,0.0,0.0,0.0,0.0,0.0,0.0,0.0,0.0,0.0,0.0,0.0,-2.2382,-1.9661,-1.7851,-1.7851,-1.7851,-1.79,-1.8014,-1.8022,-1.861,-2.0178,0.0,0.0,0.0,0.0,0.0,0.0,0.0,0.0,0.0,0.0,0.0,0.0,0.0,0.0,0.0,0.0,0.0,0.0,0.0,0.0,0.0,0.0,0.0,0.0,0.0,0.0,0.0,0.0,0.0,0.0,0.0,0.0,0.0,0.0,0.0,0.0,0.0,0.0,0.0,0.0,0.0,0.0,0.0,0.0,0.0,0.0,0.0,0.0,0.0,0.0,0.0,0.0,0.0,0.0,0.0,0.0,0.0,0.0,0.0,0.0,0.0,0.0,0.0,0.0,0.0,0.0,0.0,0.0,0.0,0.0,0.0,0.0,0.0,0.0,0.0,0.0,0.0,0.0,0.0,0.0,0.0,0.0,0.0,0.0,0.0,0.0,0.0,0.0,0.0,0.0,0.0,0.0,0.0,0.0,0.0,0.0,0.0,0.0,0.0,0.0,0.0,0.0,-2.1121,-1.9276,-1.8176,-1.8176,-1.8176,-1.8176,-1.8176,-1.8176,-1.8176,-1.8176,0.0,0.0,0.0,0.0,0.0,0.0,0.0,0.0,0.0,0.0,0.0,0.0,0.0,0.0,0.0,0.0,0.0,0.0,0.0,0.0,0.0,0.0,0.0,0.0,0.0,0.0,0.0,0.0,0.0,0.0,0.0,0.0,0.0,0.0,0.0,0.0,0.0,0.0,0.0,0.0,0.0,0.0,0.0,0.0,0.0,0.0,0.0,0.0,0.0,0.0,0.0,0.0,0.0,0.0,0.0,0.0,0.0,0.0,0.0,0.0,-1.2753,-1.3324,0.0,0.0,0.0,0.0,0.0,0.0,0.0,0.0,0.0,0.0,0.0,0.0,0.0,0.0,0.0,0.0,0.0,0.0,0.0,0.0,0.0,0.0,0.0,0.0,0.0,0.0,0.0,0.0,0.0,0.0,0.0,0.0,0.0,0.0,0.0,0.0,0.0,0.0,0.0,0.0,-2.1121,-1.9091,-1.7803,-1.8176,-1.8176,-1.8176,-1.8176,-1.8176,-1.8176,-1.8176,-1.8363,0.0,0.0,0.0,0.0,0.0,0.0,0.0,0.0,0.0,0.0,0.0,0.0,0.0,0.0,0.0,0.0,0.0,0.0,0.0,0.0,0.0,0.0,0.0,0.0,0.0,0.0,0.0,0.0,0.0,0.0,0.0,0.0,0.0,0.0,0.0,0.0,0.0,0.0,0.0,0.0,0.0,0.0,0.0,0.0,0.0,0.0,0.0,0.0,0.0,0.0,0.0,0.0,0.0,0.0,0.0,0.0,0.0,0.0,0.0,-1.2319,-1.2715,0.0,0.0,0.0,0.0,0.0,0.0,0.0,0.0,0.0,0.0,0.0,0.0,0.0,0.0,0.0,0.0,0.0,0.0,0.0,0.0,0.0,0.0,0.0,0.0,0.0,0.0,0.0,0.0,0.0,0.0,0.0,0.0,0.0,0.0,0.0,0.0,0.0,0.0,0.0,0.0,-1.9276,-1.8168,-1.7429,-1.7803,-1.7989,-1.8176,-1.8176,-1.8176,-1.8176,-1.8176,-1.8176,0.0,0.0,0.0,0.0,0.0,0.0,0.0,0.0,0.0,0.0,0.0,0.0,0.0,0.0,0.0,0.0,0.0,0.0,0.0,0.0,0.0,0.0,0.0,0.0,0.0,0.0,0.0,0.0,0.0,0.0,0.0,0.0,0.0,0.0,0.0,0.0,0.0,0.0,0.0,0.0,0.0,0.0,0.0,0.0,0.0,0.0,0.0,0.0,0.0,0.0,0.0,0.0,0.0,-1.2625,-1.2324,-1.2119,-1.2113,-1.1716,-1.1288,-1.1751,-1.1792,-1.1588,-1.2315,0.0,0.0,0.0,0.0,0.0,0.0,0.0,0.0,0.0,0.0,0.0,0.0,0.0,0.0,0.0,0.0,0.0,0.0,0.0,0.0,0.0,0.0,-1.5038,-1.5153,-1.5181,-1.5368,-1.6306,0.0,0.0,0.0,0.0,0.0,0.0,0.0,0.0,0.0,0.0,0.0,-1.725,-1.725,-1.725,-1.725,-1.7616,-1.7989,-1.7989,-1.7989,-1.8176,-1.8176,-1.8176,-1.8363,0.0,0.0,0.0,0.0,0.0,0.0,0.0,0.0,0.0,0.0,0.0,0.0,0.0,0.0,0.0,0.0,0.0,0.0,0.0,0.0,0.0,0.0,0.0,0.0,0.0,0.0,0.0,0.0,0.0,0.0,0.0,0.0,-0.9228,-0.9167,0.0,0.0,0.0,0.0,0.0,0.0,0.0,0.0,0.0,0.0,0.0,0.0,0.0,-0.7903,-0.7914,-1.1302,-1.2861,-1.291,-1.1755,-1.1339,-1.1311,-1.0965,-1.0954,-1.0779,-1.0897,0.0,-1.1594,-1.1745,0.0,0.0,0.0,0.0,0.0,0.0,0.0,0.0,0.0,0.0,0.0,0.0,0.0,0.0,0.0,0.0,0.0,0.0,0.0,0.0,0.0,0.0,-1.516,-1.5174,-1.5181,-1.5181,-1.5368,-1.5931,-1.6494,-1.7048,-1.7414,-1.76,0.0,0.0,0.0,0.0,0.0,0.0,-1.6868,-1.6306,-1.6314,-1.6681,-1.6868,-1.7055,-1.7437,-1.7429,-1.7616,-1.8176,-1.8176,-1.8176,-1.8363,-1.8557,0.0,0.0,0.0,0.0,0.0,0.0,0.0,0.0,0.0,0.0,0.0,0.0,0.0,0.0,0.0,0.0,0.0,0.0,0.0,0.0,0.0,0.0,0.0,0.0,0.0,0.0,0.0,0.0,0.0,-1.051,-0.9677,-0.9789,-1.052,-1.1412,0.0,0.0,0.0,0.0,0.0,0.0,0.0,0.0,0.0,-1.0155,-1.0641,-0.8468,-0.3167,-0.4728,-0.6799,-0.8861,-0.8301,-0.7937,-0.7937,-0.7765,-0.7765,-0.7769,-0.7679,-0.7887,-0.8225,-1.0396,-1.1584,-1.2146,0.0,0.0,0.0,0.0,-1.3343,-1.3356,-1.3426,-1.3496,-1.3726,-1.3905,0.0,0.0,0.0,0.0,0.0,0.0,0.0,-1.5106,-1.5167,-1.5181,-1.5181,-1.5181,-1.5181,-1.5181,-1.5181,-1.5368,-1.5563,-1.6119,-1.6306,-1.6306,-1.6681,-1.6868,0.0,0.0,0.0,-1.6306,-1.6306,-1.6126,-1.5938,-1.6306,-1.6681,-1.7242,-1.7437,-1.7616,-1.7989,-1.8176,-1.8176,-1.8176,-1.8176,-1.8363,-1.9462,0.0,0.0,0.0,0.0,0.0,0.0,0.0,0.0,0.0,0.0,0.0,0.0,0.0,0.0,0.0,0.0,0.0,0.0,0.0,0.0,0.0,0.0,0.0,0.0,0.0,0.0,0.0,0.0,-1.0271,-0.9226,-0.9335,-0.9416,-1.0003,0.0,0.0,0.0,0.0,0.0,0.0,-0.9916,-1.0817,-0.9419,-0.5357,-0.8707,-0.7237,-0.0,-0.0,-0.1388,-0.4166,-0.4166,-0.4171,-0.4009,-0.402,-0.4558,-0.5454,-0.5334,-0.5383,-0.5591,-0.8509,-0.9688,-1.0063,-1.1925,-1.2668,-1.268,-1.3059,-1.3132,-1.3144,-1.3236,-1.3272,-1.3272,-1.3638,-1.3846,-1.4068,-1.4658,0.0,0.0,0.0,0.0,-1.5181,-1.5181,-1.5181,-1.5181,-1.5181,-1.5181,-1.5181,-1.5181,-1.5181,-1.5368,-1.5563,-1.5751,-1.5931,-1.6306,-1.6494,0.0,-1.6306,-1.6119,-1.5938,-1.5751,-1.5751,-1.5751,-1.5751,-1.6306,-1.6868,-1.7242,-1.7616,-1.7989,-1.8176,-1.8176,-1.8176,-1.8176,-1.8176,-1.9091,-2.0917,0.0,0.0,0.0,0.0,0.0,0.0,0.0,0.0,0.0,0.0,0.0,0.0,0.0,0.0,0.0,0.0,0.0,0.0,0.0,0.0,0.0,0.0,0.0,0.0,0.0,0.0,0.0,0.0,0.0,-0.5877,-0.5712,0.0,0.0,0.0,0.0,-1.0219,-1.0318,-1.1476,-1.3892,-1.4077,-0.9843,-0.0707,-0.053,-0.0527,-0.0,-0.0,-0.0174,-0.0348,-0.0348,-0.035,-0.0353,-0.0357,-0.2164,-0.547,-0.5342,-0.5367,-0.5364,-0.5655,-0.5834,-0.6436,-1.0316,-1.2169,-1.2706,-1.3078,-1.326,-1.326,-1.3266,-1.3272,-1.3272,-1.3272,-1.3732,-1.4235,-1.4932,-1.5167,0.0,0.0,-1.5181,-1.5181,-1.5181,-1.5181,-1.5181,-1.5181,-1.5181,-1.5181,-1.5181,-1.5181,-1.5181,-1.5181,-1.5181,-1.5181,-1.5181,0.0,-1.5751,-1.5368,-1.5563,-1.5751,-1.5368,-1.5181,-1.5181,-1.5181,-1.5368,-1.5744,-1.6681,-1.6681,-1.7242,-1.8176,-1.8176,-1.8176,-1.8176,-1.8176,-1.8176,-1.8363,-1.8735,0.0,0.0,0.0,0.0,0.0,0.0,0.0,0.0,0.0,0.0,0.0,0.0,0.0,0.0,0.0,0.0,0.0,0.0,0.0,0.0,0.0,0.0,0.0,0.0,0.0,0.0,0.0,0.0,-0.7171,-0.631,0.0,-0.8497,-0.7821,-0.784,-0.91,-0.6439,-0.5022,-0.5929,-0.6605,-0.5342,-0.1964,-0.0705,-0.0,-0.0,-0.0,-0.0,-0.0,-0.0,-0.0,-0.0,-0.0,-0.0734,-0.1844,-0.1863,-0.187,-0.1871,-0.1875,-0.205,-0.2399,-0.646,-0.9793,-1.2214,-1.227,-1.2477,-1.2488,-1.2574,-1.2602,-1.2602,-1.2976,-1.3566,-1.4364,-1.4597,-1.4993,-1.5181,-1.5181,-1.5181,-1.5181,-1.5181,-1.5181,-1.5181,-1.5181,-1.5181,-1.5181,-1.5181,-1.5181,-1.5181,-1.5181,-1.5181,-1.5181,-1.5181,-1.5368,-1.5368,-1.5181,-1.5368,-1.5368,-1.5181,-1.5181,-1.5181,-1.5181,-1.5744,-1.6306,-1.6681,-1.7242,-1.7803,-1.8176,-1.8176,-1.8176,-1.8176,-1.8176,-1.8176,-1.8176,-1.8363,-1.9099,0.0,0.0,0.0,0.0,0.0,0.0,0.0,0.0,0.0,0.0,0.0,0.0,0.0,0.0,0.0,0.0,0.0,0.0,0.0,0.0,0.0,0.0,0.0,0.0,0.0,0.0,-0.6153,-0.7611,-0.6027,-0.5515,-0.7702,-0.6097,-0.538,-0.6643,-0.3769,-0.1616,-0.0898,-0.1605,-0.1958,-0.1965,-0.0707,-0.0,-0.0,-0.0,-0.0,-0.0,-0.0,-0.0,-0.0,-0.0,-0.0,-0.0,-0.0,-0.0,-0.0,-0.0,-0.0,-0.0374,-0.4477,-0.8586,-1.1982,-1.2031,-1.2053,-1.2063,-1.2145,-1.2172,-1.2361,-1.2739,-1.3487,-1.4241,-1.4422,-1.4805,-1.5181,-1.5181,-1.5181,-1.5181,-1.5181,-1.5181,-1.5181,-1.5181,-1.5181,-1.5181,-1.5181,-1.5181,-1.5181,-1.5181,-1.5181,-1.5181,-1.5181,-1.5181,-1.5181,-1.5181,-1.5181,-1.5181,-1.5181,-1.5181,-1.5181,-1.5181,-1.5931,-1.6494,-1.6681,-1.7429,-1.7989,-1.8176,-1.8176,-1.8176,-1.8176,-1.8176,-1.8176,-1.8176,-1.8176,-1.8549,-1.9488,0.0,0.0,0.0,0.0,0.0,0.0,0.0,0.0,0.0,0.0,0.0,0.0,0.0,0.0,0.0,0.0,0.0,0.0,0.0,0.0,0.0,0.0,0.0,-0.893,-0.7156,-0.5915,-0.6454,-0.4487,-0.2874,-0.2874,-0.1976,-0.1795,-0.2694,-0.2874,-0.1975,-0.018,-0.0,-0.0,-0.0,-0.0,-0.0,-0.0,-0.0,-0.0,-0.0,-0.0,-0.0,-0.0,-0.0,-0.0,-0.0,-0.0,-0.0,-0.0,-0.0,-0.0,-0.0382,-0.4567,-0.8759,-1.2221,-1.2183,-1.2172,-1.2172,-1.2172,-1.2172,-1.2361,-1.2739,-1.3305,-1.3682,-1.4241,-1.4805,-1.5181,-1.5181,-1.5181,-1.5181,-1.5181,-1.5181,-1.5181,-1.5181,-1.5181,-1.5181,-1.5181,-1.5181,-1.5181,-1.5181,-1.5181,-1.5181,-1.5181,-1.5181,-1.5181,-1.5181,-1.5181,0.0,-1.5181,-1.5181,-1.5181,-1.5181,-1.5563,-1.6126,-1.6681,-1.7055,-1.7616,-1.8176,-1.8176,-1.8176,-1.8176,-1.8176,-1.8176,-1.8176,-1.8176,-1.8363,-1.893,0.0,0.0,0.0,0.0,0.0,0.0,0.0,0.0,0.0,0.0,0.0,0.0,0.0,0.0,0.0,0.0,0.0,0.0,0.0,0.0,0.0,-0.6799,-0.6088,-0.6624,-0.502,-0.3769,-0.3949,-0.3412,-0.2874,-0.2874,-0.2694,-0.1976,-0.0898,-0.0718,-0.0539,-0.0,-0.0,-0.0,-0.0,-0.0,-0.0,-0.0,-0.0,-0.0,-0.0,-0.0,-0.0,-0.0,-0.0,-0.0,-0.0,-0.0,-0.0,-0.0,-0.0,-0.0,-0.0764,-0.7823,-1.1272,-1.2221,-1.2199,-1.2183,-1.2172,-1.2172,-1.2172,-1.2172,-1.2361,-1.2739,-1.3116,-1.3305,-1.3864,-1.461,-1.461,-1.4993,-1.5181,-1.5181,-1.5181,-1.5181,-1.5181,-1.5181,-1.5181,-1.5181,-1.5181,-1.5181,-1.5181,-1.5181,-1.5181,-1.5181,-1.5181,-1.5181,-1.5181,-1.5181,-1.5181,-1.5181,-1.5181,-1.5368,-1.5751,-1.6119,-1.6681,-1.7242,-1.7616,-1.7989,-1.8176,-1.8176,-1.8176,-1.8176,-1.8176,-1.8176,-1.8176,-1.8549,-1.8744,0.0,0.0,0.0,0.0,0.0,0.0,0.0,0.0,0.0,0.0,0.0,0.0,0.0,0.0,0.0,0.0,0.0,0.0,0.0,0.0,0.0,0.0,-0.5196,-0.4485,-0.4485,-0.359,-0.2874,-0.2874,-0.2515,-0.2156,-0.1795,-0.1616,-0.1257,-0.0,-0.0,-0.0,-0.0,-0.0,-0.0,-0.0,-0.0,-0.0,-0.0,-0.0,-0.0,-0.0,-0.0,-0.0,-0.0,-0.0,-0.0,-0.0,-0.0,-0.0,-0.0,-0.0,-0.0,-0.0382,0.0,0.0,0.0,0.0,-1.2199,-1.2183,-1.2183,-1.2178,-1.2172,-1.2172,-1.255,-1.2928,-1.2928,-1.3493,-1.4241,-1.4429,-1.461,-1.4993,-1.5181,-1.5181,-1.5181,-1.5181,-1.5181,-1.5181,-1.5181,-1.5181,-1.5181,-1.5181,-1.5181,0.0,-1.5181,-1.5181,-1.5181,-1.5181,-1.5181,-1.5181,-1.5181,-1.5181,-1.5368,-1.5563,-1.6119,-1.6494,-1.6688,-1.7429,0.0,0.0,0.0,-1.8176,-1.8176,-1.8176,0.0,0.0,0.0,-1.8557,-1.8557,-1.8922,0.0,0.0,-2.113,-2.2586,0.0,0.0,0.0,0.0,0.0,0.0,0.0,0.0,0.0,0.0,0.0,0.0,0.0,0.0,0.0,0.0,-0.3947,-0.2874,-0.2874,-0.2874,-0.2874,-0.2874,-0.2156,-0.1077,-0.018,-0.0,-0.0,-0.0,-0.0,-0.0,-0.0,-0.0,0.0,0.0,0.0,-0.0,-0.0,-0.0,-0.0,-0.0,-0.0,-0.0,-0.0,-0.0,-0.0,-0.0,-0.0,-0.0,-0.0,-0.0,-0.0,-0.0,-0.0,-0.4379,-1.0897,-1.1267,-1.1447,-1.1621,-1.201,0.0,0.0,-1.2178,-1.255,-1.2739,-1.2739,-1.3116,-1.3682,-1.4241,-1.4422,-1.461,-1.4993,-1.5181,-1.5181,-1.5181,-1.5181,-1.5181,-1.5181,-1.5181,-1.5181,-1.5181,-1.5181,-1.5181,-1.5181,-1.5181,-1.5181,-1.5181,-1.5181,-1.5181,-1.5181,-1.5181,-1.5181,-1.5181,-1.5563,0.0,-1.6126,-1.6876,-1.7437,-1.7437,-1.7989,-1.8176,-1.8176,-1.8176,-1.8176,-1.8176,-1.8176,-1.8176,-1.8176,-1.8176,-1.8176,-1.8176,-2.0936,-2.2218,0.0,0.0,0.0,0.0,0.0,0.0,0.0,0.0,0.0,0.0,0.0,0.0,0.0,0.0,0.0,-0.3769,-0.3053,-0.2874,-0.2874,-0.2874,-0.2874,-0.2874,-0.2694,-0.1975,-0.018,-0.0,-0.0,-0.0,-0.0,-0.0,-0.0,-0.0,-0.0,-0.0,-0.0,-0.0,-0.0,-0.0,-0.0,-0.0,-0.0,0.0,-0.0,-0.0,-0.0,-0.0,-0.0,-0.0,-0.0,-0.0,-0.0,-0.0,-0.0,-0.0951,-0.2854,-0.6087,-0.7226,-0.7799,-1.1062,-1.221,-1.2194,-1.221,-1.2194,-1.2361,-1.2378,-1.275,0.0,-1.3682,-1.4052,-1.461,-1.4993,-1.4805,-1.4617,-1.5181,-1.4805,-1.4617,-1.5181,-1.5181,-1.5181,-1.5181,-1.5181,-1.5181,-1.5181,-1.5181,-1.5181,-1.5181,-1.5181,-1.5181,-1.5181,-1.5181,-1.5368,-1.5751,-1.5938,-1.6314,-1.7063,-1.725,-1.7616,-1.7989,-1.8176,-1.8176,-1.8176,-1.8176,-1.8176,-1.8176,-1.8176,-1.8176,-1.8176,-1.8176,-1.8176,-1.8176,-1.9108,-1.9666,0.0,0.0,0.0,0.0,0.0,0.0,0.0,0.0,0.0,0.0,0.0,-0.5733,-0.5733,0.0,-0.3947,-0.3053,-0.2874,-0.2874,-0.2874,-0.2874,-0.2694,-0.2156,-0.2515,-0.2156,-0.018,-0.0,-0.0,-0.0,-0.0,-0.0,-0.0,-0.0,-0.0,-0.0,-0.0,-0.0,-0.0,-0.0,-0.0,-0.0,-0.0,-0.0,-0.0,-0.0,-0.0,-0.0,-0.0,-0.0,-0.0,-0.0,-0.0,-0.0,-0.0,-0.0,-0.0191,-0.2285,-0.3044,-0.3421,-0.5327,-0.7423,-0.9517,-1.1452,-1.0863,-0.9509,-1.1631,-1.2389,-1.2561,-1.2939,-1.3305,-1.3864,-1.4247,-1.4241,-1.4241,-1.4617,-1.4617,-1.461,-1.4993,-1.5181,-1.5181,-1.5181,-1.5181,-1.5181,-1.5181,-1.5181,-1.5181,-1.5181,-1.5181,-1.5181,-1.5181,-1.5181,-1.5368,-1.5556,-1.5563,-1.5938,-1.6501,-1.7063,-1.7616,-1.8176,-1.8176,-1.8176,-1.8176,-1.8176,-1.8176,-1.8176,-1.8176,-1.8176,-1.8176,-1.8176,-1.8176,-1.8176,-1.8363,-1.8549,0.0,0.0,0.0,0.0,0.0,0.0,0.0,0.0,-0.3411,-0.4841,-0.3947,-0.3411,-0.4841,-0.3947,-0.2874,-0.2874,-0.2874,-0.2874,-0.2874,-0.2874,-0.2516,-0.1801,-0.2162,-0.1801,-0.018,-0.0,-0.0,-0.0,-0.0,-0.0,-0.0,-0.0,-0.0,-0.0,-0.0,-0.0,-0.0,-0.0,-0.0,-0.0,-0.0,-0.0,-0.0,-0.0,-0.0,-0.0,-0.0,-0.0,-0.0,-0.0,-0.0,-0.0,-0.0,-0.0,-0.0,-0.0,-0.0,-0.0,-0.0,-0.2092,-0.5515,-0.8766,-0.8189,-0.6657,-0.9146,-1.0294,-1.1237,-1.1999,-1.2561,-1.2933,-1.3505,-1.3694,-1.3688,-1.4247,-1.4241,-1.4429,-1.4993,-1.5181,-1.5181,-1.5181,-1.5181,-1.5181,-1.5181,-1.5181,-1.5181,-1.5181,-1.5181,-1.5181,-1.5181,-1.5181,-1.5181,-1.5181,-1.5181,-1.5368,-1.5938,-1.6876,-1.7616,-1.8176,-1.8176,-1.8176,-1.8176,-1.8176,-1.8176,-1.8176,-1.8176,-1.8176,-1.8176,-1.8176,-1.8176,-1.8176,-1.8176,-1.8176,-0.2762,-0.2821,-0.2866,-0.2872,-0.2874,-0.2874,0.0,0.0,-0.2874,-0.3233,-0.3053,-0.3053,-0.3233,-0.3053,-0.2874,-0.2874,-0.2874,-0.2874,-0.2874,-0.2874,-0.2885,-0.2729,-0.1275,-0.0182,-0.0,-0.0,-0.0,-0.0,-0.0,-0.0,-0.0,-0.0,-0.0,-0.0,-0.0,-0.0,-0.0,-0.0,-0.0,-0.0,-0.0,-0.0,-0.0,-0.0,-0.0,-0.0,-0.0,-0.0,-0.0,-0.0,-0.0,-0.0,-0.0,-0.0,-0.0,-0.0,-0.0,-0.0,-0.0,-0.0381,-0.0761,-0.1144,-0.3428,-0.5513,-0.2282,-0.3991,-0.7609,-1.1247,-1.221,-1.2589,-1.3358,-1.3536,-1.3335,-1.409,-1.4071,-1.4059,-1.4993,-1.5181,-1.5181,-1.5181,-1.5181,-1.5181,-1.5181,-1.5181,-1.5181,-1.5181,-1.5181,-1.5181,-1.5181,-1.5181,-1.5181,-1.5181,-1.5181,-1.5556,-1.6494,-1.7055,-1.7616,-1.8176,-1.8176,-1.8176,-1.8176,-1.8176,-1.8176,-1.8176,-1.8176,-1.8176,-1.8176,-1.8176,-1.8176,-1.8176,-1.8176,-1.8176,-0.2767,-0.2827,-0.2874,-0.2874,-0.2874,-0.2874,-0.2874,-0.2874,-0.2874,-0.2874,-0.2874,-0.2874,-0.2874,-0.2874,-0.2874,0.0,-0.2874,-0.2881,-0.2898,-0.2356,-0.2183,-0.2758,-0.111,-0.0,-0.0,-0.0,-0.0,-0.0,-0.0,-0.0,-0.0,-0.0,-0.0,-0.0,-0.0,-0.0,-0.0,-0.0,-0.0,-0.0,-0.0,-0.0,-0.0,-0.0,-0.0,-0.0,-0.0,-0.0,-0.0,-0.0,-0.0,-0.0,-0.0,-0.0,-0.0,-0.0,-0.0,-0.0,-0.0,-0.0,-0.0,-0.0,-0.1144,-0.2286,-0.0572,-0.1142,-0.2851,-0.4563,-0.685,-0.8755,-0.9134,-0.9134,-0.9703,-1.2389,-1.2378,-1.2178,-1.4649,-1.4247,-1.3852,-1.4993,-1.5181,-1.5181,-1.5181,-1.5181,-1.5181,-1.5181,-1.5181,-1.5181,-1.5181,-1.5181,-1.5181,-1.5181,-1.5375,-1.5931,-1.6681,-1.7055,-1.7616,-1.8176,-1.8176,-1.8176,-1.8176,-1.8176,-1.8176,-1.8176,-1.8176,-1.8176,-1.8176,-1.8176,-1.8176,-1.8176,-1.8176,-1.8176,-0.2772,-0.2827,-0.2874,-0.2874,-0.2874,-0.2874,-0.2874,-0.2874,-0.2874,-0.2874,-0.2874,-0.2874,-0.2874,-0.2874,-0.2874,-0.2874,-0.2881,-0.2894,-0.2916,-0.2194,-0.2023,-0.2788,-0.1123,-0.0,-0.0,-0.0,-0.0,-0.0,-0.0,-0.0,-0.0,-0.0,-0.0,-0.0,-0.0,-0.0,-0.0,-0.0,-0.0,-0.0,-0.0,-0.0,-0.0,-0.0,-0.0,-0.0,-0.0,-0.0,-0.0,-0.0,-0.0,-0.0,-0.0,-0.0,-0.0,-0.0,-0.0,-0.0,-0.0,-0.0,-0.0,-0.0,-0.0,-0.0,-0.0,-0.0,-0.0,-0.0,-0.2093,-0.4377,-0.4377,-0.4375,-0.5133,-0.8182,-0.8755,-0.9703,-1.3323,-1.311,-1.271,-1.4805,-1.5181,-1.5181,-1.5181,-1.5181,-1.5181,-1.5181,-1.5181,-1.5181,-1.5181,-1.5181,-1.5181,-1.5181,-1.5563,-1.5938,-1.6494,-1.6868,-1.7429,-1.7989,-1.8176,-1.8176,-1.8176,-1.8176,-1.8176,-1.8176,-1.8176,-1.8176,-1.8176,-1.8176,-1.8176,-1.8176,-1.8176,-1.8176,-0.2782,-0.2827,-0.2874,-0.2874,-0.2874,-0.2874,-0.2874,-0.2874,-0.2874,-0.2874,-0.2874,-0.2874,-0.2874,-0.2874,-0.2874,-0.2874,-0.2898,-0.2919,-0.2919,-0.2945,-0.2789,-0.2817,-0.1128,-0.0,0.0,-0.0,-0.0,-0.0,-0.0,-0.0,-0.0,-0.0,-0.0,-0.0,-0.0,-0.0,-0.0,-0.0,-0.0,-0.0,-0.0,-0.0,-0.0,-0.0,-0.0,-0.0,-0.0,-0.0,-0.0,-0.0,-0.0,-0.0,-0.0,-0.0,-0.0,-0.0,-0.0,-0.0,-0.0,-0.0,-0.0,-0.0,-0.0,-0.0,-0.0,-0.0,-0.0,-0.0,-0.0,-0.0191,-0.0191,-0.0191,-0.019,-0.038,-0.2848,-0.6263,-1.0437,-1.1763,-1.271,-1.4805,-1.5181,-1.5181,-1.5181,-1.5181,-1.5181,-1.5181,-1.5181,-1.5181,-1.5181,-1.5181,-1.5181,-1.5181,-1.5181,-1.5368,-1.5938,-1.6494,-1.6868,-1.7437,-1.7989,-1.8176,-1.8176,-1.8176,-1.8176,-1.8176,-1.8176,-1.8176,-1.8176,-1.8176,-1.8176,-1.8176,-1.8176,-1.8176,-0.2808,-0.2842,-0.2874,-0.2874,-0.2874,-0.2874,-0.2874,-0.2874,-0.2874,-0.2874,-0.2874,-0.2874,-0.2874,-0.2874,-0.2881,-0.2898,-0.2912,-0.2749,-0.2042,-0.2427,-0.2443,-0.1138,-0.038,0.0,0.0,0.0,-0.0,-0.0,-0.0,-0.0,-0.0,-0.0,-0.0,-0.0,-0.0,-0.0,-0.0,-0.0,-0.0,-0.0,-0.0,-0.0,-0.0,-0.0,-0.0,-0.0,-0.0,-0.0,-0.0,-0.0,-0.0,-0.0,-0.0,-0.0,-0.0,-0.0,-0.0,-0.0,-0.0,-0.0,-0.0,-0.0,-0.0,-0.0,-0.0,-0.0,-0.0,-0.0,-0.0,-0.0,-0.0,-0.0,-0.0,-0.0,-0.1333,-0.3234,-0.5318,-0.8164,-1.0257,-1.1013,-1.2339,-1.3281,-1.3281,-1.3281,-1.3664,-1.4993,-1.5181,-1.5181,-1.5181,-1.5181,-1.5181,-1.5181,-1.5181,-1.5368,-1.5938,-1.6306,-1.6868,-1.7437,-1.7989,-1.8176,-1.8176,-1.8176,-1.8176,-1.8176,-1.8176,-1.8176,-1.8176,-1.8176,-1.8176,-1.8176,-1.8176,-1.8241,-0.2823,-0.2851,-0.2874,-0.2874,-0.2874,-0.2874,-0.2874,-0.2874,-0.2874,-0.2874,-0.2874,-0.2876,-0.2887,-0.2889,-0.2898,-0.2927,-0.2942,-0.2593,-0.15,-0.1697,-0.1327,-0.0191,-0.0,-0.0,0.0,0.0,0.0,-0.0,-0.0,-0.0,-0.0,-0.0,-0.0,-0.0,-0.0,-0.0,-0.0,-0.0,-0.0,-0.0,-0.0,-0.0,-0.0,-0.0,-0.0,-0.0,-0.0,-0.0,-0.0,-0.0,-0.0,-0.0,-0.0,-0.0,-0.0,-0.0,-0.0,-0.0,-0.0,-0.0,-0.0,-0.0,-0.0,-0.0,-0.0,-0.0,-0.0,-0.0,-0.0,-0.0,-0.0,-0.0,-0.0,-0.0,-0.0763,-0.1715,-0.2853,-0.5702,-0.8174,-0.8932,-1.0257,-1.139,-1.2145,-1.271,-1.3664,-1.4993,-1.5181,-1.5181,-1.5181,-1.5181,-1.5181,-1.5181,-1.5181,-1.5368,-1.5563,-1.6306,-1.6868,-1.7055,-1.7803,-1.8176,-1.8176,-1.8176,-1.8176,-1.8176,-1.8176,-1.8176,-1.8176,-1.8176,-1.8208,-1.8273,-1.8273,-1.8371,-0.283,-0.2852,-0.2874,-0.2874,-0.2874,-0.2874,-0.2874,-0.2874,-0.2874,-0.2874,-0.2874,-0.2883,0.0,0.0,-0.2927,-0.2958,-0.2988,-0.2632,-0.1692,-0.0569,-0.0,0.0,0.0,0.0,0.0,0.0,0.0,-0.0,-0.0,-0.0,-0.0,-0.0,-0.0,-0.0,-0.0,-0.0,-0.0,-0.0,-0.0,-0.0,-0.0,-0.0,-0.0,-0.0,-0.0,-0.0,-0.0,-0.0,-0.0,-0.0,-0.0,-0.0,-0.0,-0.0,-0.0,-0.0,-0.0,-0.0,-0.0,-0.0,-0.0,-0.0,-0.0,-0.0,-0.0,-0.0,-0.0,-0.0,-0.0,-0.0,-0.0,-0.0,-0.0,-0.0,-0.0763,-0.1906,-0.2854,-0.4565,-0.647,-0.8364,-0.8932,-0.969,-1.1768,-1.3664,-1.4993,-1.5181,-1.5181,-1.5181,-1.5181,-1.5181,-1.5181,-1.5181,-1.5181,-1.5181,-1.5181,-1.6119,-1.6681,-1.6681,-1.7616,-1.8176,-1.8176,-1.8176,-1.8176,-1.8176,-1.8184,-1.8192,-1.8192,-1.82,-1.8298,-1.8468,-1.8468,-1.8566,-0.2856,-0.2868,-0.2874,-0.2874,-0.2874,-0.2874,-0.2874,-0.2874,-0.2874,-0.2874,-0.2874,-0.2883,0.0,0.0,0.0,-0.2987,-0.3002,0.0,-0.2658,-0.1143,0.0,-0.0,0.0,-0.0,-0.0,-0.0,0.0,0.0,-0.0,-0.0,-0.0,-0.0,-0.0,-0.0,-0.0,-0.0,-0.0,-0.0,-0.0,-0.0,-0.0,-0.0,-0.0,-0.0,-0.0,-0.0,-0.0,-0.0,-0.0,-0.0,-0.0,-0.0,-0.0,-0.0,-0.0,-0.0,-0.0,-0.0,-0.0,-0.0,-0.0,-0.0,-0.0,-0.0,-0.0,-0.0,-0.0,-0.0,-0.0,-0.0,-0.0,-0.0,-0.0,-0.0,-0.1336,-0.286,-0.305,-0.3426,-0.3995,-0.4571,-0.5903,-0.7416,-0.95,-1.1579,-1.3469,-1.4993,-1.5181,-1.5181,-1.5181,-1.5181,-1.5181,-1.5181,-1.5181,-1.5181,-1.5181,-1.6119,-1.6681,-1.6681,-1.7616,-1.8176,-1.8176,-1.8176,-1.8176,-1.8176,-1.8314,-1.8379,-1.8379,-1.8517,-1.8606,-1.8655,-1.8655,-1.8753,-0.287,-0.2874,-0.2874,-0.2874,-0.2874,-0.2874,-0.2874,-0.2874,-0.2874,-0.2874,-0.2883,-0.2901,-0.2931,-0.2946,-0.2972,0.0,0.0,0.0,-0.2478,-0.1717,-0.0954,0.0,-0.0,0.0,-0.0,-0.0,-0.0,0.0,-0.0,-0.0,-0.0,-0.0,-0.0,-0.0,-0.0,-0.0,-0.0,-0.0,-0.0,-0.0,-0.0,-0.0,-0.0,-0.0,-0.0,-0.0,-0.0,-0.0,-0.0,-0.0,-0.0,-0.0,-0.0,-0.0,-0.0,-0.0,-0.0,-0.0,-0.0,-0.0,-0.0,-0.0,-0.0,-0.0,-0.0,-0.0,-0.0,-0.0,-0.0,-0.0,-0.0,-0.0,-0.0,-0.0,-0.1145,-0.2479,-0.2479,-0.2858,-0.3048,-0.3051,-0.4764,-0.647,-0.7606,-1.0252,-1.2522,-1.3664,-1.461,-1.5181,-1.5181,-1.5181,-1.5181,-1.5181,-1.5181,-1.5181,-1.5181,-1.6119,-1.6681,-1.6681,-1.7616,-1.8176,-1.8176,-1.8257,-1.8298,-1.8298,-1.8476,-1.8574,-1.8574,-1.8671,-1.8761,-1.8842,-1.8842,-1.8931,-0.2874,-0.2874,-0.2874,-0.2874,-0.2874,-0.2874,-0.2874,-0.2874,-0.2874,-0.2874,-0.2897,-0.2926,-0.3323,-0.3172,-0.3017,-0.3428,0.0,-0.2671,-0.1716,-0.2098,-0.2099,-0.0191,-0.0,-0.0,-0.0,-0.0,-0.0,-0.0,-0.0,-0.0,-0.0,-0.0,-0.0,-0.0,-0.0,-0.0,-0.0,-0.0,-0.0,-0.0,-0.0,-0.0,-0.0,-0.0,-0.0,-0.0,-0.0,-0.0,-0.0,-0.0,-0.0,-0.0,-0.0,-0.0,-0.0,-0.0,-0.0,-0.0,-0.0,-0.0,-0.0,-0.0,-0.0,-0.0,-0.0,-0.0,-0.0,-0.0,-0.0,-0.0,-0.0,-0.0,-0.0,-0.0,-0.0763,-0.1526,-0.1526,-0.2288,-0.3052,-0.3052,-0.4573,-0.571,-0.609,-0.9118,-1.1385,-1.1768,-1.3469,-1.4798,-1.4798,-1.4993,-1.5181,-1.5181,-1.5181,-1.5181,-1.5181,-1.6119,-1.6681,-1.6681,-1.7632,-1.8208,-1.8208,-1.8387,-1.8485,-1.8485,-1.8663,-1.8761,-1.8761,-1.8785,-1.8874,-1.9021,-1.9021,-1.9102,-0.2874,-0.2874,-0.2874,-0.2874,-0.2874,-0.2874,-0.2874,-0.2874,0.0,-0.2874,-0.2897,-0.3472,-0.5163,-0.4102,-0.3581,-0.5323,-0.4192,-0.2671,-0.1716,-0.0954,-0.0382,0.0,-0.0,-0.0,-0.0,-0.0,0.0,0.0,-0.0,-0.0,-0.0,-0.0,-0.0,-0.0,-0.0,-0.0,-0.0,-0.0,-0.0,-0.0,-0.0,-0.0,-0.0,-0.0,-0.0,-0.0,-0.0,-0.0,-0.0,-0.0,-0.0,-0.0,-0.0,-0.0,-0.0,-0.0,-0.0,-0.0,-0.0,-0.0,-0.0,-0.0,-0.0,-0.0,-0.0,-0.0,-0.0,-0.0,-0.0,-0.0,-0.0,-0.0,-0.0,-0.0,-0.0764,-0.1527,-0.1526,-0.2288,-0.3052,-0.3052,-0.3432,-0.4192,-0.59,-0.666,-0.7795,-0.9311,-1.139,-1.271,-1.271,-1.4228,-1.5181,-1.5181,-1.5181,-1.5181,-1.5181,-1.5751,-1.6306,-1.6681,-1.7373,-1.8017,-1.8403,-1.8582,-1.868,-1.868,-1.885,-1.8939,-1.8939,-1.9094,-1.9183,-1.9207,-1.9207,-1.9232,-0.2874,-0.2874,-0.2874,-0.2874,-0.2874,-0.2874,-0.2874,0.0,0.0,-0.2893,-0.2919,-0.3317,-0.4279,-0.451,-0.4547,-0.4569,-0.381,-0.2666,-0.1716,-0.0572,0.0,-0.0,-0.0,-0.0,0.0,-0.0,-0.0,-0.0,-0.0,-0.0,-0.0,-0.0,-0.0,-0.0,-0.0,-0.0,-0.0,-0.0,-0.0,-0.0,-0.0,-0.0,-0.0,-0.0,-0.0,-0.0,-0.0,-0.0,-0.0,-0.0,-0.0,-0.0,-0.0,-0.0,-0.0,-0.0,-0.0,-0.0,-0.0,-0.0,-0.0,-0.0,-0.0,-0.0,-0.0,-0.0,-0.0,-0.0,-0.0,-0.0,-0.0,-0.0,-0.0,-0.0,-0.0763,-0.1717,-0.2288,-0.2671,-0.3052,-0.3052,-0.3052,-0.3432,-0.4383,-0.5332,-0.647,-0.7416,-1.0252,-1.2145,-1.2145,-1.404,-1.5181,-1.5181,-1.5181,-1.5181,-1.5181,-1.5821,-1.6241,-1.6808,-1.7535,-1.8009,-1.859,-1.8761,-1.8858,-1.8858,-1.9037,-1.9126,-1.9126,-1.9216,-1.9256,-1.9256,-1.9256,-1.9256,-0.2874,-0.2874,-0.2874,-0.2874,-0.2874,-0.2874,-0.2874,-0.2874,-0.2882,-0.2911,-0.2941,-0.3156,-0.3561,-0.4919,-0.5713,-0.4573,-0.3616,-0.2663,-0.1715,-0.0572,-0.0,0.0,-0.0,0.0,-0.0,-0.0,0.0,-0.0,-0.0,-0.0,-0.0,-0.0,-0.0,-0.0,-0.0,-0.0,-0.0,-0.0,-0.0,-0.0,-0.0,-0.0,-0.0,-0.0,-0.0,-0.0,-0.0,-0.0,-0.0,-0.0,-0.0,-0.0,-0.0,-0.0,-0.0,-0.0,-0.0,-0.0,-0.0,-0.0,-0.0,-0.0,-0.0,-0.0,-0.0,-0.0,-0.0,-0.0,-0.0,-0.0,-0.0,-0.0,-0.0,-0.0,-0.0573,-0.1526,-0.2862,-0.3052,-0.3052,-0.3052,-0.3052,-0.3052,-0.3052,-0.4383,-0.5522,-0.5522,-0.855,-1.0819,-1.0819,-1.2716,-1.3864,-1.3895,-1.4656,-1.5228,-1.5228,-1.5744,-1.6407,-1.6986,-1.752,-1.7998,-1.8777,-1.8948,-1.9045,-1.9045,-1.9183,-1.9256,-1.9256,-1.9256,-1.9256,-1.9256,-1.9256,-1.9256,-0.2874,-0.2874,-0.2874,-0.2874,-0.2874,-0.2874,-0.2874,0.0,-0.2882,-0.2911,-0.2941,-0.3526,-0.5429,-0.586,-0.666,-0.8364,-0.551,-0.2661,-0.1711,-0.0571,-0.0,-0.0,0.0,0.0,-0.0,-0.0,-0.0,-0.0,-0.0,-0.0,-0.0,-0.0,-0.0,-0.0,-0.0,-0.0,-0.0,-0.0,-0.0,-0.0,-0.0,-0.0,-0.0,-0.0,-0.0,-0.0,-0.0,-0.0,-0.0,-0.0,-0.0,-0.0,-0.0,-0.0,-0.0,-0.0,-0.0,-0.0,-0.0,-0.0,-0.0,-0.0,-0.0,-0.0,-0.0,-0.0,-0.0,-0.0,-0.0,-0.0,-0.0,-0.0,-0.0,-0.0,-0.0,-0.0763,-0.267,-0.3052,-0.3052,-0.3052,-0.3052,-0.3052,-0.3052,-0.3242,-0.3432,-0.3432,-0.5332,-0.666,-0.666,-0.8364,-0.972,-0.9802,-1.3078,-1.5391,-1.5391,-1.5527,-1.6001,-1.7158,-1.7307,-1.7982,-1.8956,-1.9134,-1.9232,-1.9232,-1.9248,-1.9256,-1.9256,-1.9256,-1.9256,-1.9256,-1.9256,-1.9256,-0.2874,-0.2874,-0.2874,-0.2874,-0.2874,-0.2874,-0.2874,0.0,-0.2908,-0.2938,-0.2968,-0.3558,-0.5667,-0.6074,-0.685,-0.8743,-0.8375,-0.6663,-0.3041,-0.1523,-0.0763,-0.0,-0.0,0.0,0.0,0.0,-0.0,-0.0,-0.0,-0.0,-0.0,-0.0,-0.0,-0.0,-0.0,-0.0,-0.0,-0.0,-0.0,-0.0,-0.0,-0.0,-0.0,-0.0,-0.0,-0.0,-0.0,-0.0,-0.0,-0.0,-0.0,-0.0,-0.0,-0.0,-0.0,-0.0,-0.0,-0.0,-0.0,-0.0,-0.0,-0.0,-0.0,-0.0,-0.0,-0.0,-0.0,-0.0,-0.0,-0.0,-0.0,-0.0,-0.0,-0.0,-0.0,-0.0388,-0.1941,-0.2706,-0.308,-0.308,-0.3065,-0.3052,-0.3052,-0.3052,-0.3052,-0.3052,-0.4787,-0.6145,-0.6145,-0.7903,-0.91,-0.9132,-1.1792,-1.3513,-1.3596,-1.5288,-1.6551,-1.7322,-1.7871,-1.8356,-1.9151,-1.9224,-1.9256,-1.9256,-1.9256,-1.9256,-1.9256,-1.9256,-1.9256,-1.9256,-1.9256,-1.9256,-0.2874,-0.2874,-0.2874,-0.2874,-0.2874,-0.2874,-0.2874,0.0,-0.2924,-0.2956,-0.2986,-0.3392,-0.4943,-0.5713,-0.647,-0.7985,-0.8952,-0.8386,-0.4755,-0.2857,-0.1716,0.0,0.0,0.0,0.0,-0.0,-0.0,-0.0,-0.0,-0.0,-0.0,-0.0,-0.0,-0.0,-0.0,-0.0,-0.0,-0.0,-0.0,-0.0,-0.0,-0.0,-0.0,-0.0,-0.0,-0.0,-0.0,-0.0,-0.0,-0.0,-0.0,-0.0,-0.0,-0.0,-0.0,-0.0,-0.0,-0.0,-0.0,-0.0,-0.0,-0.0,-0.0,-0.0,-0.0,-0.0,-0.0,-0.0,-0.0,-0.0,-0.0,-0.0,-0.0,-0.0,-0.0,-0.0196,-0.1374,-0.2345,-0.3111,-0.3111,-0.3093,-0.308,-0.308,-0.308,-0.308,-0.308,-0.4254,-0.5241,-0.5241,-0.6437,-0.7446,-0.7466,-0.9367,-1.1105,-1.2358,-1.4845,-1.6707,-1.7493,-1.7992,-1.8655,-1.9256,-1.9256,-1.9256,-1.9256,-1.9256,-1.9256,-1.9256,-1.9256,-1.9256,-1.9256,-1.9256,-1.9256,-0.2874,-0.2874,-0.2874,-0.2874,-0.2874,-0.2874,-0.2874,-0.2896,-0.2924,-0.2956,-0.2986,-0.3016,-0.3047,-0.4761,-0.609,-0.609,-0.609,-0.6283,-0.7046,-0.4764,-0.3052,0.0,0.0,-0.0,-0.0,-0.0,-0.0,-0.0,-0.0,-0.0,-0.0,-0.0,-0.0,-0.0,-0.0,-0.0,-0.0,-0.0,-0.0,-0.0,-0.0,-0.0,-0.0,-0.0,-0.0,-0.0,-0.0,-0.0,-0.0,-0.0,-0.0,-0.0,-0.0,-0.0,-0.0,-0.0,-0.0,-0.0,-0.0,-0.0,-0.0,-0.0,-0.0,-0.0,-0.0,-0.0,-0.0,-0.0,-0.0,-0.0,-0.0,-0.0,-0.0,-0.0,-0.0,-0.0196,-0.1374,-0.2357,-0.3142,-0.3142,-0.3142,-0.3142,-0.3142,-0.3142,-0.3142,-0.3142,-0.3142,-0.3142,-0.3142,-0.3142,-0.3155,-0.3185,-0.5169,-0.8134,-1.2289,-1.4793,-1.6474,-1.7665,-1.7665,-1.8267,-1.9256,-1.9256,-1.9256,-1.9256,-1.9256,-1.9256,-1.9256,-1.9256,-1.9256,-1.9256,-1.9256,-1.9256,-0.2874,-0.2874,-0.2874,-0.2874,-0.2874,-0.2874,-0.2874,-0.2912,-0.295,-0.296,-0.3002,-0.342,-0.495,-0.4573,-0.4952,-0.7795,-0.5903,-0.4573,-0.6283,-0.4573,0.0,0.0,0.0,-0.0,0.0,0.0,-0.0,-0.0,-0.0,-0.0,-0.0,-0.0,-0.0,-0.0,-0.0,-0.0,-0.0,-0.0,-0.0,-0.0,-0.0,-0.0,-0.0,-0.0,-0.0,-0.0,-0.0,-0.0,-0.0,-0.0,-0.0,-0.0,-0.0,-0.0,-0.0,-0.0,-0.0,-0.0,-0.0,-0.0,-0.0,-0.0,-0.0,-0.0,-0.0,-0.0,-0.0,-0.0,-0.0,-0.0,-0.0,-0.0,-0.0,-0.0,-0.0,-0.0,-0.0401,-0.1992,-0.3174,-0.3174,-0.3157,-0.3142,-0.3142,-0.3142,-0.3142,-0.3142,-0.316,-0.3174,-0.3174,-0.319,-0.3206,-0.3216,-0.522,-0.7018,-0.8218,-1.0636,-1.3057,-1.4862,-1.5652,-1.685,-1.8655,-1.9058,-1.9256,-1.9256,-1.9256,-1.9256,-1.9256,-1.9256,-1.9256,-1.9256,-1.9256,-1.9256,-0.2874,-0.2874,-0.2874,-0.2874,-0.2874,-0.2876,-0.2887,-0.2927,-0.2965,-0.2976,-0.3018,-0.3432,-0.4764,-0.4004,-0.4004,-0.647,-0.4764,-0.3623,-0.4761,0.0,0.0,0.0,0.0,0.0,0.0,-0.0,-0.0,-0.0,-0.0,-0.0,-0.0,-0.0,-0.0,-0.0,-0.0,-0.0,-0.0,-0.0,-0.0,-0.0,-0.0,-0.0,-0.0,-0.0,-0.0,-0.0,-0.0,-0.0,0.0,-0.0,-0.0,-0.0,-0.0,-0.0,-0.0,-0.0,-0.0,-0.0,-0.0,-0.0,-0.0,-0.0,-0.0,-0.0,-0.0,-0.0,-0.0,-0.0,-0.0,-0.0,-0.0,-0.0,-0.0,-0.0,-0.0,-0.0,-0.0,-0.1408,-0.2805,-0.3205,-0.3189,-0.3175,-0.3175,-0.3175,-0.3175,-0.3175,-0.3193,-0.3204,-0.3204,-0.3219,-0.323,-0.323,-0.4438,-0.5242,-0.5242,-0.8249,-1.0854,-1.2453,-1.3848,-1.5446,-1.7246,-1.8449,-1.9058,-1.9256,-1.9256,-1.9256,-1.9256,-1.9256,-1.9256,-1.9256,-1.9256,-1.9256,0.0,-0.2874,-0.2874,-0.2874,-0.2874,-0.2882,-0.2909,-0.2939,0.0,-0.3001,-0.3031,-0.3052,-0.3052,-0.3052,-0.3052,-0.3052,-0.3052,-0.3052,-0.3052,-0.3052,0.0,0.0,0.0,0.0,-0.0,-0.0,-0.0,-0.0,-0.0,-0.0,-0.0,-0.0,-0.0,-0.0,-0.0,-0.0,-0.0,-0.0,-0.0,-0.0,-0.0,-0.0,-0.0,-0.0,-0.0,-0.0,-0.0,-0.0,-0.0,-0.0,-0.0,-0.0,-0.0,-0.0,-0.0,-0.0,-0.0,-0.0,-0.0,-0.0,-0.0,-0.0,-0.0,-0.0,-0.0,-0.0,-0.0,-0.0,-0.0,-0.0,-0.0,-0.0,-0.0,-0.0,-0.0,-0.0,-0.0,-0.0808,-0.1818,-0.3032,-0.3232,-0.323,-0.323,-0.323,-0.323,-0.323,-0.323,-0.323,-0.323,-0.323,-0.323,-0.323,-0.323,-0.323,-0.323,-0.6849,-0.9456,-1.0049,-1.2053,-1.3854,-1.5042,-1.7048,-1.8655,-1.9256,-1.9256,-1.9256,-1.9256,-1.9256,-1.9256,-1.9256,-1.9256,-1.9256,-0.2874,0.0,-0.2874,-0.2874,-0.2874,-0.2882,0.0,-0.2939,-0.2971,0.0,0.0,-0.3052,-0.3052,-0.3052,-0.3052,-0.3052,-0.3052,-0.3052,-0.3052,0.0,0.0,0.0,0.0,-0.0,-0.0,-0.0,-0.0,-0.0,-0.0,-0.0,-0.0,-0.0,-0.0,-0.0,-0.0,-0.0,-0.0,-0.0,-0.0,-0.0,-0.0,-0.0,-0.0,-0.0,-0.0,-0.0,-0.0,-0.0,-0.0,-0.0,-0.0,-0.0,-0.0,-0.0,-0.0,-0.0,-0.0,-0.0,-0.0,-0.0,-0.0,-0.0,-0.0,-0.0,-0.0,-0.0,-0.0,-0.0,-0.0,-0.0,-0.0,-0.0,-0.0,-0.0,-0.0,-0.0,-0.0,-0.0808,-0.1818,-0.3032,-0.3232,-0.323,-0.323,-0.323,-0.323,-0.323,-0.323,-0.323,-0.323,-0.323,-0.323,-0.323,-0.323,-0.323,-0.323,-0.4236,-0.5443,-0.7248,-0.8249,-1.0253,-1.3854,-1.5248,-1.685,-1.8655,-1.9058,-1.9256,-1.9256,-1.9256,-1.9256,-1.9256,-1.9256,-1.9256,-0.2874,-0.2874,-0.2874,-0.2874,-0.2883,-0.2901,-0.293,-0.296,0.0,0.0,0.0,-0.3052,-0.3052,-0.3052,-0.3052,-0.3052,-0.3052,-0.3052,0.0,0.0,0.0,0.0,0.0,-0.0,0.0,-0.0,-0.0,-0.0,-0.0,-0.0,-0.0,-0.0,-0.0,-0.0,-0.0,-0.0,-0.0,-0.0,-0.0,-0.0,-0.0,-0.0,-0.0,-0.0,-0.0,-0.0,-0.0,-0.0,-0.0,-0.0,-0.0,-0.0,-0.0,-0.0,-0.0,-0.0,-0.0,-0.0,-0.0,-0.0,-0.0,-0.0,-0.0,-0.0,-0.0,-0.0,-0.0,-0.0,-0.0,-0.0,-0.0,-0.0,-0.0,-0.0,-0.0,-0.0,-0.0,-0.0404,-0.1414,-0.283,-0.3232,-0.3231,-0.3231,-0.323,-0.323,-0.323,-0.323,-0.323,-0.323,-0.323,-0.323,-0.323,-0.323,-0.323,-0.323,-0.323,-0.3633,-0.4839,-0.6045,-0.8052,-1.0654,-1.2846,-1.5645,-1.8869,-1.9058,-1.9256,-1.9256,-1.9256,-1.9256,-1.9256,-1.9256,-1.9256,-0.2874,-0.2874,-0.2874,-0.2874,-0.2896,-0.2924,-0.2954,-0.2984,0.0,0.0,0.0,0.0,0.0,-0.3052,0.0,-0.2862,-0.2862,-0.2862,-0.3052,0.0,0.0,0.0,-0.0,0.0,-0.0,-0.0,-0.0,-0.0,-0.0,-0.0,-0.0,-0.0,-0.0,-0.0,-0.0,-0.0,-0.0,-0.0,-0.0,-0.0,-0.0,-0.0,-0.0,-0.0,-0.0,-0.0,-0.0,-0.0,-0.0,-0.0,-0.0,-0.0,-0.0,-0.0,-0.0,-0.0,-0.0,-0.0,-0.0,-0.0,-0.0,-0.0,-0.0,-0.0,-0.0,-0.0,-0.0,-0.0,-0.0,-0.0,-0.0,-0.0,-0.0,-0.0,-0.0,-0.0,-0.0,-0.0,-0.0606,-0.2626,-0.3032,-0.3232,-0.3231,-0.323,-0.323,-0.323,-0.323,-0.323,-0.323,-0.323,-0.323,-0.323,-0.323,-0.323,-0.323,-0.323,-0.323,-0.323,-0.4839,-0.6045,-0.6643,-1.1054,-1.5267,-1.9297,-1.9289,-1.9281,-1.9264,-1.9272,-1.9264,-1.9256,-1.9256,-1.9256,-0.2874,-0.2874,-0.2874,-0.2874,-0.2896,-0.2924,-0.2954,-0.2984,-0.3016,0.0,0.0,0.0,0.0,-0.3052,-0.2862,0.0,0.0,-0.2098,0.0,0.0,0.0,-0.0,0.0,-0.0,-0.0,-0.0,-0.0,-0.0,-0.0,-0.0,-0.0,-0.0,-0.0,-0.0,-0.0,-0.0,-0.0,-0.0,-0.0,-0.0,-0.0,-0.0,-0.0,-0.0,-0.0,-0.0,-0.0,-0.0,-0.0,-0.0,-0.0,-0.0,-0.0,-0.0,-0.0,-0.0,-0.0,-0.0,-0.0,-0.0,-0.0,-0.0,-0.0,-0.0,-0.0,-0.0,-0.0,-0.0,-0.0,-0.0,-0.0,-0.0,-0.0,-0.0,-0.0,-0.0,-0.0,-0.0,-0.0404,-0.1616,-0.2626,-0.3232,-0.3231,-0.323,-0.323,-0.323,-0.323,-0.323,-0.323,-0.323,-0.323,-0.323,-0.323,-0.323,-0.323,-0.323,-0.323,-0.323,-0.3431,-0.3628,-0.382,-1.1473,-1.675,-1.9163,-1.9394,-1.937,-1.9281,-1.9313,-1.9305,-1.9256,-1.9256,-1.9256,-0.2874,-0.2874,-0.2878,-0.2893,-0.2919,-0.2945,-0.2958,-0.2998,-0.3036,0.0,0.0,0.0,0.0,0.0,0.0,0.0,0.0,-0.2098,-0.1526,-0.0573,-0.0,0.0,0.0,-0.0,-0.0,-0.0,-0.0,-0.0,-0.0,-0.0,-0.0,-0.0,-0.0,-0.0,-0.0,-0.0,-0.0,-0.0,-0.0,-0.0,-0.0,-0.0,-0.0,-0.0,-0.0,-0.0,-0.0,-0.0,-0.0,-0.0,-0.0,-0.0,-0.0,-0.0,-0.0,-0.0,-0.0,-0.0,-0.0,-0.0,-0.0,-0.0,-0.0,-0.0,-0.0,-0.0,-0.0,-0.0,-0.0,-0.0,-0.0,-0.0,-0.0,-0.0,-0.0,-0.0,-0.0,-0.0,-0.0404,-0.1414,-0.2424,-0.3232,-0.3231,-0.323,-0.323,-0.323,-0.323,-0.323,-0.323,-0.323,-0.323,-0.323,-0.323,-0.323,-0.323,-0.323,-0.323,-0.323,-0.323,-0.3227,-0.3219,-0.7038,-0.9644,-1.0622,-1.0631,-1.2432,-1.583,-1.8107,-1.9321,-1.9256,-1.9256,-1.9256,-0.2874,-0.2874,-0.2881,-0.2909,-0.2939,-0.2964,-0.2971,-0.3014,0.0,0.0,0.0,0.0,0.0,0.0,0.0,0.0,0.0,-0.2289,-0.0382,-0.0,-0.0,-0.0,-0.0,-0.0,-0.0,-0.0,-0.0,-0.0,-0.0,-0.0,-0.0,-0.0,-0.0,-0.0,-0.0,-0.0,-0.0,-0.0,-0.0,-0.0,-0.0,-0.0,-0.0,-0.0,-0.0,-0.0,-0.0,-0.0,-0.0,-0.0,-0.0,-0.0,-0.0,-0.0,-0.0,-0.0,-0.0,-0.0,-0.0,-0.0,-0.0,-0.0,-0.0,-0.0,-0.0,-0.0,-0.0,-0.0,-0.0,-0.0,-0.0,-0.0,-0.0,-0.0,-0.0,-0.0,-0.0,-0.0,-0.0404,-0.1414,-0.2424,-0.3232,-0.3231,-0.323,-0.323,-0.323,-0.323,-0.323,-0.323,-0.323,-0.323,-0.323,-0.323,-0.323,-0.323,-0.323,-0.323,-0.323,-0.323,-0.3228,-0.3223,-0.322,-0.3215,-0.3206,-0.3206,-0.5604,-1.06,-1.5671,-1.8519,-1.9281,-1.9264,-1.9256,-0.2874,-0.2874,-0.2881,-0.2909,-0.2939,-0.2969,-0.2996,-0.3029,0.0,-0.1907,0.0,0.0,0.0,0.0,0.0,0.0,-0.2479,-0.2289,-0.0382,0.0,-0.0,-0.0,-0.0,-0.0,-0.0,-0.0,-0.0,-0.0,-0.0,-0.0,-0.0,-0.0,-0.0,-0.0,-0.0,-0.0,-0.0,-0.0,-0.0,-0.0,-0.0,-0.0,-0.0,-0.0,-0.0,-0.0,-0.0,-0.0,-0.0,-0.0,-0.0,-0.0,-0.0,-0.0,-0.0,-0.0,-0.0,-0.0,-0.0,-0.0,-0.0,-0.0,-0.0,-0.0,-0.0,-0.0,-0.0,-0.0,-0.0,-0.0,-0.0,-0.0,-0.0,-0.0,-0.0,-0.0,-0.0,-0.0,-0.0404,-0.1414,-0.2424,-0.3232,-0.3231,-0.323,-0.323,-0.323,-0.323,-0.323,-0.323,-0.323,-0.323,-0.323,-0.323,-0.323,-0.323,-0.323,-0.323,-0.323,-0.323,-0.323,-0.323,-0.323,-0.3225,-0.3219,-0.3224,-0.342,-0.4002,-1.0835,-1.6103,-1.9354,-1.9289,-1.9256,-0.2874,-0.2874,-0.2885,-0.2932,-0.2953,0.0,0.0,-0.2461,-0.1907,-0.0763,-0.1907,0.0,0.0,0.0,0.0,-0.0763,-0.0954,-0.0954,-0.0191,-0.0,-0.0,-0.0,-0.0,-0.0,-0.0,-0.0,-0.0,-0.0,-0.0,-0.0,-0.0,-0.0,-0.0,-0.0,-0.0,-0.0,-0.0,-0.0,-0.0,-0.0,-0.0,-0.0,-0.0,-0.0,-0.0,-0.0,-0.0,-0.0,-0.0,-0.0,-0.0,-0.0,-0.0,-0.0,-0.0,-0.0,-0.0,-0.0,-0.0,-0.0,-0.0,-0.0,-0.0,-0.0,-0.0,-0.0,-0.0,-0.0,-0.0,-0.0,-0.0,-0.0,-0.0,-0.0,-0.0,-0.0,-0.0,-0.0,-0.0202,-0.0606,-0.202,-0.3234,-0.3232,-0.3231,-0.323,-0.323,-0.323,-0.323,-0.323,-0.323,-0.323,-0.323,-0.323,-0.323,-0.323,-0.323,-0.323,-0.323,-0.323,-0.323,-0.323,-0.323,-0.3228,-0.3227,-0.3228,-0.4031,-0.5623,-0.6829,-1.1449,-1.9163,-1.7062,-1.7239,-0.2874,-0.2881,-0.29,-0.258,-0.2784,-0.2984,-0.3014,-0.2277,-0.1144,-0.0191,-0.1144,0.0,0.0,0.0,0.0,0.0,-0.0382,-0.0,-0.0,-0.0,-0.0,-0.0,-0.0,-0.0,-0.0,-0.0,-0.0,-0.0,-0.0,-0.0,-0.0,-0.0,-0.0,-0.0,-0.0,-0.0,-0.0,-0.0,-0.0,-0.0,-0.0,-0.0,-0.0,-0.0,-0.0,-0.0,-0.0,-0.0,-0.0,-0.0,-0.0,-0.0,-0.0,-0.0,-0.0,-0.0,-0.0,-0.0,-0.0,-0.0,-0.0,-0.0,-0.0,-0.0,-0.0,-0.0,-0.0,-0.0,-0.0,-0.0,-0.0,-0.0,-0.0,-0.0,-0.0,-0.0,-0.0,-0.0,-0.0,-0.0,-0.1414,-0.283,-0.3234,-0.3231,-0.323,-0.323,-0.323,-0.323,-0.323,-0.323,-0.323,-0.323,-0.323,-0.323,-0.323,-0.323,-0.323,-0.323,-0.323,-0.323,-0.323,-0.323,-0.323,-0.323,-0.323,-0.4035,-0.5843,-0.503,-0.884,-1.6708,-1.5248,-1.6234,-0.2874,-0.2894,-0.2559,-0.1663,-0.2239,0.0,-0.3046,-0.2288,-0.1144,-0.0191,0.0,-0.0,-0.0,0.0,0.0,-0.2671,-0.1336,-0.0,-0.0,-0.0,-0.0,-0.0,-0.0,-0.0,-0.0,-0.0,-0.0,-0.0,-0.0,-0.0,-0.0,-0.0,-0.0,-0.0,-0.0,-0.0,-0.0,-0.0,-0.0,-0.0,-0.0,-0.0,-0.0,-0.0,-0.0,-0.0,-0.0,-0.0,-0.0,-0.0,-0.0,-0.0,-0.0,-0.0,-0.0,-0.0,-0.0,-0.0,-0.0,-0.0,-0.0,-0.0,-0.0,-0.0,-0.0,-0.0,-0.0,-0.0,-0.0,-0.0,-0.0,-0.0,-0.0,-0.0,-0.0,-0.0,-0.0,-0.0,-0.0,-0.0,-0.0808,-0.202,-0.3032,-0.3231,-0.323,-0.323,-0.323,-0.323,-0.323,-0.323,-0.323,-0.323,-0.323,-0.323,-0.323,-0.323,-0.323,-0.323,-0.323,-0.323,-0.323,-0.323,-0.323,-0.323,-0.323,-0.323,-0.323,-0.6444,-0.9047,-1.1244,-1.4446,-1.7246,-0.2874,-0.2353,0.0,0.0,0.0,0.0,0.0,-0.2862,0.0,0.0,-0.0,-0.0,-0.0,0.0,0.0,-0.0763,-0.0382,-0.0,-0.0,-0.0,-0.0,-0.0,-0.0,-0.0,-0.0,-0.0,-0.0,-0.0,-0.0,-0.0,-0.0,-0.0,-0.0,-0.0,-0.0,-0.0,-0.0,-0.0,-0.0,-0.0,-0.0,-0.0,-0.0,-0.0,-0.0,-0.0,-0.0,-0.0,-0.0,-0.0,-0.0,-0.0,-0.0,-0.0,-0.0,-0.0,-0.0,-0.0,-0.0,-0.0,-0.0,-0.0,-0.0,-0.0,-0.0,-0.0,-0.0,-0.0,-0.0,-0.0,-0.0,-0.0,-0.0,-0.0,-0.0,-0.0,-0.0,-0.0,-0.0,-0.0,-0.1414,-0.283,-0.3234,-0.3231,-0.323,-0.323,-0.323,-0.323,-0.323,-0.323,-0.323,-0.323,-0.323,-0.323,-0.323,-0.323,-0.323,-0.323,-0.323,-0.323,-0.323,-0.323,-0.323,-0.323,-0.323,-0.323,-0.323,-0.4438,-0.7248,-1.1249,-1.2647,-1.5446,-0.2874,0.0,0.0,0.0,0.0,0.0,0.0,0.0,0.0,0.0,0.0,-0.0,-0.0,-0.0,0.0,-0.0,-0.0,-0.0,-0.0,-0.0,-0.0,-0.0,-0.0,-0.0,-0.0,-0.0,-0.0,-0.0,-0.0,-0.0,-0.0,-0.0,-0.0,-0.0,-0.0,-0.0,-0.0,-0.0,-0.0,-0.0,-0.0,-0.0,-0.0,-0.0,-0.0,-0.0,-0.0,-0.0,-0.0,-0.0,-0.0,-0.0,-0.0,-0.0,-0.0,-0.0,-0.0,-0.0,-0.0,-0.0,-0.0,-0.0,-0.0,-0.0,-0.0,-0.0,-0.0,-0.0,-0.0,-0.0,-0.0,-0.0,-0.0,-0.0,-0.0,-0.0,-0.0,-0.0,-0.0202,-0.101,-0.202,-0.2628,-0.3032,-0.3231,-0.323,-0.323,-0.323,-0.323,-0.323,-0.323,-0.323,-0.323,-0.323,-0.323,-0.323,-0.323,-0.323,-0.323,-0.323,-0.323,-0.323,-0.323,-0.323,-0.323,-0.323,-0.323,-0.323,-0.4038,-0.6648,-1.0849,-1.1848,-1.4651,0.0,0.0,0.0,0.0,0.0,0.0,0.0,0.0,0.0,0.0,0.0,0.0191,0.0954,0.0573,-0.0,-0.0,-0.0,-0.0,-0.0,-0.0,-0.0,-0.0,-0.0,-0.0,-0.0,-0.0,-0.0,-0.0,-0.0,-0.0,-0.0,-0.0,-0.0,-0.0,-0.0,-0.0,-0.0,-0.0,-0.0,-0.0,-0.0,-0.0,-0.0,-0.0,-0.0,-0.0,-0.0,-0.0,-0.0,-0.0,-0.0,-0.0,-0.0,-0.0,-0.0,-0.0,-0.0,-0.0,-0.0,-0.0,-0.0,-0.0,-0.0,-0.0,-0.0,-0.0,-0.0,-0.0,-0.0,-0.0,-0.0,-0.0,-0.0,-0.0,-0.0,-0.0,-0.0,-0.0,-0.0606,-0.283,-0.2424,-0.202,-0.3032,-0.3231,-0.323,-0.323,-0.323,-0.323,-0.323,-0.323,-0.323,-0.323,-0.323,-0.323,-0.323,-0.323,-0.323,-0.323,-0.323,-0.323,-0.323,-0.323,-0.323,-0.323,-0.323,-0.323,-0.323,-0.424,-0.6651,-1.0449,-1.2053,-1.4856,0.0,0.0,0.0,0.0,0.0,0.0,0.0,0.0,0.0,0.0,0.0,0.1908,0.8405,0.4389,-0.0,-0.0,-0.0,-0.0,-0.0,-0.0,-0.0,-0.0,-0.0,-0.0,-0.0,-0.0,-0.0,-0.0,-0.0,-0.0,-0.0,-0.0,-0.0,-0.0,-0.0,-0.0,-0.0,-0.0,-0.0,-0.0,-0.0,-0.0,-0.0,-0.0,-0.0,-0.0,-0.0,-0.0,-0.0,-0.0,-0.0,-0.0,-0.0,-0.0,-0.0,-0.0,-0.0,-0.0,-0.0,-0.0,-0.0,-0.0,-0.0,-0.0,-0.0,-0.0,-0.0,-0.0,-0.0,-0.0,-0.0,-0.0,-0.0,-0.0,-0.0,-0.0,-0.0,-0.0,-0.0606,-0.283,-0.3032,-0.283,-0.3234,-0.3231,-0.323,-0.323,-0.323,-0.323,-0.323,-0.323,-0.323,-0.323,-0.323,-0.323,-0.323,-0.323,-0.323,-0.323,-0.323,-0.323,-0.323,-0.323,-0.323,-0.323,-0.323,-0.323,-0.323,-0.3836,-0.6246,-1.0449,-1.1254,-1.4054,0.0,0.0,0.0,0.0,0.0,0.0,0.0,0.0,0.0,0.0,0.0,0.3619,0.5908,0.6104,0.4577,0.0572,-0.0,-0.0,-0.0,-0.0,-0.0,-0.0,-0.0,-0.0,-0.0,-0.0,-0.0,-0.0,-0.0,-0.0,-0.0,-0.0,-0.0,-0.0,-0.0,-0.0,-0.0,-0.0,-0.0,-0.0,-0.0,-0.0,-0.0,-0.0,-0.0,-0.0,-0.0,-0.0,-0.0,-0.0,-0.0,-0.0,-0.0,-0.0,-0.0,-0.0,-0.0,-0.0,-0.0,-0.0,-0.0,-0.0,-0.0,-0.0,-0.0,-0.0,-0.0,-0.0,-0.0,-0.0,-0.0,-0.0,-0.0,-0.0,-0.0,-0.0,-0.0,-0.0404,-0.101,-0.2222,-0.283,-0.3234,-0.3232,-0.3231,-0.323,-0.323,-0.323,-0.323,-0.323,-0.323,-0.323,-0.323,-0.323,-0.323,-0.323,-0.323,-0.323,-0.323,-0.323,-0.323,-0.323,-0.323,-0.323,-0.323,-0.323,-0.323,-0.323,-0.3836,-0.6047,-1.0053,-1.0858,-1.3655,0.0,0.0,0.0,0.0,0.0,0.0,0.0,0.0,0.0,0.0,0.9539,0.6087,0.2664,0.6482,0.8405,0.3052,0.0954,-0.0,-0.0,-0.0,-0.0,-0.0,-0.0,-0.0,-0.0,-0.0,-0.0,-0.0,-0.0,-0.0,-0.0,-0.0,-0.0,-0.0,-0.0,-0.0,-0.0,-0.0,-0.0,-0.0,-0.0,-0.0,-0.0,-0.0,-0.0,-0.0,-0.0,-0.0,-0.0,-0.0,-0.0,-0.0,-0.0,-0.0,-0.0,-0.0,-0.0,-0.0,-0.0,-0.0,-0.0,-0.0,-0.0,-0.0,-0.0,-0.0,-0.0,-0.0,-0.0,-0.0,-0.0,-0.0,-0.0,-0.0,-0.0,-0.0,-0.0,-0.0808,-0.1616,-0.1616,-0.2424,-0.3232,-0.3231,-0.323,-0.323,-0.323,-0.323,-0.323,-0.323,-0.323,-0.323,-0.323,-0.323,-0.323,-0.323,-0.323,-0.323,-0.323,-0.323,-0.323,-0.323,-0.323,-0.323,-0.323,-0.323,-0.323,-0.323,-0.3635,-0.5846,-0.9661,-1.0658,-1.3062,0.0,0.0,0.0,0.0,0.0,0.0,0.0,0.0,0.0,0.0,1.1852,1.1282,1.0706,0.5725,0.3624,0.9543,0.4575,-0.0,-0.0,-0.0,-0.0,-0.0,-0.0,-0.0,-0.0,-0.0,-0.0,-0.0,-0.0,-0.0,-0.0,-0.0,-0.0,-0.0,-0.0,-0.0,-0.0,-0.0,-0.0,-0.0,-0.0,-0.0,-0.0,-0.0,-0.0,-0.0,-0.0,-0.0,-0.0,-0.0,-0.0,-0.0,-0.0,-0.0,-0.0,-0.0,-0.0,-0.0,-0.0,-0.0,-0.0,-0.0,-0.0,-0.0,-0.0,-0.0,-0.0,-0.0,-0.0,-0.0,-0.0,-0.0,-0.0,-0.0,-0.0,-0.0,-0.0,-0.0808,-0.1616,-0.1616,-0.2423,-0.3231,-0.323,-0.323,-0.323,-0.323,-0.323,-0.323,-0.323,-0.323,-0.323,-0.323,-0.323,-0.323,-0.323,-0.323,-0.323,-0.323,-0.323,-0.323,-0.323,-0.323,-0.323,-0.323,-0.323,-0.323,-0.323,-0.323,-0.5443,-0.9661,-0.9861,-1.2458,0.0,0.0,0.0,0.0,0.0,0.0,0.0,0.0,1.028,1.1852,1.0882,1.0298,1.1852,0.9353,0.7242,0.8569,0.7623,0.6096,0.3803,0.3424,0.2476,0.019,-0.0,-0.0,-0.0,-0.0,-0.0,-0.0,-0.0,-0.0,-0.0,-0.0,-0.0,-0.0,-0.0,-0.0,-0.0,-0.0,-0.0,-0.0,-0.0,-0.0,-0.0,-0.0,-0.0,-0.0,-0.0,-0.0,-0.0,-0.0,-0.0,-0.0,-0.0,-0.0,-0.0,-0.0,-0.0,-0.0,-0.0,-0.0,-0.0,-0.0,-0.0,-0.0,-0.0,-0.0,-0.0,-0.0,-0.0,-0.0,-0.0,-0.0,-0.0,-0.0,-0.0,-0.0,-0.0,-0.0808,-0.1818,-0.2424,-0.2827,-0.323,-0.323,-0.323,-0.323,-0.323,-0.323,-0.323,-0.323,-0.323,-0.323,-0.323,-0.323,-0.323,-0.323,-0.323,-0.323,-0.323,-0.323,-0.323,-0.323,-0.323,-0.323,-0.323,-0.323,-0.323,-0.323,-0.323,-0.5443,-0.9661,-0.9661,-1.2063,0.0,0.0,0.0,0.0,0.0,0.0,0.0,0.0,0.9711,0.0,0.972,0.8557,1.1636,1.2221,1.1257,0.8182,1.0294,1.1067,0.7992,0.7609,0.6467,0.3424,0.2092,0.115,0.0196,-0.0,-0.0,-0.0,-0.0,-0.0,-0.0,-0.0,-0.0,-0.0,-0.0,-0.0,-0.0,-0.0,-0.0,-0.0,-0.0,-0.0,-0.0,-0.0,-0.0,-0.0,-0.0,-0.0,-0.0,-0.0,-0.0,-0.0,-0.0,-0.0,-0.0,-0.0,-0.0,-0.0,-0.0,-0.0,-0.0,-0.0,-0.0,-0.0,-0.0,-0.0,-0.0,-0.0,-0.0,-0.0,-0.0,-0.0,-0.0,-0.0,-0.0,-0.0,-0.0,-0.0606,-0.1616,-0.3032,-0.3232,-0.3231,-0.323,-0.323,-0.323,-0.323,-0.323,-0.323,-0.323,-0.323,-0.323,-0.323,-0.323,-0.323,-0.323,-0.323,-0.323,-0.323,-0.323,-0.323,-0.323,-0.323,-0.323,-0.323,-0.323,-0.323,-0.323,-0.323,-0.5242,-0.8858,-0.946,-1.1664,-0.3041,-0.2287,0.0,0.0,0.0,0.0,0.0,0.0,1.2037,1.2248,0.896,0.7416,1.1431,1.2216,1.2221,1.201,1.2021,1.2221,1.182,1.1831,1.1842,1.1647,0.8185,0.4215,0.0391,-0.0,-0.0,-0.0,-0.0,-0.0,-0.0,-0.0,-0.0,-0.0,-0.0,-0.0,-0.0,-0.0,-0.0,-0.0,-0.0,-0.0,-0.0,-0.0,-0.0,-0.0,-0.0,-0.0,-0.0,-0.0,-0.0,-0.0,-0.0,-0.0,-0.0,-0.0,-0.0,-0.0,-0.0,-0.0,-0.0,-0.0,-0.0,-0.0,-0.0,-0.0,-0.0,-0.0,-0.0,-0.0,-0.0,-0.0,-0.0,-0.0,-0.0,-0.0,-0.0,-0.0,-0.0606,-0.283,-0.3234,-0.3232,-0.3231,-0.323,-0.323,-0.323,-0.323,-0.323,-0.323,-0.323,-0.323,-0.323,-0.323,-0.323,-0.323,-0.323,-0.323,-0.323,-0.323,-0.323,-0.323,-0.323,-0.323,-0.323,-0.323,-0.323,-0.323,-0.323,-0.4438,-0.6648,-0.8657,-1.0858,-0.305,0.0,0.0,0.0,0.0,0.6672,1.1287,1.0117,0.8952,1.1657,1.1052,1.046,1.2005,1.2205,1.2205,1.2183,1.2188,1.2188,1.2183,1.2188,1.2194,1.2205,1.0858,0.9403,0.8221,0.568,0.2961,0.0201,-0.0,-0.0,-0.0,-0.0,-0.0,-0.0,-0.0,-0.0,-0.0,-0.0,-0.0,-0.0,-0.0,-0.0,-0.0,-0.0,-0.0,-0.0,-0.0,-0.0,-0.0,-0.0,-0.0,-0.0,-0.0,-0.0,-0.0,-0.0,-0.0,-0.0,-0.0,-0.0,-0.0,-0.0,-0.0,-0.0,-0.0,-0.0,-0.0,-0.0,-0.0,-0.0,-0.0,-0.0,-0.0,-0.0,-0.0,-0.0,-0.0,-0.0,-0.0404,-0.1818,-0.283,-0.3232,-0.3231,-0.323,-0.323,-0.323,-0.323,-0.323,-0.323,-0.323,-0.323,-0.323,-0.323,-0.323,-0.323,-0.323,-0.323,-0.323,-0.323,-0.323,-0.323,-0.323,-0.323,-0.323,-0.323,-0.323,-0.323,-0.323,-0.4236,-0.6447,-0.8654,-1.0858,-0.3052,-0.1905,0.0,0.0,0.0,0.4383,0.7443,0.8196,0.8952,1.1647,1.2199,1.2178,1.2188,1.2188,1.2183,1.2172,1.2172,1.2172,1.2172,1.2172,1.2178,1.2188,1.2188,1.2275,1.2304,0.9984,0.7295,0.4608,0.161,-0.0,-0.0,-0.0,-0.0,-0.0,-0.0,-0.0,-0.0,-0.0,-0.0,-0.0,-0.0,-0.0,-0.0,-0.0,-0.0,-0.0,-0.0,-0.0,-0.0,-0.0,-0.0,-0.0,-0.0,-0.0,-0.0,-0.0,-0.0,-0.0,-0.0,-0.0,-0.0,-0.0,-0.0,-0.0,-0.0,-0.0,-0.0,-0.0,-0.0,-0.0,-0.0,-0.0,-0.0,-0.0,-0.0,-0.0,-0.0,-0.0,-0.0404,-0.1414,-0.2424,-0.3232,-0.3231,-0.323,-0.323,-0.323,-0.323,-0.323,-0.323,-0.323,-0.323,-0.323,-0.323,-0.323,-0.323,-0.323,-0.323,-0.323,-0.323,-0.323,-0.323,-0.323,-0.323,-0.323,-0.323,-0.323,-0.323,-0.323,-0.4236,-0.6447,-0.8654,-1.1263,0.0,0.0,0.0,-0.3052,-0.2288,-0.1335,-0.0191,0.6288,1.2031,1.2227,1.2199,1.2172,1.2172,1.2172,1.2172,1.2172,1.2172,1.2172,1.2172,1.2172,1.2172,1.2172,1.2172,1.2227,1.2171,1.2493,1.2623,1.2963,0.5215,0.0202,-0.0,-0.0,-0.0,-0.0,-0.0,-0.0,-0.0,-0.0,-0.0,-0.0,-0.0,-0.0,-0.0,-0.0,-0.0,-0.0,-0.0,-0.0,-0.0,-0.0,-0.0,-0.0,-0.0,-0.0,-0.0,-0.0,-0.0,-0.0,-0.0,-0.0,-0.0,-0.0,-0.0,-0.0,-0.0,-0.0,-0.0,-0.0,-0.0,-0.0,-0.0,-0.0,-0.0,-0.0,-0.0,-0.0,-0.0,-0.0,-0.0404,-0.1414,-0.2424,-0.3232,-0.3231,-0.323,-0.323,-0.323,-0.323,-0.323,-0.323,-0.323,-0.323,-0.323,-0.323,-0.323,-0.323,-0.323,-0.323,-0.323,-0.323,-0.323,-0.323,-0.323,-0.323,-0.323,-0.323,-0.323,-0.323,-0.323,-0.4236,-0.6447,-0.8657,-1.2063,-0.3052,0.0,0.0,0.0,0.0,0.0,0.2476,0.5142,0.7809,1.1441,1.2199,1.2188,1.2172,1.2172,1.2172,1.2172,1.2172,1.2172,1.2172,1.2172,1.2172,1.2172,1.2172,1.2221,1.2352,1.2471,1.2607,1.2963,1.0649,0.6657,0.0404,-0.0,-0.0,-0.0,-0.0,-0.0,-0.0,-0.0,-0.0,-0.0,-0.0,-0.0,-0.0,-0.0,-0.0,-0.0,-0.0,-0.0,-0.0,-0.0,-0.0,-0.0,-0.0,-0.0,-0.0,-0.0,-0.0,-0.0,-0.0,-0.0,-0.0,-0.0,-0.0,-0.0,-0.0,-0.0,-0.0,-0.0,-0.0,-0.0,-0.0,-0.0,-0.0,-0.0,-0.0,-0.0,-0.0,-0.0,-0.0,-0.0404,-0.202,-0.3234,-0.3232,-0.3231,-0.323,-0.323,-0.323,-0.323,-0.323,-0.323,-0.323,-0.323,-0.323,-0.323,-0.323,-0.323,-0.323,-0.323,-0.323,-0.323,-0.323,-0.323,-0.323,-0.323,-0.323,-0.323,-0.323,-0.323,-0.3431,-0.4236,-0.7851,-1.2063,-0.3052,-0.3052,-0.3052,-0.3052,0.0,0.0,0.2475,0.4567,0.6853,1.1242,1.2194,1.2183,1.2172,1.2172,1.2172,1.2172,1.2172,1.2172,1.2172,1.2172,1.2172,1.2172,1.2172,1.2199,1.227,1.2395,1.2526,1.2667,1.2808,0.9055,0.0404,-0.0,-0.0,-0.0,-0.0,-0.0,-0.0,-0.0,-0.0,-0.0,-0.0,-0.0,-0.0,-0.0,-0.0,-0.0,-0.0,-0.0,-0.0,-0.0,-0.0,-0.0,-0.0,-0.0,-0.0,-0.0,-0.0,-0.0,-0.0,-0.0,-0.0,-0.0,-0.0,-0.0,-0.0,-0.0,-0.0,-0.0,-0.0,-0.0,-0.0,-0.0,-0.0,-0.0,-0.0,-0.0,-0.0,-0.0,-0.0,-0.0,-0.1414,-0.2628,-0.3032,-0.3231,-0.323,-0.323,-0.323,-0.323,-0.323,-0.323,-0.323,-0.323,-0.323,-0.323,-0.323,-0.323,-0.323,-0.323,-0.323,-0.323,-0.323,-0.323,-0.323,-0.323,-0.323,-0.323,-0.323,-0.323,-0.4035,-0.6045,-0.9456,-1.2863,-0.3052,-0.3052,-0.3052,-0.3052,-0.3052,0.0,0.0762,0.3995,0.7419,1.0474,1.1037,1.1217,1.16,1.16,1.1789,1.2178,1.2178,1.2178,1.2172,1.2172,1.2178,1.2178,1.2178,1.2178,1.2178,1.2303,1.2428,1.2536,1.1916,0.8021,0.0404,-0.0,-0.0,-0.0,-0.0,-0.0,-0.0,-0.0,-0.0,-0.0,-0.0,-0.0,-0.0,-0.0,-0.0,-0.0,-0.0,-0.0,-0.0,-0.0,-0.0,-0.0,-0.0,-0.0,-0.0,-0.0,-0.0,-0.0,-0.0,-0.0,-0.0,-0.0,-0.0,-0.0,-0.0,-0.0,-0.0,-0.0,-0.0,-0.0,-0.0,-0.0,-0.0,-0.0,-0.0,-0.0,-0.0,-0.0,-0.0,-0.0,-0.0808,-0.1818,-0.3032,-0.3232,-0.3231,-0.323,-0.323,-0.323,-0.323,-0.323,-0.323,-0.323,-0.323,-0.323,-0.323,-0.323,-0.323,-0.323,-0.323,-0.323,-0.323,-0.323,-0.323,-0.323,-0.323,-0.323,-0.323,-0.323,-0.5443,-0.9661,-1.1659,-1.3866,-0.2479,-0.3052,-0.3052,-0.3052,-0.3052,0.0,-0.2287,0.0572,0.3239,0.3805,0.3993,0.4753,0.7606,0.8178,0.8944,1.1826,1.2216,1.221,1.2194,1.2194,1.2199,1.2216,1.2216,1.2216,1.2216,1.2138,1.2262,1.2194,0.6185,0.1815,-0.0,-0.0,-0.0,-0.0,-0.0,-0.0,-0.0,-0.0,-0.0,-0.0,-0.0,-0.0,-0.0,-0.0,-0.0,-0.0,-0.0,-0.0,-0.0,-0.0,-0.0,-0.0,-0.0,-0.0,-0.0,-0.0,-0.0,-0.0,-0.0,-0.0,-0.0,-0.0,-0.0,-0.0,-0.0,-0.0,-0.0,-0.0,-0.0,-0.0,-0.0,-0.0,-0.0,-0.0,-0.0,-0.0,-0.0,-0.0,-0.0,-0.0,-0.0202,-0.101,-0.283,-0.3234,-0.3232,-0.3231,-0.323,-0.323,-0.323,-0.323,-0.323,-0.323,-0.323,-0.323,-0.323,-0.323,-0.323,-0.323,-0.323,-0.323,-0.323,-0.323,-0.323,-0.323,-0.323,-0.323,-0.323,-0.323,-0.5443,-0.9661,-1.0062,-1.2463,-0.2478,-0.3052,-0.3052,-0.3052,-0.3052,0.0,0.0,0.019,0.1713,0.3043,0.3231,0.3993,0.6657,0.704,0.723,0.7612,0.8569,0.9146,0.9146,0.9138,0.9134,0.9142,0.9146,0.9146,0.9146,1.0935,1.0459,0.6474,0.6371,0.4624,0.0202,-0.0,-0.0,-0.0,-0.0,-0.0,-0.0,-0.0,-0.0,-0.0,-0.0,-0.0,-0.0,-0.0,-0.0,-0.0,-0.0,-0.0,-0.0,-0.0,-0.0,-0.0,-0.0,-0.0,-0.0,-0.0,-0.0,-0.0,-0.0,-0.0,-0.0,-0.0,-0.0,-0.0,-0.0,-0.0,-0.0,-0.0,-0.0,-0.0,-0.0,-0.0,-0.0,-0.0,-0.0,-0.0,-0.0,-0.0,-0.0,-0.0,-0.0,-0.0606,-0.2222,-0.283,-0.3232,-0.3231,-0.323,-0.323,-0.323,-0.323,-0.323,-0.323,-0.323,-0.323,-0.323,-0.323,-0.323,-0.323,-0.323,-0.323,-0.323,-0.323,-0.323,-0.323,-0.323,-0.323,-0.323,-0.323,-0.5443,-0.9661,-0.9661,-1.2063,-0.2287,-0.3052,-0.3052,-0.3052,-0.3052,-0.2479,0.0,0.0,0.0,0.2661,0.3041,0.3611,0.4945,0.5325,0.4567,0.2477,0.3426,0.4377,0.4583,0.4573,0.4755,0.4945,0.4945,0.4945,0.4945,0.7834,0.7134,0.0588,0.6541,0.7408,0.0404,-0.0,-0.0,-0.0,-0.0,-0.0,-0.0,-0.0,-0.0,-0.0,-0.0,-0.0,-0.0,-0.0,-0.0,-0.0,-0.0,-0.0,-0.0,-0.0,-0.0,-0.0,-0.0,-0.0,-0.0,-0.0,-0.0,-0.0,-0.0,-0.0,-0.0,-0.0,-0.0,-0.0,-0.0,-0.0,-0.0,-0.0,-0.0,-0.0,-0.0,-0.0,-0.0,-0.0,-0.0,-0.0,-0.0,-0.0,-0.0,-0.0,-0.0,-0.0404,-0.1414,-0.2424,-0.3232,-0.3231,-0.323,-0.323,-0.323,-0.323,-0.323,-0.323,-0.323,-0.323,-0.323,-0.323,-0.323,-0.323,-0.323,-0.323,-0.323,-0.323,-0.323,-0.323,-0.323,-0.323,-0.323,-0.323,-0.5443,-0.9661,-0.9661,-1.2063,-0.1715,-0.3052,-0.3052,-0.3052,-0.3052,-0.3052,-0.267,0.0,-0.267,-0.2287,0.0,-0.2097,-0.1906,0.0,0.0,-0.1157,-0.1534,-0.1721,-0.0772,-0.0575,-0.0381,0.0572,0.0763,0.0763,0.0763,0.1154,0.097,-0.0,0.099,0.1,-0.0,-0.0,-0.0,-0.0,-0.0,-0.0,-0.0,-0.0,-0.0,-0.0,-0.0,-0.0,-0.0,-0.0,-0.0,-0.0,-0.0,-0.0,-0.0,-0.0,-0.0,-0.0,-0.0,-0.0,-0.0,-0.0,-0.0,-0.0,-0.0,-0.0,-0.0,-0.0,-0.0,-0.0,-0.0,-0.0,-0.0,-0.0,-0.0,-0.0,-0.0,-0.0,-0.0,-0.0,-0.0,-0.0,-0.0,-0.0,-0.0,-0.0,-0.0,-0.0404,-0.1414,-0.2424,-0.3232,-0.3231,-0.323,-0.323,-0.323,-0.323,-0.323,-0.323,-0.323,-0.323,-0.323,-0.323,-0.323,-0.323,-0.323,-0.323,-0.323,-0.323,-0.323,-0.323,-0.323,-0.323,-0.323,-0.323,-0.5443,-0.9661,-0.9661,-1.2063,0.019,-0.0762,-0.1143,-0.267,-0.1905,-0.1143,-0.267,-0.3052,-0.3052,-0.3052,0.0,0.0,0.0,0.0,0.0,0.0,-0.2869,-0.2865,-0.2493,-0.2486,-0.2098,-0.0954,-0.0381,-0.0,-0.0,-0.0,-0.0,-0.0,-0.0,-0.0,-0.0,-0.0,-0.0,-0.0,-0.0,-0.0,-0.0,0.5051,0.7481,0.7481,0.4841,0.2418,-0.0,-0.0,-0.0,-0.0,-0.0,-0.0,-0.0,-0.0,-0.0,-0.0,-0.0,-0.0,-0.0,-0.0,-0.0,-0.0,-0.0,-0.0,-0.0,-0.0,-0.0,-0.0,-0.0,-0.0,-0.0,-0.0,-0.0,-0.0,-0.0,-0.0,-0.0,-0.0,-0.0,-0.0,-0.0,-0.0,-0.0,-0.0,-0.0,-0.0404,-0.1414,-0.2424,-0.3232,-0.3231,-0.323,-0.323,-0.323,-0.323,-0.323,-0.323,-0.323,-0.323,-0.323,-0.323,-0.323,-0.323,-0.323,-0.323,-0.323,-0.323,-0.323,-0.323,-0.323,-0.323,-0.323,-0.323,-0.5443,-0.9661,-0.9661,-1.1263,0.2471,0.1905,0.1146,-0.1339,-0.0573,0.0191,-0.2489,-0.3058,-0.3052,-0.3052,-0.3052,0.0,0.0,0.0,-0.3055,-0.3063,0.0,-0.3055,-0.3063,-0.3058,-0.2862,-0.2098,-0.0954,-0.0381,-0.0,-0.0,-0.0,-0.0,-0.0,-0.0,-0.0,-0.0,-0.0,-0.0,-0.0,-0.0,-0.0,0.8496,1.2982,1.2781,0.9689,0.6648,0.3426,0.1008,-0.0,-0.0,-0.0,-0.0,-0.0,-0.0,-0.0,-0.0,-0.0,-0.0,-0.0,-0.0,-0.0,-0.0,-0.0,-0.0,-0.0,-0.0,-0.0,-0.0,-0.0,-0.0,-0.0,-0.0,-0.0,-0.0,-0.0,-0.0,-0.0,-0.0,-0.0,-0.0,-0.0,-0.0,-0.0,-0.0,-0.0,-0.0404,-0.1414,-0.2424,-0.3232,-0.3231,-0.323,-0.323,-0.323,-0.323,-0.323,-0.323,-0.323,-0.323,-0.323,-0.323,-0.323,-0.323,-0.323,-0.323,-0.323,-0.323,-0.323,-0.323,-0.323,-0.323,-0.323,-0.323,-0.4839,-0.7854,-0.9059,-1.1063,0.5128,0.4592,0.3856,0.1158,0.0772,0.0193,-0.2515,-0.3073,-0.3052,-0.3052,-0.3052,-0.3052,-0.3052,-0.3052,-0.3062,-0.3092,-0.3071,0.0,0.0,-0.307,-0.3052,-0.3052,-0.2098,-0.1144,-0.0,-0.0,-0.0,-0.0,-0.0,-0.0,-0.0,-0.0,-0.0,-0.0,-0.0,-0.0,-0.0,0.8496,1.2982,1.2982,1.2754,1.2537,1.213,0.3828,-0.0,-0.0,-0.0,-0.0,-0.0,-0.0,-0.0,-0.0,-0.0,-0.0,-0.0,-0.0,-0.0,-0.0,-0.0,-0.0,-0.0,-0.0,-0.0,-0.0,-0.0,-0.0,-0.0,-0.0,-0.0,-0.0,-0.0,-0.0,-0.0,-0.0,-0.0,-0.0,-0.0,-0.0,-0.0,-0.0,-0.0,-0.0404,-0.1414,-0.2424,-0.3232,-0.3231,-0.323,-0.323,-0.323,-0.323,-0.323,-0.323,-0.323,-0.323,-0.323,-0.323,-0.323,-0.323,-0.323,-0.323,-0.323,-0.323,-0.323,-0.323,-0.323,-0.323,-0.323,-0.323,-0.323,-0.3431,-0.7653,-1.1864,0.7469,0.7115,0.6566,0.4083,0.4868,0.5451,0.2727,0.0774,-0.0385,-0.0385,-0.1915,-0.3052,-0.3052,-0.3052,-0.3055,-0.3066,-0.3059,-0.3055,0.0,-0.3059,-0.3052,-0.3052,-0.2862,-0.2479,-0.2098,-0.0763,-0.0,-0.0,-0.0,-0.0,-0.0,-0.0,-0.0,-0.0,0.564,0.8496,0.8496,1.1522,1.2939,1.2939,1.2917,1.2912,1.2722,0.9878,0.5436,-0.0,-0.0,-0.0,-0.0,-0.0,-0.0,-0.0,-0.0,-0.0,-0.0,-0.0,-0.0,-0.0,-0.0,-0.0,-0.0,-0.0,-0.0,-0.0,-0.0,-0.0,-0.0,-0.0,-0.0,-0.0,-0.0,-0.0,-0.0,-0.0,-0.0,-0.0,-0.0,-0.0,-0.0,-0.0,-0.0,-0.0202,-0.0404,-0.1414,-0.2424,-0.303,-0.3231,-0.323,-0.323,-0.323,-0.323,-0.323,-0.323,-0.323,-0.323,-0.323,-0.323,-0.323,-0.323,-0.323,-0.323,-0.323,-0.323,-0.323,-0.323,-0.323,-0.323,-0.323,-0.3833,-0.5443,-0.6849,-0.9055,0.9872,0.9911,0.9363,0.6869,0.7469,0.8061,0.5504,0.3513,0.2325,0.2317,0.096,-0.0382,-0.0381,-0.1143,-0.1715,-0.1715,-0.2479,-0.3052,0.0,-0.3052,-0.3052,-0.3052,-0.3052,-0.3052,-0.3052,-0.1907,-0.0763,-0.0,-0.0,-0.0,-0.0,-0.0,-0.0,-0.0,0.5429,0.9718,1.2781,1.2944,1.2922,1.2917,1.2895,1.2895,1.2906,1.2912,0.9874,0.443,0.141,-0.0,-0.0,-0.0,-0.0,-0.0,-0.0,-0.0,-0.0,-0.0,-0.0,-0.0,-0.0,-0.0,-0.0,-0.0,-0.0,-0.0,-0.0,-0.0,-0.0,-0.0,-0.0,-0.0,-0.0,-0.0,-0.0,-0.0,-0.0,-0.0,-0.0,-0.0,-0.0,-0.0,-0.0,-0.0,-0.0,-0.0808,-0.202,-0.3032,-0.3231,-0.323,-0.323,-0.323,-0.323,-0.323,-0.323,-0.323,-0.323,-0.323,-0.323,-0.323,-0.323,-0.323,-0.323,-0.323,-0.323,-0.323,-0.323,-0.323,-0.323,-0.323,-0.3833,-0.5242,-0.6849,-0.8252]},{"header":{"parameterUnit":"m.s-1","parameterCategory":1,"la1":30.6,"la2":29.2853,"lo1":-89.7004,"lo2":-87.6739,"dy":0.0162,"dx":0.0183,"nx":112,"ny":82,"refTime":"2024-04-06T12:00:00:Z","depth":0,"parameterNumber":3,"parameterNumberName":"V-component_of_WINDS"},"data":[0.0,0.0,0.0,0.0,0.0,0.0,0.0,0.0,0.0,0.0,0.0,0.0,0.0,0.0,0.0,0.0,0.0,0.0,0.0,0.0,0.0,0.0,0.0,0.0,0.0,0.0,0.0,0.0,0.0,0.0,0.0,0.0,0.0,0.0,0.0,0.0,0.0,0.0,0.0,0.0,0.0,0.0,0.0,0.0,0.0,0.0,0.0,0.0,0.0,0.0,0.0,0.0,0.0,0.0,0.0,0.0,0.0,0.0,0.0,0.0,0.0,0.0,0.0,0.0,0.0,0.0,0.0,0.0,0.0,0.0,0.0,0.0,0.0,0.0,0.0,0.0,0.0,0.0,0.0,0.0,0.0,0.0,0.0,0.0,0.0,0.0,0.0,0.0,0.0,0.0,-7.6008,-7.6179,-7.6925,-7.7592,-7.8072,-7.8146,-7.8035,-7.7657,0.0,0.0,0.0,0.0,0.0,0.0,0.0,0.0,0.0,0.0,0.0,0.0,0.0,0.0,0.0,0.0,0.0,0.0,0.0,0.0,0.0,0.0,0.0,0.0,0.0,0.0,0.0,0.0,0.0,0.0,0.0,0.0,0.0,0.0,0.0,0.0,0.0,0.0,0.0,0.0,0.0,0.0,0.0,0.0,0.0,0.0,0.0,0.0,0.0,0.0,0.0,0.0,0.0,0.0,0.0,0.0,0.0,0.0,0.0,0.0,0.0,0.0,0.0,0.0,0.0,0.0,0.0,0.0,0.0,0.0,0.0,0.0,0.0,0.0,0.0,0.0,0.0,0.0,0.0,0.0,0.0,0.0,0.0,0.0,0.0,0.0,0.0,0.0,0.0,0.0,0.0,0.0,0.0,0.0,0.0,0.0,0.0,0.0,0.0,0.0,0.0,0.0,0.0,0.0,-7.6675,-7.77,-7.8288,-7.8484,-7.8146,-7.8928,-7.894,-7.7715,0.0,0.0,0.0,0.0,0.0,0.0,0.0,0.0,0.0,0.0,0.0,0.0,0.0,0.0,0.0,0.0,0.0,0.0,0.0,0.0,0.0,0.0,0.0,0.0,0.0,0.0,0.0,0.0,0.0,0.0,0.0,0.0,0.0,0.0,0.0,0.0,0.0,0.0,0.0,0.0,0.0,0.0,0.0,0.0,0.0,0.0,0.0,0.0,0.0,0.0,0.0,0.0,0.0,0.0,0.0,0.0,0.0,0.0,0.0,0.0,0.0,0.0,0.0,0.0,0.0,0.0,0.0,0.0,0.0,0.0,0.0,0.0,0.0,0.0,0.0,0.0,0.0,0.0,0.0,0.0,0.0,0.0,0.0,0.0,0.0,0.0,0.0,0.0,0.0,0.0,0.0,0.0,0.0,0.0,0.0,0.0,0.0,0.0,0.0,0.0,0.0,0.0,0.0,-7.6594,-7.7008,-7.7614,-7.8146,-7.8484,-7.8536,-7.9265,-7.9416,-7.8758,-7.8648,0.0,0.0,0.0,0.0,0.0,0.0,0.0,0.0,0.0,0.0,0.0,0.0,0.0,0.0,0.0,0.0,0.0,0.0,0.0,0.0,0.0,0.0,0.0,0.0,0.0,0.0,0.0,0.0,0.0,0.0,0.0,0.0,0.0,0.0,0.0,0.0,0.0,0.0,0.0,0.0,0.0,0.0,0.0,0.0,0.0,0.0,0.0,0.0,0.0,0.0,0.0,0.0,0.0,0.0,0.0,0.0,0.0,0.0,0.0,0.0,0.0,0.0,0.0,0.0,0.0,0.0,0.0,0.0,0.0,0.0,0.0,0.0,0.0,0.0,0.0,0.0,0.0,0.0,0.0,0.0,0.0,0.0,0.0,0.0,0.0,0.0,0.0,0.0,0.0,0.0,0.0,0.0,0.0,0.0,0.0,0.0,0.0,0.0,0.0,0.0,0.0,0.0,-7.7304,-7.7365,-7.745,-7.8072,-7.8588,-7.8891,-7.9494,-7.9789,-7.9605,-7.9589,0.0,0.0,0.0,0.0,0.0,0.0,0.0,0.0,0.0,0.0,0.0,0.0,0.0,0.0,0.0,0.0,0.0,0.0,0.0,0.0,0.0,0.0,0.0,0.0,0.0,0.0,0.0,0.0,0.0,0.0,0.0,0.0,0.0,0.0,0.0,0.0,0.0,0.0,0.0,0.0,0.0,0.0,0.0,0.0,0.0,0.0,0.0,0.0,0.0,0.0,0.0,0.0,0.0,0.0,0.0,0.0,0.0,0.0,0.0,0.0,0.0,0.0,0.0,0.0,0.0,0.0,0.0,0.0,0.0,0.0,0.0,0.0,0.0,0.0,0.0,0.0,0.0,0.0,0.0,0.0,0.0,0.0,0.0,0.0,0.0,0.0,0.0,0.0,0.0,0.0,0.0,0.0,0.0,0.0,0.0,0.0,0.0,0.0,0.0,0.0,0.0,0.0,-7.796,-7.8072,-7.8072,-7.894,-7.9403,-7.894,-7.9836,-8.0178,-7.9658,-7.9589,0.0,0.0,0.0,0.0,0.0,0.0,0.0,0.0,0.0,0.0,0.0,0.0,0.0,0.0,0.0,0.0,0.0,0.0,0.0,0.0,0.0,0.0,0.0,0.0,0.0,0.0,0.0,0.0,0.0,0.0,0.0,0.0,0.0,0.0,0.0,0.0,0.0,0.0,0.0,0.0,0.0,0.0,0.0,0.0,0.0,0.0,0.0,0.0,0.0,0.0,0.0,0.0,0.0,0.0,0.0,0.0,0.0,0.0,0.0,0.0,0.0,0.0,0.0,0.0,0.0,0.0,0.0,0.0,0.0,0.0,0.0,0.0,0.0,0.0,0.0,0.0,0.0,0.0,0.0,0.0,0.0,0.0,0.0,0.0,0.0,0.0,0.0,0.0,0.0,0.0,0.0,0.0,0.0,0.0,0.0,0.0,0.0,0.0,0.0,0.0,0.0,0.0,-7.8255,-7.8521,-7.8588,-7.9265,-7.981,-8.0205,-8.0918,-8.1246,-8.1153,0.0,0.0,0.0,0.0,0.0,0.0,0.0,0.0,0.0,0.0,0.0,0.0,0.0,0.0,0.0,0.0,0.0,0.0,0.0,0.0,0.0,0.0,0.0,0.0,0.0,0.0,0.0,0.0,0.0,0.0,0.0,0.0,0.0,0.0,0.0,0.0,0.0,0.0,0.0,0.0,0.0,0.0,0.0,0.0,0.0,0.0,0.0,0.0,0.0,0.0,0.0,0.0,0.0,0.0,0.0,0.0,0.0,0.0,0.0,0.0,0.0,0.0,0.0,0.0,0.0,0.0,0.0,0.0,0.0,0.0,0.0,0.0,0.0,0.0,0.0,0.0,0.0,0.0,0.0,0.0,0.0,0.0,0.0,0.0,0.0,0.0,0.0,0.0,0.0,0.0,0.0,0.0,0.0,0.0,0.0,0.0,0.0,0.0,0.0,0.0,0.0,0.0,-7.9056,-7.9477,-7.9827,-7.9924,-8.0422,-8.0942,-8.1344,-8.1875,-8.2243,-8.2444,0.0,0.0,0.0,0.0,0.0,0.0,0.0,0.0,0.0,0.0,0.0,0.0,0.0,0.0,0.0,0.0,0.0,0.0,0.0,0.0,0.0,0.0,0.0,0.0,0.0,0.0,0.0,0.0,0.0,0.0,0.0,0.0,0.0,0.0,0.0,0.0,0.0,0.0,0.0,0.0,0.0,0.0,0.0,0.0,0.0,0.0,0.0,0.0,0.0,0.0,0.0,0.0,0.0,0.0,0.0,0.0,0.0,0.0,0.0,0.0,0.0,0.0,0.0,0.0,0.0,0.0,0.0,0.0,0.0,0.0,0.0,0.0,0.0,0.0,0.0,0.0,0.0,0.0,0.0,0.0,0.0,0.0,0.0,0.0,0.0,0.0,0.0,0.0,0.0,0.0,0.0,0.0,0.0,0.0,0.0,0.0,0.0,0.0,0.0,0.0,0.0,0.0,-8.1356,-8.1859,-8.2216,-8.2216,-8.2675,-8.2794,-8.2298,-8.2713,-8.3056,0.0,0.0,0.0,0.0,0.0,0.0,0.0,0.0,0.0,0.0,0.0,0.0,0.0,0.0,0.0,0.0,0.0,0.0,0.0,0.0,0.0,0.0,0.0,0.0,0.0,0.0,0.0,0.0,0.0,0.0,0.0,0.0,0.0,0.0,0.0,0.0,0.0,0.0,0.0,0.0,0.0,0.0,0.0,0.0,0.0,0.0,0.0,0.0,0.0,0.0,0.0,0.0,0.0,0.0,0.0,0.0,0.0,0.0,0.0,0.0,0.0,0.0,0.0,0.0,0.0,0.0,0.0,0.0,0.0,0.0,0.0,0.0,0.0,0.0,0.0,0.0,0.0,0.0,0.0,0.0,0.0,0.0,0.0,0.0,0.0,0.0,0.0,0.0,0.0,0.0,0.0,0.0,0.0,0.0,0.0,0.0,0.0,0.0,0.0,0.0,0.0,0.0,0.0,-8.1444,-8.2172,-8.2794,-8.2794,-8.2912,-8.318,-8.3633,-8.3828,-8.3933,-8.4041,0.0,0.0,0.0,0.0,0.0,0.0,0.0,0.0,0.0,0.0,0.0,0.0,0.0,0.0,0.0,0.0,0.0,0.0,0.0,0.0,0.0,0.0,0.0,0.0,0.0,0.0,0.0,0.0,0.0,0.0,0.0,0.0,0.0,0.0,0.0,0.0,0.0,0.0,0.0,0.0,0.0,0.0,0.0,0.0,0.0,0.0,0.0,0.0,0.0,0.0,0.0,0.0,0.0,0.0,0.0,0.0,0.0,0.0,0.0,0.0,0.0,0.0,0.0,0.0,0.0,0.0,0.0,0.0,0.0,0.0,0.0,0.0,0.0,0.0,0.0,0.0,0.0,0.0,0.0,0.0,0.0,0.0,0.0,0.0,0.0,0.0,0.0,0.0,0.0,0.0,0.0,0.0,0.0,0.0,0.0,0.0,0.0,0.0,0.0,0.0,0.0,0.0,-8.281,-8.3497,-8.3983,-8.3983,-8.3983,-8.4212,-8.4747,-8.4785,-8.4818,-8.4861,0.0,0.0,0.0,0.0,0.0,0.0,0.0,0.0,0.0,0.0,0.0,0.0,0.0,0.0,0.0,0.0,0.0,0.0,0.0,0.0,0.0,0.0,0.0,0.0,0.0,0.0,0.0,0.0,0.0,0.0,0.0,0.0,0.0,0.0,0.0,0.0,0.0,0.0,0.0,0.0,0.0,0.0,0.0,0.0,0.0,0.0,0.0,0.0,0.0,0.0,0.0,0.0,0.0,0.0,0.0,0.0,0.0,0.0,0.0,0.0,0.0,0.0,0.0,0.0,0.0,0.0,0.0,0.0,0.0,0.0,0.0,0.0,0.0,0.0,0.0,0.0,0.0,0.0,0.0,0.0,0.0,0.0,0.0,0.0,0.0,0.0,0.0,0.0,0.0,0.0,0.0,0.0,0.0,0.0,0.0,0.0,0.0,0.0,0.0,0.0,0.0,0.0,-8.4711,-8.519,-8.5511,-8.5511,-8.5511,-8.5511,-8.5511,-8.5511,-8.5511,-8.5511,0.0,0.0,0.0,0.0,0.0,0.0,0.0,0.0,0.0,0.0,0.0,0.0,0.0,0.0,0.0,0.0,0.0,0.0,0.0,0.0,0.0,0.0,0.0,0.0,0.0,0.0,0.0,0.0,0.0,0.0,0.0,0.0,0.0,0.0,0.0,0.0,0.0,0.0,0.0,0.0,0.0,0.0,0.0,0.0,0.0,0.0,0.0,0.0,0.0,0.0,0.0,0.0,0.0,0.0,0.0,0.0,0.0,0.0,0.0,0.0,-7.8304,-7.8566,0.0,0.0,0.0,0.0,0.0,0.0,0.0,0.0,0.0,0.0,0.0,0.0,0.0,0.0,0.0,0.0,0.0,0.0,0.0,0.0,0.0,0.0,0.0,0.0,0.0,0.0,0.0,0.0,0.0,0.0,0.0,0.0,0.0,0.0,0.0,0.0,0.0,0.0,0.0,0.0,-8.4711,-8.5232,-8.559,-8.5511,-8.5511,-8.5511,-8.5511,-8.5511,-8.5511,-8.5511,-8.5471,0.0,0.0,0.0,0.0,0.0,0.0,0.0,0.0,0.0,0.0,0.0,0.0,0.0,0.0,0.0,0.0,0.0,0.0,0.0,0.0,0.0,0.0,0.0,0.0,0.0,0.0,0.0,0.0,0.0,0.0,0.0,0.0,0.0,0.0,0.0,0.0,0.0,0.0,0.0,0.0,0.0,0.0,0.0,0.0,0.0,0.0,0.0,0.0,0.0,0.0,0.0,0.0,0.0,0.0,0.0,0.0,0.0,0.0,0.0,-7.778,-7.8073,0.0,0.0,0.0,0.0,0.0,0.0,0.0,0.0,0.0,0.0,0.0,0.0,0.0,0.0,0.0,0.0,0.0,0.0,0.0,0.0,0.0,0.0,0.0,0.0,0.0,0.0,0.0,0.0,0.0,0.0,0.0,0.0,0.0,0.0,0.0,0.0,0.0,0.0,0.0,0.0,-8.519,-8.5473,-8.5667,-8.559,-8.5551,-8.5511,-8.5511,-8.5511,-8.5511,-8.5511,-8.5511,0.0,0.0,0.0,0.0,0.0,0.0,0.0,0.0,0.0,0.0,0.0,0.0,0.0,0.0,0.0,0.0,0.0,0.0,0.0,0.0,0.0,0.0,0.0,0.0,0.0,0.0,0.0,0.0,0.0,0.0,0.0,0.0,0.0,0.0,0.0,0.0,0.0,0.0,0.0,0.0,0.0,0.0,0.0,0.0,0.0,0.0,0.0,0.0,0.0,0.0,0.0,0.0,0.0,-7.9709,-7.8926,-7.7614,-7.7575,-7.7241,-7.6673,-7.7473,-7.7743,-7.7537,-7.6673,0.0,0.0,0.0,0.0,0.0,0.0,0.0,0.0,0.0,0.0,0.0,0.0,0.0,0.0,0.0,0.0,0.0,0.0,0.0,0.0,0.0,0.0,-8.5286,-8.594,-8.6094,-8.606,-8.5887,0.0,0.0,0.0,0.0,0.0,0.0,0.0,0.0,0.0,0.0,0.0,-8.5743,-8.5743,-8.5743,-8.5743,-8.5628,-8.5551,-8.5551,-8.5551,-8.5511,-8.5511,-8.5511,-8.5471,0.0,0.0,0.0,0.0,0.0,0.0,0.0,0.0,0.0,0.0,0.0,0.0,0.0,0.0,0.0,0.0,0.0,0.0,0.0,0.0,0.0,0.0,0.0,0.0,0.0,0.0,0.0,0.0,0.0,0.0,0.0,0.0,-7.254,-7.3335,0.0,0.0,0.0,0.0,0.0,0.0,0.0,0.0,0.0,0.0,0.0,0.0,0.0,-8.0237,-8.0353,-8.042,-8.0067,-7.9268,-7.8657,-7.8205,-7.8012,-7.8022,-7.7945,-7.793,-7.8781,0.0,-7.7576,-7.7434,0.0,0.0,0.0,0.0,0.0,0.0,0.0,0.0,0.0,0.0,0.0,0.0,0.0,0.0,0.0,0.0,0.0,0.0,0.0,0.0,0.0,0.0,-8.5978,-8.6055,-8.6094,-8.6094,-8.606,-8.5958,-8.5852,-8.5704,-8.559,-8.5552,0.0,0.0,0.0,0.0,0.0,0.0,-8.5779,-8.5887,-8.5926,-8.5815,-8.5779,-8.5742,-8.5705,-8.5667,-8.5628,-8.5511,-8.5511,-8.5511,-8.5471,-8.5469,0.0,0.0,0.0,0.0,0.0,0.0,0.0,0.0,0.0,0.0,0.0,0.0,0.0,0.0,0.0,0.0,0.0,0.0,0.0,0.0,0.0,0.0,0.0,0.0,0.0,0.0,0.0,0.0,0.0,-7.2484,-7.3506,-7.4358,-7.485,-7.5233,0.0,0.0,0.0,0.0,0.0,0.0,0.0,0.0,0.0,-8.1243,-8.0826,-8.0572,-8.0602,-8.0173,-7.971,-7.9311,-7.8979,-7.882,-7.882,-7.8837,-7.8837,-7.8876,-7.9748,-8.0081,-7.9929,-7.8967,-7.8683,-7.8914,0.0,0.0,0.0,0.0,-8.082,-8.0897,-8.1321,-8.1745,-8.2023,-8.1993,0.0,0.0,0.0,0.0,0.0,0.0,0.0,-8.567,-8.6017,-8.6094,-8.6094,-8.6094,-8.6094,-8.6094,-8.6094,-8.606,-8.6065,-8.5923,-8.5887,-8.5887,-8.5815,-8.5779,0.0,0.0,0.0,-8.5887,-8.5887,-8.5961,-8.5996,-8.5887,-8.5815,-8.5704,-8.5705,-8.5628,-8.5551,-8.5511,-8.5511,-8.5511,-8.5511,-8.5471,-8.5148,0.0,0.0,0.0,0.0,0.0,0.0,0.0,0.0,0.0,0.0,0.0,0.0,0.0,0.0,0.0,0.0,0.0,0.0,0.0,0.0,0.0,0.0,0.0,0.0,0.0,0.0,0.0,0.0,-7.4254,-7.5139,-7.603,-7.669,-7.7285,0.0,0.0,0.0,0.0,0.0,0.0,-8.0761,-8.0802,-8.1095,-8.1738,-8.1136,-8.0692,-8.0508,-7.9883,-7.9519,-7.95,-7.95,-7.9578,-7.9821,-8.0055,-8.0261,-8.0518,-8.1388,-8.2128,-8.2545,-8.096,-8.0355,-8.0506,-8.1002,-8.1126,-8.1203,-8.2449,-8.2912,-8.2989,-8.3568,-8.3799,-8.3799,-8.374,-8.3864,-8.4065,-8.4202,0.0,0.0,0.0,0.0,-8.6094,-8.6094,-8.6094,-8.6094,-8.6094,-8.6094,-8.6094,-8.6094,-8.6094,-8.606,-8.6065,-8.6031,-8.5958,-8.5887,-8.5852,0.0,-8.5887,-8.5923,-8.5996,-8.6031,-8.6031,-8.6031,-8.6031,-8.5887,-8.5779,-8.5704,-8.5628,-8.5551,-8.5511,-8.5511,-8.5511,-8.5511,-8.5511,-8.5232,-8.4681,0.0,0.0,0.0,0.0,0.0,0.0,0.0,0.0,0.0,0.0,0.0,0.0,0.0,0.0,0.0,0.0,0.0,0.0,0.0,0.0,0.0,0.0,0.0,0.0,0.0,0.0,0.0,0.0,0.0,-7.9079,-7.9208,0.0,0.0,0.0,0.0,-8.0329,-8.1104,-8.1658,-8.1916,-8.1924,-8.1635,-8.1051,-8.1014,-8.0584,-7.9765,-7.9726,-7.9687,-7.9687,-7.9687,-8.0116,-8.0937,-8.1796,-8.2628,-8.3454,-8.4323,-8.4713,-8.4674,-8.348,-8.3429,-8.4129,-8.4017,-8.3927,-8.3768,-8.3751,-8.3722,-8.3722,-8.376,-8.3799,-8.3799,-8.3799,-8.4319,-8.5067,-8.578,-8.6017,0.0,0.0,-8.6094,-8.6094,-8.6094,-8.6094,-8.6094,-8.6094,-8.6094,-8.6094,-8.6094,-8.6094,-8.6094,-8.6094,-8.6094,-8.6094,-8.6094,0.0,-8.6031,-8.606,-8.6065,-8.6031,-8.606,-8.6094,-8.6094,-8.6094,-8.606,-8.5992,-8.5815,-8.5815,-8.5704,-8.5511,-8.5511,-8.5511,-8.5511,-8.5511,-8.5511,-8.5471,-8.5391,0.0,0.0,0.0,0.0,0.0,0.0,0.0,0.0,0.0,0.0,0.0,0.0,0.0,0.0,0.0,0.0,0.0,0.0,0.0,0.0,0.0,0.0,0.0,0.0,0.0,0.0,0.0,0.0,-7.9952,-8.0182,0.0,-8.0844,-8.1226,-8.142,-8.1446,-8.1817,-8.2112,-8.2208,-8.1647,-8.1505,-8.1812,-8.0739,-8.0273,-8.0547,-8.0547,-8.082,-8.1367,-8.1953,-8.2656,-8.3515,-8.3828,-8.4137,-8.4511,-8.537,-8.5722,-8.5761,-8.5917,-8.5405,-8.4575,-8.4441,-8.4316,-8.4236,-8.4623,-8.475,-8.4828,-8.5407,-8.5601,-8.5601,-8.5545,-8.5651,-8.5837,-8.6076,-8.6126,-8.6094,-8.6094,-8.6094,-8.6094,-8.6094,-8.6094,-8.6094,-8.6094,-8.6094,-8.6094,-8.6094,-8.6094,-8.6094,-8.6094,-8.6094,-8.6094,-8.6094,-8.606,-8.606,-8.6094,-8.606,-8.606,-8.6094,-8.6094,-8.6094,-8.6094,-8.5992,-8.5887,-8.5815,-8.5704,-8.559,-8.5511,-8.5511,-8.5511,-8.5511,-8.5511,-8.5511,-8.5511,-8.5471,-8.527,0.0,0.0,0.0,0.0,0.0,0.0,0.0,0.0,0.0,0.0,0.0,0.0,0.0,0.0,0.0,0.0,0.0,0.0,0.0,0.0,0.0,0.0,0.0,0.0,0.0,0.0,-8.0429,-8.0893,-8.1104,-8.1415,-8.1865,-8.2039,-8.2089,-8.2114,-8.2218,-8.2289,-8.23,-8.1742,-8.1578,-8.1851,-8.1012,-8.0859,-8.1445,-8.1719,-8.2304,-8.3164,-8.375,-8.4492,-8.5351,-8.5351,-8.5508,-8.582,-8.6406,-8.664,-8.6679,-8.7265,-8.6758,-8.5624,-8.5429,-8.5272,-8.5256,-8.5604,-8.5759,-8.5836,-8.6416,-8.661,-8.6583,-8.6528,-8.6375,-8.6254,-8.6184,-8.6159,-8.6094,-8.6094,-8.6094,-8.6094,-8.6094,-8.6094,-8.6094,-8.6094,-8.6094,-8.6094,-8.6094,-8.6094,-8.6094,-8.6094,-8.6094,-8.6094,-8.6094,-8.6094,-8.6094,-8.6094,-8.6094,-8.6094,-8.6094,-8.6094,-8.6094,-8.6094,-8.5958,-8.5852,-8.5815,-8.5667,-8.5551,-8.5511,-8.5511,-8.5511,-8.5511,-8.5511,-8.5511,-8.5511,-8.5511,-8.5431,-8.5262,0.0,0.0,0.0,0.0,0.0,0.0,0.0,0.0,0.0,0.0,0.0,0.0,0.0,0.0,0.0,0.0,0.0,0.0,0.0,0.0,0.0,0.0,0.0,-8.1543,-8.1797,-8.2013,-8.2012,-8.2182,-8.2293,-8.2293,-8.232,-8.2285,-8.2299,-8.2293,-8.2281,-8.2304,-8.2265,-8.1914,-8.1094,-8.1875,-8.2344,-8.2383,-8.3242,-8.4101,-8.4922,-8.4961,-8.5429,-8.625,-8.625,-8.6719,-8.75,-8.75,-8.75,-8.75,-8.75,-8.75,-8.746,-8.7146,-8.6982,-8.6958,-8.6687,-8.661,-8.661,-8.661,-8.661,-8.6583,-8.6528,-8.6443,-8.6384,-8.6254,-8.6159,-8.6094,-8.6094,-8.6094,-8.6094,-8.6094,-8.6094,-8.6094,-8.6094,-8.6094,-8.6094,-8.6094,-8.6094,-8.6094,-8.6094,-8.6094,-8.6094,-8.6094,-8.6094,-8.6094,-8.6094,-8.6094,0.0,-8.6094,-8.6094,-8.6094,-8.6094,-8.6065,-8.5961,-8.5815,-8.5742,-8.5628,-8.5511,-8.5511,-8.5511,-8.5511,-8.5511,-8.5511,-8.5511,-8.5511,-8.5471,-8.5388,0.0,0.0,0.0,0.0,0.0,0.0,0.0,0.0,0.0,0.0,0.0,0.0,0.0,0.0,0.0,0.0,0.0,0.0,0.0,0.0,0.0,-8.1827,-8.1922,-8.1881,-8.2073,-8.2218,-8.221,-8.2273,-8.2293,-8.2293,-8.2299,-8.232,-8.23,-8.2301,-8.2303,-8.2304,-8.1719,-8.1836,-8.2851,-8.25,-8.289,-8.4179,-8.5039,-8.5625,-8.5859,-8.6484,-8.6914,-8.7148,-8.7148,-8.7265,-8.75,-8.75,-8.75,-8.75,-8.75,-8.75,-8.7496,-8.7228,-8.7086,-8.6958,-8.6803,-8.6687,-8.661,-8.661,-8.661,-8.661,-8.6583,-8.6528,-8.6472,-8.6443,-8.6315,-8.6153,-8.6153,-8.6126,-8.6094,-8.6094,-8.6094,-8.6094,-8.6094,-8.6094,-8.6094,-8.6094,-8.6094,-8.6094,-8.6094,-8.6094,-8.6094,-8.6094,-8.6094,-8.6094,-8.6094,-8.6094,-8.6094,-8.6094,-8.6094,-8.606,-8.6031,-8.5923,-8.5815,-8.5704,-8.5628,-8.5551,-8.5511,-8.5511,-8.5511,-8.5511,-8.5511,-8.5511,-8.5511,-8.5431,-8.5429,0.0,0.0,0.0,0.0,0.0,0.0,0.0,0.0,0.0,0.0,0.0,0.0,0.0,0.0,0.0,0.0,0.0,0.0,0.0,0.0,0.0,0.0,-8.2023,-8.2143,-8.2143,-8.2226,-8.2293,-8.2293,-8.2305,-8.2315,-8.2285,-8.2289,-8.2295,-8.2304,-8.2304,-8.2461,-8.2812,-8.2344,-8.2734,-8.4101,-8.4023,-8.4414,-8.5429,-8.6328,-8.6758,-8.6758,-8.7265,-8.75,-8.75,-8.75,-8.75,-8.75,-8.75,-8.75,-8.75,-8.75,-8.75,-8.7499,0.0,0.0,0.0,0.0,-8.6803,-8.6687,-8.6687,-8.6648,-8.661,-8.661,-8.6556,-8.65,-8.65,-8.6414,-8.6254,-8.6223,-8.6153,-8.6126,-8.6094,-8.6094,-8.6094,-8.6094,-8.6094,-8.6094,-8.6094,-8.6094,-8.6094,-8.6094,-8.6094,0.0,-8.6094,-8.6094,-8.6094,-8.6094,-8.6094,-8.6094,-8.6094,-8.6094,-8.606,-8.6065,-8.5923,-8.5852,-8.5854,-8.5667,0.0,0.0,0.0,-8.5511,-8.5511,-8.5511,0.0,0.0,0.0,-8.5469,-8.5469,-8.5349,0.0,0.0,-8.4749,-8.4292,0.0,0.0,0.0,0.0,0.0,0.0,0.0,0.0,0.0,0.0,0.0,0.0,0.0,0.0,0.0,0.0,-8.2171,-8.2293,-8.2293,-8.2293,-8.2293,-8.2293,-8.2315,-8.2297,-8.2304,-8.2304,-8.2344,-8.2422,-8.2461,-8.2812,-8.3711,-8.375,0.0,0.0,0.0,-8.625,-8.6367,-8.7109,-8.75,-8.75,-8.75,-8.75,-8.75,-8.75,-8.75,-8.75,-8.75,-8.75,-8.75,-8.75,-8.75,-8.7461,-8.7265,-8.7195,-8.7173,-8.7047,-8.6945,-8.6804,-8.6829,0.0,0.0,-8.6648,-8.6556,-8.6528,-8.6528,-8.6472,-8.6384,-8.6254,-8.6184,-8.6153,-8.6126,-8.6094,-8.6094,-8.6094,-8.6094,-8.6094,-8.6094,-8.6094,-8.6094,-8.6094,-8.6094,-8.6094,-8.6094,-8.6094,-8.6094,-8.6094,-8.6094,-8.6094,-8.6094,-8.6094,-8.6094,-8.6094,-8.6065,0.0,-8.5961,-8.5817,-8.5705,-8.5705,-8.5551,-8.5511,-8.5511,-8.5511,-8.5511,-8.5511,-8.5511,-8.5511,-8.5511,-8.5511,-8.5511,-8.5511,-8.4757,-8.439,0.0,0.0,0.0,0.0,0.0,0.0,0.0,0.0,0.0,0.0,0.0,0.0,0.0,0.0,0.0,-8.2218,-8.2287,-8.2293,-8.2293,-8.2293,-8.2293,-8.2293,-8.2299,-8.2281,-8.2304,-8.2304,-8.2578,-8.3281,-8.3359,-8.3711,-8.4609,-8.4648,-8.5039,-8.5937,-8.6094,-8.6523,-8.7226,-8.7422,-8.75,-8.75,-8.75,0.0,-8.75,-8.75,-8.75,-8.75,-8.75,-8.75,-8.75,-8.75,-8.75,-8.7461,-8.7265,-8.7182,-8.718,-8.7053,-8.6966,-8.6955,-8.6955,-8.688,-8.6764,-8.688,-8.6764,-8.6583,-8.6699,-8.6605,0.0,-8.6384,-8.6285,-8.6153,-8.6126,-8.6159,-8.6191,-8.6094,-8.6159,-8.6191,-8.6094,-8.6094,-8.6094,-8.6094,-8.6094,-8.6094,-8.6094,-8.6094,-8.6094,-8.6094,-8.6094,-8.6094,-8.6094,-8.6094,-8.606,-8.6031,-8.5996,-8.5926,-8.578,-8.5743,-8.5628,-8.5551,-8.5511,-8.5511,-8.5511,-8.5511,-8.5511,-8.5511,-8.5511,-8.5511,-8.5511,-8.5511,-8.5511,-8.5511,-8.5308,-8.5181,0.0,0.0,0.0,0.0,0.0,0.0,0.0,0.0,0.0,0.0,0.0,-8.1987,-8.1987,0.0,-8.2171,-8.2287,-8.2293,-8.2293,-8.2293,-8.2293,-8.2299,-8.2315,-8.2305,-8.2315,-8.2304,-8.2695,-8.3125,-8.3554,-8.3984,-8.4648,-8.5508,-8.5547,-8.5937,-8.6836,-8.6836,-8.707,-8.75,-8.75,-8.75,-8.75,-8.75,-8.75,-8.75,-8.75,-8.75,-8.75,-8.75,-8.75,-8.75,-8.75,-8.75,-8.75,-8.7383,-8.7344,-8.7343,-8.7275,-8.7173,-8.7081,-8.7103,-8.7028,-8.6902,-8.6984,-8.6902,-8.6824,-8.6881,-8.6776,-8.6633,-8.6577,-8.6443,-8.6315,-8.6293,-8.6254,-8.6254,-8.6191,-8.6191,-8.6153,-8.6126,-8.6094,-8.6094,-8.6094,-8.6094,-8.6094,-8.6094,-8.6094,-8.6094,-8.6094,-8.6094,-8.6094,-8.6094,-8.6094,-8.606,-8.6026,-8.6065,-8.5996,-8.589,-8.578,-8.5628,-8.5511,-8.5511,-8.5511,-8.5511,-8.5511,-8.5511,-8.5511,-8.5511,-8.5511,-8.5511,-8.5511,-8.5511,-8.5511,-8.5471,-8.5431,0.0,0.0,0.0,0.0,0.0,0.0,0.0,0.0,-8.2234,-8.2084,-8.2171,-8.2234,-8.2084,-8.2171,-8.2293,-8.2293,-8.2293,-8.2293,-8.2293,-8.2293,-8.2344,-8.2519,-8.255,-8.2558,-8.2539,-8.3359,-8.3906,-8.4101,-8.4765,-8.5547,-8.6406,-8.6445,-8.6758,-8.7461,-8.75,-8.75,-8.75,-8.75,-8.75,-8.75,-8.75,-8.75,-8.75,-8.75,-8.75,-8.75,-8.75,-8.75,-8.75,-8.75,-8.75,-8.75,-8.75,-8.75,-8.75,-8.75,-8.7383,-8.7265,-8.7265,-8.7162,-8.7052,-8.706,-8.7037,-8.7011,-8.702,-8.6971,-8.6815,-8.6752,-8.6633,-8.6539,-8.6491,-8.6461,-8.6423,-8.6293,-8.6254,-8.6223,-8.6126,-8.6094,-8.6094,-8.6094,-8.6094,-8.6094,-8.6094,-8.6094,-8.6094,-8.6094,-8.6094,-8.6094,-8.6094,-8.6094,-8.6094,-8.6094,-8.6094,-8.606,-8.5996,-8.5817,-8.5628,-8.5511,-8.5511,-8.5511,-8.5511,-8.5511,-8.5511,-8.5511,-8.5511,-8.5511,-8.5511,-8.5511,-8.5511,-8.5511,-8.5511,-8.5511,-7.9092,-8.0771,-8.2059,-8.2254,-8.2293,-8.2293,0.0,0.0,-8.2293,-8.228,-8.2287,-8.2287,-8.228,-8.2287,-8.2293,-8.2293,-8.2293,-8.2293,-8.2293,-8.2293,-8.2606,-8.3354,-8.3467,-8.3437,-8.3437,-8.4258,-8.5078,-8.5859,-8.6015,-8.6445,-8.7304,-8.7344,-8.7383,-8.75,-8.75,-8.75,-8.75,-8.75,-8.75,-8.75,-8.75,-8.75,-8.75,-8.75,-8.75,-8.75,-8.75,-8.75,-8.75,-8.75,-8.75,-8.75,-8.75,-8.75,-8.75,-8.75,-8.75,-8.7461,-8.7461,-8.7343,-8.7223,-8.7375,-8.7237,-8.7013,-8.7157,-8.7057,-8.6972,-8.6892,-8.688,-8.6826,-8.679,-8.6684,-8.6636,-8.6516,-8.6401,-8.6323,-8.6126,-8.6094,-8.6094,-8.6094,-8.6094,-8.6094,-8.6094,-8.6094,-8.6094,-8.6094,-8.6094,-8.6094,-8.6094,-8.6094,-8.6094,-8.6094,-8.6094,-8.6026,-8.5852,-8.5742,-8.5628,-8.5511,-8.5511,-8.5511,-8.5511,-8.5511,-8.5511,-8.5511,-8.5511,-8.5511,-8.5511,-8.5511,-8.5511,-8.5511,-8.5511,-8.5511,-7.9248,-8.0966,-8.2293,-8.2293,-8.2293,-8.2293,-8.2293,-8.2293,-8.2293,-8.2293,-8.2293,-8.2293,-8.2293,-8.2293,-8.2293,0.0,-8.2293,-8.2489,-8.2996,-8.3052,-8.337,-8.4252,-8.4797,-8.4922,-8.4414,-8.5156,-8.582,-8.6172,-8.6679,-8.7109,-8.7461,-8.75,-8.75,-8.75,-8.75,-8.75,-8.75,-8.75,-8.75,-8.75,-8.75,-8.75,-8.75,-8.75,-8.75,-8.75,-8.75,-8.75,-8.75,-8.75,-8.75,-8.75,-8.75,-8.75,-8.75,-8.75,-8.75,-8.75,-8.75,-8.7422,-8.7383,-8.7461,-8.7414,-8.7314,-8.7342,-8.7258,-8.7102,-8.7068,-8.7035,-8.6943,-8.6904,-8.6904,-8.6842,-8.6776,-8.6699,-8.6648,-8.6384,-8.6293,-8.6238,-8.6126,-8.6094,-8.6094,-8.6094,-8.6094,-8.6094,-8.6094,-8.6094,-8.6094,-8.6094,-8.6094,-8.6094,-8.6094,-8.6099,-8.5958,-8.5815,-8.5742,-8.5628,-8.5511,-8.5511,-8.5511,-8.5511,-8.5511,-8.5511,-8.5511,-8.5511,-8.5511,-8.5511,-8.5511,-8.5511,-8.5511,-8.5511,-8.5511,-7.9366,-8.0966,-8.2293,-8.2293,-8.2293,-8.2293,-8.2293,-8.2293,-8.2293,-8.2293,-8.2293,-8.2293,-8.2293,-8.2293,-8.2293,-8.2293,-8.2489,-8.2879,-8.3504,-8.3799,-8.4272,-8.5149,-8.5813,-8.6054,-8.5664,-8.6172,-8.6562,-8.6562,-8.7148,-8.75,-8.75,-8.75,-8.75,-8.75,-8.75,-8.75,-8.75,-8.75,-8.75,-8.75,-8.75,-8.75,-8.75,-8.75,-8.75,-8.75,-8.75,-8.75,-8.75,-8.75,-8.75,-8.75,-8.75,-8.75,-8.75,-8.75,-8.75,-8.75,-8.75,-8.75,-8.75,-8.75,-8.75,-8.75,-8.75,-8.7383,-8.7265,-8.7265,-8.7201,-8.7156,-8.7156,-8.7117,-8.7036,-8.6959,-8.6943,-8.6842,-8.6559,-8.6433,-8.6335,-8.6159,-8.6094,-8.6094,-8.6094,-8.6094,-8.6094,-8.6094,-8.6094,-8.6094,-8.6094,-8.6094,-8.6094,-8.6094,-8.6065,-8.5996,-8.5852,-8.5779,-8.5667,-8.5551,-8.5511,-8.5511,-8.5511,-8.5511,-8.5511,-8.5511,-8.5511,-8.5511,-8.5511,-8.5511,-8.5511,-8.5511,-8.5511,-8.5511,-7.9678,-8.0966,-8.2293,-8.2293,-8.2293,-8.2293,-8.2293,-8.2293,-8.2293,-8.2293,-8.2293,-8.2293,-8.2293,-8.2293,-8.2293,-8.2293,-8.2996,-8.3582,-8.3582,-8.4323,-8.5189,-8.6047,-8.6164,-8.6523,0.0,-8.7461,-8.7461,-8.7461,-8.75,-8.75,-8.75,-8.75,-8.75,-8.75,-8.75,-8.75,-8.75,-8.75,-8.75,-8.75,-8.75,-8.75,-8.75,-8.75,-8.75,-8.75,-8.75,-8.75,-8.75,-8.75,-8.75,-8.75,-8.75,-8.75,-8.75,-8.75,-8.75,-8.75,-8.75,-8.75,-8.75,-8.75,-8.75,-8.75,-8.75,-8.75,-8.75,-8.75,-8.75,-8.7461,-8.7461,-8.7343,-8.7187,-8.7108,-8.6984,-8.6845,-8.656,-8.643,-8.6335,-8.6159,-8.6094,-8.6094,-8.6094,-8.6094,-8.6094,-8.6094,-8.6094,-8.6094,-8.6094,-8.6094,-8.6094,-8.6094,-8.6094,-8.606,-8.5996,-8.5852,-8.5779,-8.5705,-8.5551,-8.5511,-8.5511,-8.5511,-8.5511,-8.5511,-8.5511,-8.5511,-8.5511,-8.5511,-8.5511,-8.5511,-8.5511,-8.5511,-8.042,-8.1396,-8.2293,-8.2293,-8.2293,-8.2293,-8.2293,-8.2293,-8.2293,-8.2293,-8.2293,-8.2293,-8.2293,-8.2293,-8.2489,-8.2996,-8.3386,-8.3978,-8.5092,-8.5551,-8.6098,-8.6945,-8.7069,0.0,0.0,0.0,-8.75,-8.75,-8.75,-8.75,-8.75,-8.75,-8.75,-8.75,-8.75,-8.75,-8.75,-8.75,-8.75,-8.75,-8.75,-8.75,-8.75,-8.75,-8.75,-8.75,-8.75,-8.75,-8.75,-8.75,-8.75,-8.75,-8.75,-8.75,-8.75,-8.75,-8.75,-8.75,-8.75,-8.75,-8.75,-8.75,-8.75,-8.75,-8.75,-8.75,-8.75,-8.75,-8.75,-8.75,-8.75,-8.7461,-8.7383,-8.7383,-8.7294,-8.7166,-8.6947,-8.6765,-8.6661,-8.6568,-8.6428,-8.6288,-8.6288,-8.6288,-8.6268,-8.6126,-8.6094,-8.6094,-8.6094,-8.6094,-8.6094,-8.6094,-8.6094,-8.606,-8.5996,-8.5887,-8.5779,-8.5705,-8.5551,-8.5511,-8.5511,-8.5511,-8.5511,-8.5511,-8.5511,-8.5511,-8.5511,-8.5511,-8.5511,-8.5511,-8.5511,-8.5817,-8.0849,-8.163,-8.2293,-8.2293,-8.2293,-8.2293,-8.2293,-8.2293,-8.2293,-8.2293,-8.2293,-8.2371,-8.2684,-8.2723,-8.2996,-8.3816,-8.4245,-8.4882,-8.5963,-8.6428,-8.6865,-8.7421,-8.75,-8.75,0.0,0.0,0.0,-8.75,-8.75,-8.75,-8.75,-8.75,-8.75,-8.75,-8.75,-8.75,-8.75,-8.75,-8.75,-8.75,-8.75,-8.7656,-8.7929,-8.7929,-8.8086,-8.8398,-8.8398,-8.8398,-8.8398,-8.8398,-8.8398,-8.8398,-8.8398,-8.8398,-8.8359,-8.8047,-8.7929,-8.789,-8.7617,-8.75,-8.75,-8.75,-8.75,-8.75,-8.75,-8.75,-8.75,-8.75,-8.75,-8.75,-8.75,-8.75,-8.75,-8.75,-8.7457,-8.7327,-8.7141,-8.7001,-8.6882,-8.6807,-8.6661,-8.6519,-8.6416,-8.6335,-8.6268,-8.6126,-8.6094,-8.6094,-8.6094,-8.6094,-8.6094,-8.6094,-8.6094,-8.606,-8.6065,-8.5887,-8.5779,-8.5742,-8.559,-8.5511,-8.5511,-8.5511,-8.5511,-8.5511,-8.5511,-8.5511,-8.5511,-8.5511,-8.5664,-8.597,-8.597,-8.6428,-8.1044,-8.1669,-8.2293,-8.2293,-8.2293,-8.2293,-8.2293,-8.2293,-8.2293,-8.2293,-8.2293,-8.2567,0.0,0.0,-8.3816,-8.4714,-8.5573,-8.6131,-8.6155,-8.6873,-8.7422,0.0,0.0,0.0,0.0,0.0,0.0,-8.75,-8.75,-8.75,-8.75,-8.75,-8.75,-8.75,-8.75,-8.75,-8.75,-8.75,-8.7539,-8.7578,-8.7578,-8.7969,-8.8789,-8.8789,-8.9219,-9.0,-9.0,-9.0,-9.0,-9.0,-9.0,-9.0,-9.0,-9.0,-8.9883,-8.9062,-8.8789,-8.8672,-8.789,-8.7578,-8.75,-8.75,-8.75,-8.75,-8.75,-8.75,-8.75,-8.75,-8.75,-8.75,-8.75,-8.75,-8.75,-8.75,-8.7457,-8.7362,-8.718,-8.7107,-8.7064,-8.6864,-8.6807,-8.6726,-8.6468,-8.6268,-8.6126,-8.6094,-8.6094,-8.6094,-8.6094,-8.6094,-8.6094,-8.6094,-8.6094,-8.6094,-8.6094,-8.5923,-8.5815,-8.5815,-8.5628,-8.5511,-8.5511,-8.5511,-8.5511,-8.5511,-8.555,-8.5588,-8.5588,-8.5626,-8.6084,-8.6887,-8.6887,-8.7345,-8.1786,-8.2137,-8.2293,-8.2293,-8.2293,-8.2293,-8.2293,-8.2293,-8.2293,-8.2293,-8.2293,-8.2567,0.0,0.0,0.0,-8.5534,-8.5963,0.0,-8.699,-8.7297,0.0,-8.75,0.0,-8.75,-8.75,-8.75,0.0,0.0,-8.75,-8.75,-8.75,-8.75,-8.75,-8.75,-8.75,-8.75,-8.75,-8.75,-8.7812,-8.8398,-8.8398,-8.8828,-8.9687,-8.9687,-8.9804,-9.0,-9.0,-9.0,-9.0,-9.0,-9.0,-9.0,-9.0,-9.0,-8.9961,-8.9765,-8.9687,-8.9648,-8.9414,-8.8554,-8.75,-8.75,-8.75,-8.75,-8.75,-8.75,-8.75,-8.75,-8.75,-8.75,-8.75,-8.75,-8.75,-8.75,-8.7451,-8.7375,-8.7329,-8.7198,-8.7135,-8.7224,-8.7144,-8.695,-8.6747,-8.6494,-8.6259,-8.6126,-8.6094,-8.6094,-8.6094,-8.6094,-8.6094,-8.6094,-8.6094,-8.6094,-8.6094,-8.5923,-8.5815,-8.5815,-8.5628,-8.5511,-8.5511,-8.5511,-8.5511,-8.5511,-8.6161,-8.6467,-8.6467,-8.7116,-8.7536,-8.7766,-8.7766,-8.8224,-8.2176,-8.2293,-8.2293,-8.2293,-8.2293,-8.2293,-8.2293,-8.2293,-8.2293,-8.2293,-8.2567,-8.3074,-8.3933,-8.4362,-8.5104,0.0,0.0,0.0,-8.7347,-8.7444,-8.7456,0.0,-8.75,0.0,-8.75,-8.75,-8.75,0.0,-8.75,-8.75,-8.75,-8.75,-8.75,-8.75,-8.75,-8.75,-8.75,-8.7851,-8.8242,-8.8711,-8.9101,-8.9726,-9.0586,-9.0586,-9.0781,-9.1133,-9.1133,-9.1133,-9.1133,-9.1133,-9.1133,-9.1133,-9.1133,-9.1133,-9.1094,-9.0703,-9.0586,-9.0508,-9.0117,-8.9375,-8.8515,-8.8164,-8.7773,-8.75,-8.75,-8.75,-8.75,-8.75,-8.75,-8.75,-8.75,-8.75,-8.75,-8.75,-8.7453,-8.7387,-8.7387,-8.7297,-8.729,-8.7368,-8.7253,-8.7064,-8.6933,-8.6622,-8.6362,-8.6268,-8.6153,-8.6094,-8.6094,-8.6094,-8.6094,-8.6094,-8.6094,-8.6094,-8.6094,-8.5923,-8.5815,-8.5815,-8.5628,-8.5511,-8.5511,-8.5893,-8.6084,-8.6084,-8.6925,-8.7384,-8.7384,-8.7842,-8.8262,-8.8644,-8.8644,-8.9065,-8.2293,-8.2293,-8.2293,-8.2293,-8.2293,-8.2293,-8.2293,-8.2293,-8.2293,-8.2293,-8.2957,-8.3777,-8.4583,-8.5488,-8.6392,-8.7237,0.0,-8.742,-8.7405,-8.7397,-8.7436,-8.75,-8.75,-8.75,-8.75,-8.75,-8.75,-8.75,-8.75,-8.75,-8.75,-8.75,-8.75,-8.75,-8.7617,-8.7656,-8.7656,-8.8476,-8.8945,-8.9062,-8.9804,-9.0625,-9.1484,-9.1484,-9.1875,-9.2617,-9.2617,-9.2617,-9.2617,-9.2617,-9.2617,-9.2617,-9.2617,-9.2617,-9.25,-9.1758,-9.1484,-9.1367,-9.0625,-9.0273,-9.0039,-8.914,-8.8398,-8.7812,-8.7695,-8.7656,-8.7656,-8.7539,-8.75,-8.75,-8.75,-8.75,-8.75,-8.75,-8.7457,-8.7408,-8.7408,-8.7392,-8.7407,-8.7407,-8.7263,-8.7118,-8.7092,-8.6749,-8.648,-8.6468,-8.6259,-8.612,-8.612,-8.6126,-8.6094,-8.6094,-8.6094,-8.6094,-8.6094,-8.5923,-8.5815,-8.5815,-8.5705,-8.5664,-8.5664,-8.6505,-8.6963,-8.6963,-8.7804,-8.8262,-8.8262,-8.8377,-8.8797,-8.9485,-8.9485,-8.9867,-8.2293,-8.2293,-8.2293,-8.2293,-8.2293,-8.2293,-8.2293,-8.2293,0.0,-8.2293,-8.2957,-8.3717,-8.4412,-8.5409,-8.6332,-8.7025,-8.7282,-8.742,-8.7405,-8.7456,-8.7499,0.0,-8.75,-8.75,-8.75,-8.75,0.0,0.0,-8.75,-8.75,-8.75,-8.75,-8.75,-8.75,-8.8164,-8.8476,-8.8476,-8.9336,-9.0156,-9.0859,-9.1015,-9.1523,-9.2383,-9.2383,-9.2461,-9.2617,-9.2617,-9.2617,-9.2617,-9.2617,-9.2617,-9.2617,-9.2617,-9.2617,-9.2578,-9.2422,-9.2383,-9.2344,-9.2187,-9.1679,-9.0937,-9.0078,-8.9687,-8.9414,-8.8711,-8.8476,-8.8359,-8.7695,-8.75,-8.75,-8.75,-8.75,-8.75,-8.75,-8.7496,-8.7486,-8.7408,-8.7392,-8.7407,-8.7407,-8.7354,-8.7282,-8.7105,-8.705,-8.6917,-8.6767,-8.6519,-8.6335,-8.6335,-8.6177,-8.6094,-8.6094,-8.6094,-8.6094,-8.6094,-8.6031,-8.5887,-8.5815,-8.6356,-8.6622,-8.6581,-8.7422,-8.788,-8.788,-8.8683,-8.9103,-8.9103,-8.9829,-9.0249,-9.0364,-9.0364,-9.0478,-8.2293,-8.2293,-8.2293,-8.2293,-8.2293,-8.2293,-8.2293,0.0,0.0,-8.284,-8.3582,-8.4427,-8.5205,-8.6054,-8.6756,-8.7185,-8.726,-8.7264,-8.7405,-8.7459,0.0,-8.75,-8.75,-8.75,0.0,-8.75,-8.75,-8.75,-8.75,-8.75,-8.75,-8.75,-8.7695,-8.8125,-8.8515,-8.8906,-8.9375,-9.0234,-9.0898,-9.1328,-9.1758,-9.2187,-9.2617,-9.2617,-9.2617,-9.2617,-9.2617,-9.2617,-9.2617,-9.2617,-9.2617,-9.2617,-9.2617,-9.2617,-9.2617,-9.2617,-9.2617,-9.2617,-9.2617,-9.2344,-9.1914,-9.1484,-9.0742,-8.9922,-8.9492,-8.9375,-8.9297,-8.8906,-8.8476,-8.8125,-8.8125,-8.7812,-8.75,-8.75,-8.7457,-8.7444,-8.7392,-8.742,-8.7407,-8.7407,-8.7407,-8.7354,-8.7273,-8.7181,-8.7064,-8.695,-8.6622,-8.6416,-8.6416,-8.6208,-8.6094,-8.6094,-8.6094,-8.6094,-8.6094,-8.6415,-8.6576,-8.6467,-8.716,-8.7541,-8.746,-8.8262,-8.8721,-8.8721,-8.9561,-8.9982,-8.9982,-9.0402,-9.0593,-9.0593,-9.0593,-9.0593,-8.2293,-8.2293,-8.2293,-8.2293,-8.2293,-8.2293,-8.2293,-8.2293,-8.2528,-8.3347,-8.4206,-8.5058,-8.5863,-8.6618,-8.7157,-8.7263,-8.719,-8.7147,-8.7327,-8.742,-8.7461,0.0,-8.75,0.0,-8.75,-8.75,0.0,-8.75,-8.75,-8.75,-8.75,-8.7656,-8.8047,-8.8672,-8.9062,-8.9609,-9.0273,-9.1133,-9.1562,-9.1601,-9.2265,-9.2617,-9.2617,-9.2617,-9.2617,-9.2617,-9.2617,-9.2617,-9.2617,-9.2617,-9.2617,-9.2617,-9.2617,-9.2617,-9.2617,-9.2617,-9.2617,-9.2617,-9.2617,-9.2617,-9.2617,-9.2617,-9.1679,-9.0508,-9.0351,-9.0273,-9.0234,-9.0039,-8.9492,-8.8984,-8.8984,-8.8515,-8.8008,-8.7812,-8.7576,-8.7408,-8.7414,-8.7407,-8.7407,-8.7407,-8.7407,-8.7407,-8.7407,-8.7273,-8.7169,-8.7169,-8.6806,-8.6553,-8.6553,-8.6373,-8.6315,-8.6508,-8.6422,-8.6363,-8.6363,-8.7064,-8.7459,-8.7388,-8.8079,-8.8461,-8.8339,-8.9141,-8.96,-8.96,-9.0249,-9.0593,-9.0593,-9.0593,-9.0593,-9.0593,-9.0593,-9.0593,-8.2293,-8.2293,-8.2293,-8.2293,-8.2293,-8.2293,-8.2293,0.0,-8.2528,-8.3347,-8.4206,-8.5005,-8.5687,-8.652,-8.705,-8.6864,-8.6974,-8.7108,-8.7131,-8.7303,-8.7422,-8.75,0.0,0.0,-8.75,-8.75,-8.75,-8.75,-8.75,-8.75,-8.75,-8.8203,-8.8633,-8.8711,-9.0234,-9.1094,-9.1172,-9.2031,-9.2461,-9.2461,-9.2578,-9.2617,-9.2617,-9.2617,-9.2617,-9.2617,-9.2617,-9.2617,-9.2617,-9.2617,-9.2617,-9.2617,-9.2617,-9.2617,-9.2617,-9.2617,-9.2617,-9.2617,-9.2617,-9.2617,-9.2617,-9.2617,-9.25,-9.2226,-9.1406,-9.1172,-9.1015,-9.0234,-8.9922,-8.9883,-8.9883,-8.9844,-8.957,-8.8789,-8.7969,-8.7418,-8.7381,-8.7407,-8.7407,-8.7407,-8.7407,-8.7407,-8.7407,-8.7362,-8.7354,-8.7354,-8.7181,-8.705,-8.705,-8.6864,-8.6998,-8.7735,-8.7505,-8.7286,-8.7286,-8.8055,-8.8487,-8.827,-8.9036,-8.9381,-8.9179,-9.002,-9.0478,-9.0478,-9.0555,-9.0593,-9.0593,-9.0593,-9.0593,-9.0593,-9.0593,-9.0593,-8.2293,-8.2293,-8.2293,-8.2293,-8.2293,-8.2293,-8.2293,0.0,-8.3269,-8.4128,-8.4987,-8.5785,-8.6455,-8.6858,-8.7035,-8.6826,-8.698,-8.7089,-8.7095,-8.7252,-8.7418,-8.7422,-8.7422,0.0,0.0,0.0,-8.75,-8.75,-8.7969,-8.8203,-8.8203,-8.8515,-8.9179,-9.0234,-9.0937,-9.1562,-9.207,-9.2422,-9.2617,-9.2617,-9.2617,-9.2617,-9.2617,-9.2617,-9.2617,-9.2617,-9.2617,-9.2617,-9.2617,-9.2617,-9.2617,-9.2617,-9.2617,-9.2617,-9.2617,-9.2617,-9.2617,-9.2617,-9.2617,-9.2617,-9.2617,-9.2617,-9.2617,-9.2539,-9.2187,-9.207,-9.1992,-9.164,-9.1172,-9.0781,-9.0781,-9.039,-8.9922,-8.957,-8.9219,-8.8944,-8.8963,-8.8552,-8.8188,-8.8188,-8.7759,-8.7407,-8.7407,-8.7407,-8.7407,-8.7407,-8.7682,-8.7871,-8.7871,-8.8123,-8.8439,-8.875,-8.8081,-8.7794,-8.8335,-8.8969,-8.9299,-8.9113,-8.9841,-9.0222,-9.0096,-9.044,-9.0593,-9.0593,-9.0593,-9.0593,-9.0593,-9.0593,-9.0593,-9.0593,-9.0593,-9.0593,-8.2293,-8.2293,-8.2293,-8.2293,-8.2293,-8.2293,-8.2293,0.0,-8.3738,-8.4636,-8.5495,-8.6339,-8.7047,-8.7157,-8.7064,-8.6899,-8.7001,-8.7097,-8.7097,-8.7258,-8.7405,0.0,0.0,0.0,0.0,-8.75,-8.75,-8.75,-8.8242,-8.8828,-8.9062,-8.9336,-9.0039,-9.125,-9.1562,-9.1992,-9.2578,-9.2617,-9.2617,-9.2617,-9.2617,-9.2617,-9.2617,-9.2617,-9.2617,-9.2617,-9.2617,-9.2617,-9.2617,-9.2617,-9.2617,-9.2617,-9.2617,-9.2617,-9.2617,-9.2617,-9.2617,-9.2617,-9.2617,-9.2617,-9.2617,-9.2617,-9.2617,-9.2617,-9.2617,-9.2617,-9.2617,-9.2617,-9.2148,-9.1679,-9.1679,-9.1054,-9.039,-9.039,-9.0195,-9.0,-8.9989,-8.9539,-8.9086,-8.9086,-8.8579,-8.8188,-8.8188,-8.8188,-8.8188,-8.8188,-8.857,-8.8869,-8.8869,-8.926,-8.9613,-8.9846,-8.9118,-8.884,-8.9345,-8.9915,-9.0144,-8.9995,-9.0454,-9.0679,-9.0593,-9.0593,-9.0593,-9.0593,-9.0593,-9.0593,-9.0593,-9.0593,-9.0593,-9.0593,-9.0593,-9.0593,-8.2293,-8.2293,-8.2293,-8.2293,-8.2293,-8.2293,-8.2293,-8.2918,-8.3738,-8.4636,-8.5495,-8.6353,-8.7251,-8.7214,-8.7092,-8.7092,-8.7092,-8.7117,-8.7098,-8.7253,-8.7407,0.0,0.0,-8.7422,-8.75,-8.75,-8.75,-8.75,-8.8242,-8.9062,-8.9922,-9.0781,-9.1289,-9.1289,-9.2148,-9.2578,-9.2617,-9.2617,-9.2617,-9.2617,-9.2617,-9.2617,-9.2617,-9.2617,-9.2617,-9.2617,-9.2617,-9.2617,-9.2617,-9.2617,-9.2617,-9.2617,-9.2617,-9.2617,-9.2617,-9.2617,-9.2617,-9.2617,-9.2617,-9.2617,-9.2617,-9.2617,-9.2617,-9.2617,-9.2617,-9.2617,-9.2617,-9.2617,-9.2578,-9.2578,-9.2578,-9.1953,-9.1289,-9.1289,-9.0625,-9.0,-8.9989,-9.0008,-8.9984,-8.9984,-8.9984,-8.9984,-8.9984,-8.9984,-8.9984,-8.9984,-8.9984,-8.9984,-8.9984,-8.9984,-9.0335,-9.1194,-9.1025,-9.069,-9.03,-9.0834,-9.11,-9.0877,-9.0877,-9.0798,-9.0593,-9.0593,-9.0593,-9.0593,-9.0593,-9.0593,-9.0593,-9.0593,-9.0593,-9.0593,-9.0593,-9.0593,-8.2293,-8.2293,-8.2293,-8.2293,-8.2293,-8.2293,-8.2293,-8.3386,-8.448,-8.4753,-8.5963,-8.7042,-8.7164,-8.7263,-8.7203,-8.6917,-8.7144,-8.7263,-8.7117,-8.7263,0.0,0.0,0.0,-8.7461,0.0,0.0,-8.7734,-8.8281,-8.9101,-8.9961,-9.0859,-9.1719,-9.2187,-9.2187,-9.2461,-9.2617,-9.2617,-9.2617,-9.2617,-9.2617,-9.2617,-9.2617,-9.2617,-9.2617,-9.2617,-9.2617,-9.2617,-9.2617,-9.2617,-9.2617,-9.2617,-9.2617,-9.2617,-9.2617,-9.2617,-9.2617,-9.2617,-9.2617,-9.2617,-9.2617,-9.2617,-9.2617,-9.2617,-9.2617,-9.2617,-9.2617,-9.2617,-9.2617,-9.2617,-9.2617,-9.2617,-9.2383,-9.2187,-9.2187,-9.1992,-9.1797,-9.1796,-9.1306,-9.0882,-9.0882,-9.0413,-8.9984,-8.9984,-8.9984,-8.9984,-8.9984,-9.0492,-9.0882,-9.0882,-9.135,-9.1819,-9.2092,-9.1922,-9.1724,-9.1624,-9.1572,-9.1455,-9.1258,-9.1087,-9.0912,-9.0679,-9.0635,-9.0593,-9.0593,-9.0593,-9.0593,-9.0593,-9.0593,-9.0593,-9.0593,-9.0593,-9.0593,-8.2293,-8.2293,-8.2293,-8.2293,-8.2293,-8.2371,-8.2684,-8.3816,-8.4909,-8.5221,-8.6431,-8.7354,-8.7253,-8.733,-8.733,-8.7064,-8.7253,-8.7347,-8.7214,0.0,0.0,0.0,0.0,0.0,0.0,-8.75,-8.7812,-8.8633,-8.9492,-9.039,-9.125,-9.2148,-9.2617,-9.2617,-9.2617,-9.2617,-9.2617,-9.2617,-9.2617,-9.2617,-9.2617,-9.2617,-9.2617,-9.2617,-9.2617,-9.2617,-9.2617,-9.2617,0.0,-9.2617,-9.2617,-9.2617,-9.2617,-9.2617,-9.2617,-9.2617,-9.2617,-9.2617,-9.2617,-9.2617,-9.2617,-9.2617,-9.2617,-9.2617,-9.2617,-9.2617,-9.2617,-9.2617,-9.2617,-9.2617,-9.2617,-9.2617,-9.2617,-9.2617,-9.2617,-9.2617,-9.2617,-9.2177,-9.1793,-9.178,-9.1311,-9.0921,-9.0921,-9.0921,-9.0921,-9.0921,-9.1428,-9.1741,-9.1741,-9.217,-9.2482,-9.2482,-9.2393,-9.2312,-9.2312,-9.1974,-9.1703,-9.15,-9.1299,-9.1082,-9.0838,-9.0681,-9.0635,-9.0593,-9.0593,-9.0593,-9.0593,-9.0593,-9.0593,-9.0593,-9.0593,-9.0593,0.0,-8.2293,-8.2293,-8.2293,-8.2293,-8.2528,-8.3308,-8.4167,0.0,-8.5924,-8.6783,-8.7407,-8.7407,-8.7407,-8.7407,-8.7407,-8.7407,-8.7407,-8.7407,-8.7407,0.0,0.0,0.0,0.0,-8.75,-8.7539,-8.7929,-8.8711,-8.9609,-9.0469,-9.1367,-9.2148,-9.2617,-9.2617,-9.2617,-9.2617,-9.2617,-9.2617,-9.2617,-9.2617,-9.2617,-9.2617,-9.2617,-9.2617,-9.2617,-9.2617,-9.2617,-9.2617,-9.2617,-9.2617,-9.2617,-9.2617,-9.2617,-9.2617,-9.2617,-9.2617,-9.2617,-9.2617,-9.2617,-9.2617,-9.2617,-9.2617,-9.2617,-9.2617,-9.2617,-9.2617,-9.2617,-9.2617,-9.2617,-9.2617,-9.2617,-9.2617,-9.2617,-9.2617,-9.2617,-9.2617,-9.2617,-9.2613,-9.2599,-9.2606,-9.2561,-9.2482,-9.2482,-9.2482,-9.2482,-9.2482,-9.2482,-9.2482,-9.2482,-9.2482,-9.2482,-9.2482,-9.2482,-9.2482,-9.2482,-9.2168,-9.1897,-9.1756,-9.1554,-9.1338,-9.111,-9.0875,-9.0679,-9.0593,-9.0593,-9.0593,-9.0593,-9.0593,-9.0593,-9.0593,-9.0593,-9.0593,-8.2293,0.0,-8.2293,-8.2293,-8.2293,-8.2528,0.0,-8.4167,-8.5065,0.0,0.0,-8.7407,-8.7407,-8.7407,-8.7407,-8.7407,-8.7407,-8.7407,-8.7407,0.0,0.0,0.0,0.0,-8.75,-8.75,-8.8047,-8.8789,-8.9648,-9.0508,-9.1367,-9.2265,-9.25,-9.2617,-9.2617,-9.2617,-9.2617,-9.2617,-9.2617,-9.2617,-9.2617,-9.2617,-9.2617,-9.2617,-9.2617,-9.2617,-9.2617,-9.2617,-9.2617,-9.2617,-9.2617,-9.2617,-9.2617,-9.2617,-9.2617,-9.2617,-9.2617,-9.2617,-9.2617,-9.2617,-9.2617,-9.2617,-9.2617,-9.2617,-9.2617,-9.2617,-9.2617,-9.2617,-9.2617,-9.2617,-9.2617,-9.2617,-9.2617,-9.2617,-9.2617,-9.2617,-9.2617,-9.2617,-9.2613,-9.2599,-9.2606,-9.2561,-9.2482,-9.2482,-9.2482,-9.2482,-9.2482,-9.2482,-9.2482,-9.2482,-9.2482,-9.2482,-9.2482,-9.2482,-9.2482,-9.2482,-9.2403,-9.23,-9.2098,-9.1974,-9.1773,-9.1338,-9.1116,-9.0912,-9.0679,-9.0635,-9.0593,-9.0593,-9.0593,-9.0593,-9.0593,-9.0593,-9.0593,-8.2293,-8.2293,-8.2293,-8.2293,-8.2567,-8.3074,-8.3894,-8.4753,0.0,0.0,0.0,-8.7407,-8.7407,-8.7407,-8.7407,-8.7407,-8.7407,-8.7407,0.0,0.0,0.0,0.0,0.0,-8.75,0.0,-8.8242,-8.9062,-8.9922,-9.082,-9.1679,-9.2539,-9.2617,-9.2617,-9.2617,-9.2617,-9.2617,-9.2617,-9.2617,-9.2617,-9.2617,-9.2617,-9.2617,-9.2617,-9.2617,-9.2617,-9.2617,-9.2617,-9.2617,-9.2617,-9.2617,-9.2617,-9.2617,-9.2617,-9.2617,-9.2617,-9.2617,-9.2617,-9.2617,-9.2617,-9.2617,-9.2617,-9.2617,-9.2617,-9.2617,-9.2617,-9.2617,-9.2617,-9.2617,-9.2617,-9.2617,-9.2617,-9.2617,-9.2617,-9.2617,-9.2617,-9.2617,-9.2617,-9.2616,-9.2606,-9.2613,-9.2561,-9.2522,-9.2522,-9.2482,-9.2482,-9.2482,-9.2482,-9.2482,-9.2482,-9.2482,-9.2482,-9.2482,-9.2482,-9.2482,-9.2482,-9.2482,-9.2468,-9.2334,-9.2224,-9.2031,-9.1727,-9.1406,-9.1048,-9.0714,-9.0635,-9.0593,-9.0593,-9.0593,-9.0593,-9.0593,-9.0593,-9.0593,-8.2293,-8.2293,-8.2293,-8.2293,-8.2918,-8.3738,-8.4597,-8.5456,0.0,0.0,0.0,0.0,0.0,-8.7407,0.0,-8.7414,-8.7414,-8.7414,-8.7407,0.0,0.0,0.0,-8.75,0.0,-8.7656,-8.8437,-8.9258,-9.0117,-9.1015,-9.1836,-9.2578,-9.2617,-9.2617,-9.2617,-9.2617,-9.2617,-9.2617,-9.2617,-9.2617,-9.2617,-9.2617,-9.2617,-9.2617,-9.2617,-9.2617,-9.2617,-9.2617,-9.2617,-9.2617,-9.2617,-9.2617,-9.2617,-9.2617,-9.2617,-9.2617,-9.2617,-9.2617,-9.2617,-9.2617,-9.2617,-9.2617,-9.2617,-9.2617,-9.2617,-9.2617,-9.2617,-9.2617,-9.2617,-9.2617,-9.2617,-9.2617,-9.2617,-9.2617,-9.2617,-9.2617,-9.2617,-9.2617,-9.2617,-9.2615,-9.258,-9.2606,-9.2561,-9.2522,-9.2482,-9.2482,-9.2482,-9.2482,-9.2482,-9.2482,-9.2482,-9.2482,-9.2482,-9.2482,-9.2482,-9.2482,-9.2482,-9.2482,-9.2482,-9.2334,-9.2224,-9.2104,-9.168,-9.1231,-9.0784,-9.0746,-9.0708,-9.0631,-9.0669,-9.0631,-9.0593,-9.0593,-9.0593,-8.2293,-8.2293,-8.2293,-8.2293,-8.2918,-8.3738,-8.4597,-8.5456,-8.6353,0.0,0.0,0.0,0.0,-8.7407,-8.7414,0.0,0.0,-8.7397,0.0,0.0,0.0,-8.75,0.0,-8.7773,-8.8437,-8.9297,-9.0156,-9.1015,-9.1914,-9.2461,-9.2578,-9.2617,-9.2617,-9.2617,-9.2617,-9.2617,-9.2617,-9.2617,-9.2617,-9.2617,-9.2617,-9.2617,-9.2617,-9.2617,-9.2617,-9.2617,-9.2617,-9.2617,-9.2617,-9.2617,-9.2617,-9.2617,-9.2617,-9.2617,-9.2617,-9.2617,-9.2617,-9.2617,-9.2617,-9.2617,-9.2617,-9.2617,-9.2617,-9.2617,-9.2617,-9.2617,-9.2617,-9.2617,-9.2617,-9.2617,-9.2617,-9.2617,-9.2617,-9.2617,-9.2617,-9.2617,-9.2617,-9.2617,-9.2616,-9.2603,-9.258,-9.2561,-9.2522,-9.2482,-9.2482,-9.2482,-9.2482,-9.2482,-9.2482,-9.2482,-9.2482,-9.2482,-9.2482,-9.2482,-9.2482,-9.2482,-9.2482,-9.2482,-9.2475,-9.235,-9.2108,-9.1785,-9.1487,-9.1132,-9.1243,-9.1128,-9.0708,-9.0861,-9.0822,-9.0593,-9.0593,-9.0593,-8.2293,-8.2293,-8.2411,-8.284,-8.3582,-8.4323,-8.4714,-8.5846,-8.6939,0.0,0.0,0.0,0.0,0.0,0.0,0.0,0.0,-8.7397,-8.7447,-8.7498,-8.75,0.0,0.0,-8.7812,-8.8633,-8.9492,-9.0351,-9.1211,-9.2109,-9.2617,-9.2617,-9.2617,-9.2617,-9.2617,-9.2617,-9.2617,-9.2617,-9.2617,-9.2617,-9.2617,-9.2617,-9.2617,-9.2617,-9.2617,-9.2617,-9.2617,-9.2617,-9.2617,-9.2617,-9.2617,-9.2617,-9.2617,-9.2617,-9.2617,-9.2617,-9.2617,-9.2617,-9.2617,-9.2617,-9.2617,-9.2617,-9.2617,-9.2617,-9.2617,-9.2617,-9.2617,-9.2617,-9.2617,-9.2617,-9.2617,-9.2617,-9.2617,-9.2617,-9.2617,-9.2617,-9.2617,-9.2617,-9.2617,-9.2616,-9.2606,-9.2585,-9.2561,-9.2522,-9.2482,-9.2482,-9.2482,-9.2482,-9.2482,-9.2482,-9.2482,-9.2482,-9.2482,-9.2482,-9.2482,-9.2482,-9.2482,-9.2482,-9.2482,-9.2482,-9.2404,-9.217,-9.1997,-9.176,-9.1455,-9.1533,-9.1345,-9.0937,-9.1029,-9.0899,-9.0593,-9.0593,-9.0593,-8.2293,-8.2293,-8.2489,-8.3308,-8.4167,-8.487,-8.5065,-8.6314,0.0,0.0,0.0,0.0,0.0,0.0,0.0,0.0,0.0,-8.7431,-8.7499,-8.75,-8.75,-8.75,-8.75,-8.789,-8.8906,-8.9609,-9.0469,-9.1523,-9.2226,-9.2617,-9.2617,-9.2617,-9.2617,-9.2617,-9.2617,-9.2617,-9.2617,-9.2617,-9.2617,-9.2617,-9.2617,-9.2617,-9.2617,-9.2617,-9.2617,-9.2617,-9.2617,-9.2617,-9.2617,-9.2617,-9.2617,-9.2617,-9.2617,-9.2617,-9.2617,-9.2617,-9.2617,-9.2617,-9.2617,-9.2617,-9.2617,-9.2617,-9.2617,-9.2617,-9.2617,-9.2617,-9.2617,-9.2617,-9.2617,-9.2617,-9.2617,-9.2617,-9.2617,-9.2617,-9.2617,-9.2617,-9.2617,-9.2617,-9.2616,-9.2606,-9.2585,-9.2561,-9.2522,-9.2482,-9.2482,-9.2482,-9.2482,-9.2482,-9.2482,-9.2482,-9.2482,-9.2482,-9.2482,-9.2482,-9.2482,-9.2482,-9.2482,-9.2482,-9.2482,-9.2443,-9.2287,-9.2209,-9.2053,-9.1819,-9.1819,-9.1625,-9.1261,-9.1202,-9.1026,-9.0708,-9.0631,-9.0593,-8.2293,-8.2293,-8.2489,-8.3308,-8.4167,-8.5026,-8.5807,-8.6744,0.0,-8.7401,0.0,0.0,0.0,0.0,0.0,0.0,-8.7387,-8.7431,-8.7499,0.0,-8.75,-8.75,-8.75,-8.8125,-8.9765,-8.9961,-9.0703,-9.2383,-9.2578,-9.2617,-9.2617,-9.2617,-9.2617,-9.2617,-9.2617,-9.2617,-9.2617,-9.2617,-9.2617,-9.2617,-9.2617,-9.2617,-9.2617,-9.2617,-9.2617,-9.2617,-9.2617,-9.2617,-9.2617,-9.2617,-9.2617,-9.2617,-9.2617,-9.2617,-9.2617,-9.2617,-9.2617,-9.2617,-9.2617,-9.2617,-9.2617,-9.2617,-9.2617,-9.2617,-9.2617,-9.2617,-9.2617,-9.2617,-9.2617,-9.2617,-9.2617,-9.2617,-9.2617,-9.2617,-9.2617,-9.2617,-9.2617,-9.2617,-9.2616,-9.2606,-9.2585,-9.2561,-9.2522,-9.2482,-9.2482,-9.2482,-9.2482,-9.2482,-9.2482,-9.2482,-9.2482,-9.2482,-9.2482,-9.2482,-9.2482,-9.2482,-9.2482,-9.2482,-9.2482,-9.2482,-9.2482,-9.2482,-9.2365,-9.217,-9.2326,-9.2163,-9.167,-9.1548,-9.1325,-9.1052,-9.0746,-9.0593,-8.2293,-8.2293,-8.2606,-8.3972,-8.4558,0.0,0.0,-8.6762,-8.7401,-8.7418,-8.7401,0.0,0.0,0.0,0.0,-8.7457,-8.7456,-8.7456,-8.75,-8.75,-8.75,-8.75,-8.75,-8.8164,-8.9844,-9.0,-9.0703,-9.2461,-9.2617,-9.2617,-9.2617,-9.2617,-9.2617,-9.2617,-9.2617,-9.2617,-9.2617,-9.2617,-9.2617,-9.2617,-9.2617,-9.2617,-9.2617,-9.2617,-9.2617,-9.2617,-9.2617,-9.2617,-9.2617,-9.2617,-9.2617,-9.2617,-9.2617,-9.2617,-9.2617,-9.2617,-9.2617,-9.2617,-9.2617,-9.2617,-9.2617,-9.2617,-9.2617,-9.2617,-9.2617,-9.2617,-9.2617,-9.2617,-9.2617,-9.2617,-9.2617,-9.2617,-9.2617,-9.2617,-9.2617,-9.2617,-9.2617,-9.2617,-9.2617,-9.2615,-9.2595,-9.26,-9.2561,-9.2522,-9.2482,-9.2482,-9.2482,-9.2482,-9.2482,-9.2482,-9.2482,-9.2482,-9.2482,-9.2482,-9.2482,-9.2482,-9.2482,-9.2482,-9.2482,-9.2482,-9.2482,-9.2482,-9.2443,-9.2404,-9.2443,-9.2334,-9.1937,-9.1895,-9.1592,-9.1132,-9.0952,-9.08,-8.2293,-8.2489,-8.3035,-8.4453,-8.5032,-8.5456,-8.6314,-8.6962,-8.7414,-8.7421,-8.7414,0.0,0.0,0.0,0.0,0.0,-8.7499,-8.75,-8.75,-8.75,-8.75,-8.75,-8.75,-8.8164,-8.9844,-9.0,-9.0703,-9.2461,-9.2617,-9.2617,-9.2617,-9.2617,-9.2617,-9.2617,-9.2617,-9.2617,-9.2617,-9.2617,-9.2617,-9.2617,-9.2617,-9.2617,-9.2617,-9.2617,-9.2617,-9.2617,-9.2617,-9.2617,-9.2617,-9.2617,-9.2617,-9.2617,-9.2617,-9.2617,-9.2617,-9.2617,-9.2617,-9.2617,-9.2617,-9.2617,-9.2617,-9.2617,-9.2617,-9.2617,-9.2617,-9.2617,-9.2617,-9.2617,-9.2617,-9.2617,-9.2617,-9.2617,-9.2617,-9.2617,-9.2617,-9.2617,-9.2617,-9.2617,-9.2617,-9.2617,-9.2606,-9.2613,-9.26,-9.2522,-9.2482,-9.2482,-9.2482,-9.2482,-9.2482,-9.2482,-9.2482,-9.2482,-9.2482,-9.2482,-9.2482,-9.2482,-9.2482,-9.2482,-9.2482,-9.2482,-9.2482,-9.2482,-9.2482,-9.2482,-9.2482,-9.2412,-9.2237,-9.2128,-9.1802,-9.1256,-9.1116,-9.0905,-8.2293,-8.2879,-8.375,-8.4671,-8.5517,0.0,-8.7212,-8.7392,-8.7414,-8.75,0.0,-8.7461,-8.7422,0.0,0.0,-8.742,-8.7451,-8.75,-8.75,-8.75,-8.75,-8.75,-8.75,-8.8164,-8.9844,-9.0,-9.0703,-9.2461,-9.2617,-9.2617,-9.2617,-9.2617,-9.2617,-9.2617,-9.2617,-9.2617,-9.2617,-9.2617,-9.2617,-9.2617,-9.2617,-9.2617,-9.2617,-9.2617,-9.2617,-9.2617,-9.2617,-9.2617,-9.2617,-9.2617,-9.2617,-9.2617,-9.2617,-9.2617,-9.2617,-9.2617,-9.2617,-9.2617,-9.2617,-9.2617,-9.2617,-9.2617,-9.2617,-9.2617,-9.2617,-9.2617,-9.2617,-9.2617,-9.2617,-9.2617,-9.2617,-9.2617,-9.2617,-9.2617,-9.2617,-9.2617,-9.2617,-9.2617,-9.2617,-9.2617,-9.2613,-9.2595,-9.2606,-9.2522,-9.2482,-9.2482,-9.2482,-9.2482,-9.2482,-9.2482,-9.2482,-9.2482,-9.2482,-9.2482,-9.2482,-9.2482,-9.2482,-9.2482,-9.2482,-9.2482,-9.2482,-9.2482,-9.2482,-9.2482,-9.2482,-9.2482,-9.2482,-9.2158,-9.186,-9.1578,-9.1207,-9.0838,-8.2293,-8.2935,0.0,0.0,0.0,0.0,0.0,-8.7414,0.0,0.0,-8.75,-8.75,-8.7461,0.0,0.0,-8.7457,-8.7499,-8.75,-8.75,-8.75,-8.75,-8.75,-8.75,-8.8164,-8.9844,-9.0,-9.0703,-9.2461,-9.2617,-9.2617,-9.2617,-9.2617,-9.2617,-9.2617,-9.2617,-9.2617,-9.2617,-9.2617,-9.2617,-9.2617,-9.2617,-9.2617,-9.2617,-9.2617,-9.2617,-9.2617,-9.2617,-9.2617,-9.2617,-9.2617,-9.2617,-9.2617,-9.2617,-9.2617,-9.2617,-9.2617,-9.2617,-9.2617,-9.2617,-9.2617,-9.2617,-9.2617,-9.2617,-9.2617,-9.2617,-9.2617,-9.2617,-9.2617,-9.2617,-9.2617,-9.2617,-9.2617,-9.2617,-9.2617,-9.2617,-9.2617,-9.2617,-9.2617,-9.2617,-9.2617,-9.2606,-9.2613,-9.26,-9.2522,-9.2482,-9.2482,-9.2482,-9.2482,-9.2482,-9.2482,-9.2482,-9.2482,-9.2482,-9.2482,-9.2482,-9.2482,-9.2482,-9.2482,-9.2482,-9.2482,-9.2482,-9.2482,-9.2482,-9.2482,-9.2482,-9.2482,-9.2482,-9.2393,-9.2098,-9.1616,-9.1434,-9.1082,-8.2293,0.0,0.0,0.0,0.0,0.0,0.0,0.0,0.0,0.0,0.0,-8.75,-8.75,-8.75,0.0,-8.75,-8.75,-8.75,-8.75,-8.75,-8.75,-8.75,-8.75,-8.8164,-8.9844,-9.0,-9.0703,-9.2461,-9.2617,-9.2617,-9.2617,-9.2617,-9.2617,-9.2617,-9.2617,-9.2617,-9.2617,-9.2617,-9.2617,-9.2617,-9.2617,-9.2617,-9.2617,-9.2617,-9.2617,-9.2617,-9.2617,-9.2617,-9.2617,-9.2617,-9.2617,-9.2617,-9.2617,-9.2617,-9.2617,-9.2617,-9.2617,-9.2617,-9.2617,-9.2617,-9.2617,-9.2617,-9.2617,-9.2617,-9.2617,-9.2617,-9.2617,-9.2617,-9.2617,-9.2617,-9.2617,-9.2617,-9.2617,-9.2617,-9.2617,-9.2617,-9.2617,-9.2617,-9.2617,-9.2611,-9.2595,-9.2619,-9.2606,-9.2522,-9.2482,-9.2482,-9.2482,-9.2482,-9.2482,-9.2482,-9.2482,-9.2482,-9.2482,-9.2482,-9.2482,-9.2482,-9.2482,-9.2482,-9.2482,-9.2482,-9.2482,-9.2482,-9.2482,-9.2482,-9.2482,-9.2482,-9.2482,-9.249,-9.2182,-9.1665,-9.1541,-9.1213,0.0,0.0,0.0,0.0,0.0,0.0,0.0,0.0,0.0,0.0,0.0,-8.75,-8.7495,-8.7498,-8.75,-8.7461,-8.75,-8.75,-8.75,-8.75,-8.75,-8.75,-8.75,-8.8164,-8.9844,-9.0,-9.0703,-9.2461,-9.2617,-9.2617,-9.2617,-9.2617,-9.2617,-9.2617,-9.2617,-9.2617,-9.2617,-9.2617,-9.2617,-9.2617,-9.2617,-9.2617,-9.2617,-9.2617,-9.2617,-9.2617,-9.2617,-9.2617,-9.2617,-9.2617,-9.2617,-9.2617,-9.2617,-9.2617,-9.2617,-9.2617,-9.2617,-9.2617,-9.2617,-9.2617,-9.2617,-9.2617,-9.2617,-9.2617,-9.2617,-9.2617,-9.2617,-9.2617,-9.2617,-9.2617,-9.2617,-9.2617,-9.2617,-9.2617,-9.2617,-9.2617,-9.2617,-9.2617,-9.2615,-9.2613,-9.2585,-9.2595,-9.2606,-9.2522,-9.2482,-9.2482,-9.2482,-9.2482,-9.2482,-9.2482,-9.2482,-9.2482,-9.2482,-9.2482,-9.2482,-9.2482,-9.2482,-9.2482,-9.2482,-9.2482,-9.2482,-9.2482,-9.2482,-9.2482,-9.2482,-9.2482,-9.2482,-9.2481,-9.2221,-9.1711,-9.1554,-9.122,0.0,0.0,0.0,0.0,0.0,0.0,0.0,0.0,0.0,0.0,0.0,-8.744,-8.7291,-8.739,-8.7461,-8.7304,-8.7383,-8.75,-8.75,-8.75,-8.75,-8.75,-8.75,-8.8164,-8.9844,-9.0,-9.0703,-9.2461,-9.2617,-9.2617,-9.2617,-9.2617,-9.2617,-9.2617,-9.2617,-9.2617,-9.2617,-9.2617,-9.2617,-9.2617,-9.2617,-9.2617,-9.2617,-9.2617,-9.2617,-9.2617,-9.2617,-9.2617,-9.2617,-9.2617,-9.2617,-9.2617,-9.2617,-9.2617,-9.2617,-9.2617,-9.2617,-9.2617,-9.2617,-9.2617,-9.2617,-9.2617,-9.2617,-9.2617,-9.2617,-9.2617,-9.2617,-9.2617,-9.2617,-9.2617,-9.2617,-9.2617,-9.2617,-9.2617,-9.2617,-9.2617,-9.2617,-9.2617,-9.2615,-9.2613,-9.2606,-9.2613,-9.26,-9.2522,-9.2482,-9.2482,-9.2482,-9.2482,-9.2482,-9.2482,-9.2482,-9.2482,-9.2482,-9.2482,-9.2482,-9.2482,-9.2482,-9.2482,-9.2482,-9.2482,-9.2482,-9.2482,-9.2482,-9.2482,-9.2482,-9.2482,-9.2482,-9.2498,-9.221,-9.1711,-9.1655,-9.1307,0.0,0.0,0.0,0.0,0.0,0.0,0.0,0.0,0.0,0.0,0.0,-8.7269,-8.7222,-8.7287,-8.7341,-8.7342,-8.7422,-8.75,-8.75,-8.75,-8.75,-8.75,-8.75,-8.8164,-8.9844,-9.0,-9.0703,-9.2461,-9.2617,-9.2617,-9.2617,-9.2617,-9.2617,-9.2617,-9.2617,-9.2617,-9.2617,-9.2617,-9.2617,-9.2617,-9.2617,-9.2617,-9.2617,-9.2617,-9.2617,-9.2617,-9.2617,-9.2617,-9.2617,-9.2617,-9.2617,-9.2617,-9.2617,-9.2617,-9.2617,-9.2617,-9.2617,-9.2617,-9.2617,-9.2617,-9.2617,-9.2617,-9.2617,-9.2617,-9.2617,-9.2617,-9.2617,-9.2617,-9.2617,-9.2617,-9.2617,-9.2617,-9.2617,-9.2617,-9.2617,-9.2617,-9.2617,-9.2616,-9.2611,-9.259,-9.2613,-9.26,-9.2561,-9.2522,-9.2482,-9.2482,-9.2482,-9.2482,-9.2482,-9.2482,-9.2482,-9.2482,-9.2482,-9.2482,-9.2482,-9.2482,-9.2482,-9.2482,-9.2482,-9.2482,-9.2482,-9.2482,-9.2482,-9.2482,-9.2482,-9.2482,-9.2482,-9.2498,-9.2263,-9.1795,-9.1742,-9.1368,0.0,0.0,0.0,0.0,0.0,0.0,0.0,0.0,0.0,0.0,-8.7096,-8.7053,-8.7186,-8.722,-8.7291,-8.7407,-8.7456,-8.75,-8.7461,-8.7461,-8.75,-8.75,-8.75,-8.8164,-8.9844,-9.0,-9.0703,-9.2461,-9.2617,-9.2617,-9.2617,-9.2617,-9.2617,-9.2617,-9.2617,-9.2617,-9.2617,-9.2617,-9.2617,-9.2617,-9.2617,-9.2617,-9.2617,-9.2617,-9.2617,-9.2617,-9.2617,-9.2617,-9.2617,-9.2617,-9.2617,-9.2617,-9.2617,-9.2617,-9.2617,-9.2617,-9.2617,-9.2617,-9.2617,-9.2617,-9.2617,-9.2617,-9.2617,-9.2617,-9.2617,-9.2617,-9.2617,-9.2617,-9.2617,-9.2617,-9.2617,-9.2617,-9.2617,-9.2617,-9.2617,-9.2617,-9.2617,-9.2613,-9.2603,-9.2603,-9.2585,-9.2561,-9.2522,-9.2482,-9.2482,-9.2482,-9.2482,-9.2482,-9.2482,-9.2482,-9.2482,-9.2482,-9.2482,-9.2482,-9.2482,-9.2482,-9.2482,-9.2482,-9.2482,-9.2482,-9.2482,-9.2482,-9.2482,-9.2482,-9.2482,-9.2482,-9.2482,-9.2507,-9.2276,-9.1915,-9.1766,-9.1494,0.0,0.0,0.0,0.0,0.0,0.0,0.0,0.0,0.0,0.0,-8.7088,-8.7163,-8.7197,-8.7351,-8.7386,-8.7135,-8.7302,-8.7422,-8.7265,-8.7383,-8.75,-8.75,-8.75,-8.8164,-8.9844,-9.0,-9.0703,-9.2461,-9.2617,-9.2617,-9.2617,-9.2617,-9.2617,-9.2617,-9.2617,-9.2617,-9.2617,-9.2617,-9.2617,-9.2617,-9.2617,-9.2617,-9.2617,-9.2617,-9.2617,-9.2617,-9.2617,-9.2617,-9.2617,-9.2617,-9.2617,-9.2617,-9.2617,-9.2617,-9.2617,-9.2617,-9.2617,-9.2617,-9.2617,-9.2617,-9.2617,-9.2617,-9.2617,-9.2617,-9.2617,-9.2617,-9.2617,-9.2617,-9.2617,-9.2617,-9.2617,-9.2617,-9.2617,-9.2617,-9.2617,-9.2617,-9.2617,-9.2613,-9.2603,-9.2603,-9.2546,-9.2522,-9.2482,-9.2482,-9.2482,-9.2482,-9.2482,-9.2482,-9.2482,-9.2482,-9.2482,-9.2482,-9.2482,-9.2482,-9.2482,-9.2482,-9.2482,-9.2482,-9.2482,-9.2482,-9.2482,-9.2482,-9.2482,-9.2482,-9.2482,-9.2482,-9.2482,-9.2482,-9.23,-9.1915,-9.1894,-9.1539,0.0,0.0,0.0,0.0,0.0,0.0,0.0,0.0,-8.6854,-8.7088,-8.7057,-8.701,-8.7088,-8.7156,-8.716,-8.7001,-8.7128,-8.717,-8.7104,-8.7159,-8.7269,-8.7304,-8.7344,-8.8047,-8.9844,-9.0,-9.0703,-9.2461,-9.2617,-9.2617,-9.2617,-9.2617,-9.2617,-9.2617,-9.2617,-9.2617,-9.2617,-9.2617,-9.2617,-9.2617,-9.2617,-9.2617,-9.2617,-9.2617,-9.2617,-9.2617,-9.2617,-9.2617,-9.2617,-9.2617,-9.2617,-9.2617,-9.2617,-9.2617,-9.2617,-9.2617,-9.2617,-9.2617,-9.2617,-9.2617,-9.2617,-9.2617,-9.2617,-9.2617,-9.2617,-9.2617,-9.2617,-9.2617,-9.2617,-9.2617,-9.2617,-9.2617,-9.2617,-9.2617,-9.2617,-9.2617,-9.2617,-9.2613,-9.2599,-9.2585,-9.2535,-9.2482,-9.2482,-9.2482,-9.2482,-9.2482,-9.2482,-9.2482,-9.2482,-9.2482,-9.2482,-9.2482,-9.2482,-9.2482,-9.2482,-9.2482,-9.2482,-9.2482,-9.2482,-9.2482,-9.2482,-9.2482,-9.2482,-9.2482,-9.2482,-9.2482,-9.2482,-9.2482,-9.23,-9.1915,-9.1915,-9.1631,0.0,0.0,0.0,0.0,0.0,0.0,0.0,0.0,-8.692,0.0,-8.6998,-8.6884,-8.692,-8.6958,-8.697,-8.6959,-8.6971,-8.6994,-8.6977,-8.6972,-8.7025,-8.7159,-8.7162,-8.7883,-8.9765,-8.9961,-9.0703,-9.2461,-9.2617,-9.2617,-9.2617,-9.2617,-9.2617,-9.2617,-9.2617,-9.2617,-9.2617,-9.2617,-9.2617,-9.2617,-9.2617,-9.2617,-9.2617,-9.2617,-9.2617,-9.2617,-9.2617,-9.2617,-9.2617,-9.2617,-9.2617,-9.2617,-9.2617,-9.2617,-9.2617,-9.2617,-9.2617,-9.2617,-9.2617,-9.2617,-9.2617,-9.2617,-9.2617,-9.2617,-9.2617,-9.2617,-9.2617,-9.2617,-9.2617,-9.2617,-9.2617,-9.2617,-9.2617,-9.2617,-9.2617,-9.2617,-9.2617,-9.2615,-9.2603,-9.2606,-9.2561,-9.2522,-9.2482,-9.2482,-9.2482,-9.2482,-9.2482,-9.2482,-9.2482,-9.2482,-9.2482,-9.2482,-9.2482,-9.2482,-9.2482,-9.2482,-9.2482,-9.2482,-9.2482,-9.2482,-9.2482,-9.2482,-9.2482,-9.2482,-9.2482,-9.2482,-9.2482,-9.2482,-9.2312,-9.1996,-9.1936,-9.1683,-8.7095,-8.7353,0.0,0.0,0.0,0.0,0.0,0.0,-8.7023,-8.7151,-8.7079,-8.695,-8.6829,-8.6919,-8.6958,-8.6829,-8.6907,-8.6958,-8.6855,-8.6933,-8.701,-8.6997,-8.6998,-8.775,-8.9647,-8.9804,-9.0586,-9.2461,-9.2617,-9.2617,-9.2617,-9.2617,-9.2617,-9.2617,-9.2617,-9.2617,-9.2617,-9.2617,-9.2617,-9.2617,-9.2617,-9.2617,-9.2617,-9.2617,-9.2617,-9.2617,-9.2617,-9.2617,-9.2617,-9.2617,-9.2617,-9.2617,-9.2617,-9.2617,-9.2617,-9.2617,-9.2617,-9.2617,-9.2617,-9.2617,-9.2617,-9.2617,-9.2617,-9.2617,-9.2617,-9.2617,-9.2617,-9.2617,-9.2617,-9.2617,-9.2617,-9.2617,-9.2617,-9.2617,-9.2617,-9.2617,-9.2617,-9.2617,-9.2615,-9.2613,-9.26,-9.2561,-9.2522,-9.2482,-9.2482,-9.2482,-9.2482,-9.2482,-9.2482,-9.2482,-9.2482,-9.2482,-9.2482,-9.2482,-9.2482,-9.2482,-9.2482,-9.2482,-9.2482,-9.2482,-9.2482,-9.2482,-9.2482,-9.2482,-9.2482,-9.2482,-9.2482,-9.2482,-9.2393,-9.2182,-9.2015,-9.1742,-8.7329,0.0,0.0,0.0,0.0,-8.7206,-8.7202,-8.711,-8.7001,-8.7075,-8.6878,-8.6754,-8.6791,-8.6842,-8.6842,-8.6687,-8.6726,-8.6726,-8.6687,-8.6726,-8.6764,-8.6842,-8.6863,-8.7622,-8.9467,-8.9664,-9.0459,-9.2343,-9.2461,-9.25,-9.2617,-9.2617,-9.2617,-9.2617,-9.2617,-9.2617,-9.2617,-9.2617,-9.2617,-9.2617,-9.2617,-9.2617,-9.2617,-9.2617,-9.2617,-9.2617,-9.2617,-9.2617,-9.2617,-9.2617,-9.2617,-9.2617,-9.2617,-9.2617,-9.2617,-9.2617,-9.2617,-9.2617,-9.2617,-9.2617,-9.2617,-9.2617,-9.2617,-9.2617,-9.2617,-9.2617,-9.2617,-9.2617,-9.2617,-9.2617,-9.2617,-9.2617,-9.2617,-9.2617,-9.2617,-9.2617,-9.2617,-9.2617,-9.2616,-9.2599,-9.2613,-9.2561,-9.2522,-9.2482,-9.2482,-9.2482,-9.2482,-9.2482,-9.2482,-9.2482,-9.2482,-9.2482,-9.2482,-9.2482,-9.2482,-9.2482,-9.2482,-9.2482,-9.2482,-9.2482,-9.2482,-9.2482,-9.2482,-9.2482,-9.2482,-9.2482,-9.2482,-9.2482,-9.2403,-9.2197,-9.1976,-9.1742,-8.7407,-8.7323,0.0,0.0,0.0,-8.7273,-8.7261,-8.7115,-8.7001,-8.6997,-8.6803,-8.6648,-8.6726,-8.6726,-8.6687,-8.661,-8.661,-8.661,-8.661,-8.661,-8.6648,-8.6726,-8.6726,-8.7345,-8.8958,-8.9366,-9.0174,-9.1759,-9.2212,-9.2422,-9.2539,-9.2578,-9.2617,-9.2617,-9.2617,-9.2617,-9.2617,-9.2617,-9.2617,-9.2617,-9.2617,-9.2617,-9.2617,-9.2617,-9.2617,-9.2617,-9.2617,-9.2617,-9.2617,-9.2617,-9.2617,-9.2617,-9.2617,-9.2617,-9.2617,-9.2617,-9.2617,-9.2617,-9.2617,-9.2617,-9.2617,-9.2617,-9.2617,-9.2617,-9.2617,-9.2617,-9.2617,-9.2617,-9.2617,-9.2617,-9.2617,-9.2617,-9.2617,-9.2617,-9.2617,-9.2617,-9.2617,-9.2617,-9.2616,-9.2606,-9.2585,-9.2561,-9.2522,-9.2482,-9.2482,-9.2482,-9.2482,-9.2482,-9.2482,-9.2482,-9.2482,-9.2482,-9.2482,-9.2482,-9.2482,-9.2482,-9.2482,-9.2482,-9.2482,-9.2482,-9.2482,-9.2482,-9.2482,-9.2482,-9.2482,-9.2482,-9.2482,-9.2482,-9.2403,-9.2197,-9.1976,-9.1733,0.0,0.0,0.0,-8.7407,-8.7392,-8.7411,-8.7382,-8.7195,-8.6984,-8.6996,-8.6803,-8.661,-8.661,-8.661,-8.661,-8.661,-8.661,-8.661,-8.661,-8.661,-8.661,-8.661,-8.661,-8.6996,-8.799,-8.8892,-8.982,-9.0798,-9.1844,-9.2382,-9.2422,-9.2539,-9.2617,-9.2617,-9.2617,-9.2617,-9.2617,-9.2617,-9.2617,-9.2617,-9.2617,-9.2617,-9.2617,-9.2617,-9.2617,-9.2617,-9.2617,-9.2617,-9.2617,-9.2617,-9.2617,-9.2617,-9.2617,-9.2617,-9.2617,-9.2617,-9.2617,-9.2617,-9.2617,-9.2617,-9.2617,-9.2617,-9.2617,-9.2617,-9.2617,-9.2617,-9.2617,-9.2617,-9.2617,-9.2617,-9.2617,-9.2617,-9.2617,-9.2617,-9.2617,-9.2617,-9.2617,-9.2617,-9.2616,-9.2606,-9.2585,-9.2561,-9.2522,-9.2482,-9.2482,-9.2482,-9.2482,-9.2482,-9.2482,-9.2482,-9.2482,-9.2482,-9.2482,-9.2482,-9.2482,-9.2482,-9.2482,-9.2482,-9.2482,-9.2482,-9.2482,-9.2482,-9.2482,-9.2482,-9.2482,-9.2482,-9.2482,-9.2482,-9.2403,-9.2197,-9.2015,-9.1631,-8.7407,0.0,0.0,0.0,0.0,0.0,-8.7269,-8.7192,-8.7072,-8.6906,-8.6803,-8.6726,-8.661,-8.661,-8.661,-8.661,-8.661,-8.661,-8.661,-8.661,-8.661,-8.661,-8.661,-8.6958,-8.7886,-8.8737,-8.9704,-9.0798,-9.1688,-9.2299,-9.2538,-9.2578,-9.2617,-9.2617,-9.2617,-9.2617,-9.2617,-9.2617,-9.2617,-9.2617,-9.2617,-9.2617,-9.2617,-9.2617,-9.2617,-9.2617,-9.2617,-9.2617,-9.2617,-9.2617,-9.2617,-9.2617,-9.2617,-9.2617,-9.2617,-9.2617,-9.2617,-9.2617,-9.2617,-9.2617,-9.2617,-9.2617,-9.2617,-9.2617,-9.2617,-9.2617,-9.2617,-9.2617,-9.2617,-9.2617,-9.2617,-9.2617,-9.2617,-9.2617,-9.2617,-9.2617,-9.2617,-9.2617,-9.2617,-9.2616,-9.2595,-9.26,-9.2561,-9.2522,-9.2482,-9.2482,-9.2482,-9.2482,-9.2482,-9.2482,-9.2482,-9.2482,-9.2482,-9.2482,-9.2482,-9.2482,-9.2482,-9.2482,-9.2482,-9.2482,-9.2482,-9.2482,-9.2482,-9.2482,-9.2482,-9.2482,-9.2482,-9.2482,-9.2475,-9.2403,-9.2048,-9.1631,-8.7407,-8.7407,-8.7407,-8.7407,0.0,0.0,-8.723,-8.7146,-8.7074,-8.6853,-8.6764,-8.6687,-8.661,-8.661,-8.661,-8.661,-8.661,-8.661,-8.661,-8.661,-8.661,-8.661,-8.661,-8.6803,-8.7306,-8.8196,-8.9124,-9.013,-9.1135,-9.1938,-9.2577,-9.2617,-9.2617,-9.2617,-9.2617,-9.2617,-9.2617,-9.2617,-9.2617,-9.2617,-9.2617,-9.2617,-9.2617,-9.2617,-9.2617,-9.2617,-9.2617,-9.2617,-9.2617,-9.2617,-9.2617,-9.2617,-9.2617,-9.2617,-9.2617,-9.2617,-9.2617,-9.2617,-9.2617,-9.2617,-9.2617,-9.2617,-9.2617,-9.2617,-9.2617,-9.2617,-9.2617,-9.2617,-9.2617,-9.2617,-9.2617,-9.2617,-9.2617,-9.2617,-9.2617,-9.2617,-9.2617,-9.2617,-9.2617,-9.2617,-9.2606,-9.2619,-9.2606,-9.2522,-9.2482,-9.2482,-9.2482,-9.2482,-9.2482,-9.2482,-9.2482,-9.2482,-9.2482,-9.2482,-9.2482,-9.2482,-9.2482,-9.2482,-9.2482,-9.2482,-9.2482,-9.2482,-9.2482,-9.2482,-9.2482,-9.2482,-9.2482,-9.2482,-9.2412,-9.2224,-9.1897,-9.1522,-8.7407,-8.7407,-8.7407,-8.7407,-8.7407,0.0,-8.7262,-8.7135,-8.6989,-8.6871,-8.6761,-8.666,-8.6649,-8.6649,-8.6623,-8.6648,-8.6648,-8.6648,-8.661,-8.661,-8.6648,-8.6648,-8.6648,-8.6648,-8.6648,-8.7538,-8.8428,-8.9201,-9.0508,-9.1681,-9.2538,-9.2617,-9.2617,-9.2617,-9.2617,-9.2617,-9.2617,-9.2617,-9.2617,-9.2617,-9.2617,-9.2617,-9.2617,-9.2617,-9.2617,-9.2617,-9.2617,-9.2617,-9.2617,-9.2617,-9.2617,-9.2617,-9.2617,-9.2617,-9.2617,-9.2617,-9.2617,-9.2617,-9.2617,-9.2617,-9.2617,-9.2617,-9.2617,-9.2617,-9.2617,-9.2617,-9.2617,-9.2617,-9.2617,-9.2617,-9.2617,-9.2617,-9.2617,-9.2617,-9.2617,-9.2617,-9.2617,-9.2617,-9.2617,-9.2617,-9.2613,-9.2599,-9.2606,-9.2561,-9.2522,-9.2482,-9.2482,-9.2482,-9.2482,-9.2482,-9.2482,-9.2482,-9.2482,-9.2482,-9.2482,-9.2482,-9.2482,-9.2482,-9.2482,-9.2482,-9.2482,-9.2482,-9.2482,-9.2482,-9.2482,-9.2482,-9.2482,-9.2482,-9.23,-9.1915,-9.1644,-9.1415,-8.7387,-8.7407,-8.7407,-8.7407,-8.7407,0.0,-8.7353,-8.7342,-8.7283,-8.7143,-8.7096,-8.7058,-8.6933,-8.6921,-8.6924,-8.6894,-8.6919,-8.688,-8.6764,-8.6764,-8.6803,-8.6919,-8.6919,-8.6919,-8.6919,-8.7758,-8.8648,-8.9603,-9.1314,-9.2404,-9.2578,-9.2617,-9.2617,-9.2617,-9.2617,-9.2617,-9.2617,-9.2617,-9.2617,-9.2617,-9.2617,-9.2617,-9.2617,-9.2617,-9.2617,-9.2617,-9.2617,-9.2617,-9.2617,-9.2617,-9.2617,-9.2617,-9.2617,-9.2617,-9.2617,-9.2617,-9.2617,-9.2617,-9.2617,-9.2617,-9.2617,-9.2617,-9.2617,-9.2617,-9.2617,-9.2617,-9.2617,-9.2617,-9.2617,-9.2617,-9.2617,-9.2617,-9.2617,-9.2617,-9.2617,-9.2617,-9.2617,-9.2617,-9.2617,-9.2617,-9.2617,-9.2611,-9.2613,-9.26,-9.2561,-9.2522,-9.2482,-9.2482,-9.2482,-9.2482,-9.2482,-9.2482,-9.2482,-9.2482,-9.2482,-9.2482,-9.2482,-9.2482,-9.2482,-9.2482,-9.2482,-9.2482,-9.2482,-9.2482,-9.2482,-9.2482,-9.2482,-9.2482,-9.23,-9.1915,-9.1872,-9.1577,-8.7347,-8.7407,-8.7407,-8.7407,-8.7407,0.0,0.0,-8.7304,-8.7249,-8.7134,-8.7088,-8.7096,-8.7011,-8.702,-8.7005,-8.7011,-8.7001,-8.702,-8.702,-8.6943,-8.6904,-8.6982,-8.702,-8.702,-8.702,-8.7483,-8.8367,-8.9767,-9.1105,-9.2071,-9.2578,-9.2617,-9.2617,-9.2617,-9.2617,-9.2617,-9.2617,-9.2617,-9.2617,-9.2617,-9.2617,-9.2617,-9.2617,-9.2617,-9.2617,-9.2617,-9.2617,-9.2617,-9.2617,-9.2617,-9.2617,-9.2617,-9.2617,-9.2617,-9.2617,-9.2617,-9.2617,-9.2617,-9.2617,-9.2617,-9.2617,-9.2617,-9.2617,-9.2617,-9.2617,-9.2617,-9.2617,-9.2617,-9.2617,-9.2617,-9.2617,-9.2617,-9.2617,-9.2617,-9.2617,-9.2617,-9.2617,-9.2617,-9.2617,-9.2617,-9.2617,-9.2615,-9.259,-9.2613,-9.2561,-9.2522,-9.2482,-9.2482,-9.2482,-9.2482,-9.2482,-9.2482,-9.2482,-9.2482,-9.2482,-9.2482,-9.2482,-9.2482,-9.2482,-9.2482,-9.2482,-9.2482,-9.2482,-9.2482,-9.2482,-9.2482,-9.2482,-9.2482,-9.23,-9.1915,-9.1915,-9.1631,-8.7353,-8.7407,-8.7407,-8.7407,-8.7407,-8.7387,0.0,0.0,0.0,-8.7108,-8.7095,-8.7073,-8.7086,-8.7064,-8.7146,-8.7308,-8.7198,-8.7156,-8.7458,-8.7263,-8.7097,-8.7086,-8.7086,-8.7086,-8.7086,-8.7345,-8.8188,-8.9881,-9.0702,-9.1576,-9.2538,-9.2617,-9.2617,-9.2617,-9.2617,-9.2617,-9.2617,-9.2617,-9.2617,-9.2617,-9.2617,-9.2617,-9.2617,-9.2617,-9.2617,-9.2617,-9.2617,-9.2617,-9.2617,-9.2617,-9.2617,-9.2617,-9.2617,-9.2617,-9.2617,-9.2617,-9.2617,-9.2617,-9.2617,-9.2617,-9.2617,-9.2617,-9.2617,-9.2617,-9.2617,-9.2617,-9.2617,-9.2617,-9.2617,-9.2617,-9.2617,-9.2617,-9.2617,-9.2617,-9.2617,-9.2617,-9.2617,-9.2617,-9.2617,-9.2617,-9.2617,-9.2616,-9.2606,-9.2585,-9.2561,-9.2522,-9.2482,-9.2482,-9.2482,-9.2482,-9.2482,-9.2482,-9.2482,-9.2482,-9.2482,-9.2482,-9.2482,-9.2482,-9.2482,-9.2482,-9.2482,-9.2482,-9.2482,-9.2482,-9.2482,-9.2482,-9.2482,-9.2482,-9.23,-9.1915,-9.1915,-9.1631,-8.7327,-8.7407,-8.7407,-8.7407,-8.7407,-8.7407,-8.7381,0.0,-8.7381,-8.7353,0.0,-8.7357,-8.7362,0.0,0.0,-8.8391,-8.7877,-8.7639,-8.8434,-8.7849,-8.7382,-8.7459,-8.7457,-8.7457,-8.7457,-8.8117,-8.894,-8.9922,-9.0776,-9.1674,-9.2539,-9.2617,-9.2617,-9.2617,-9.2617,-9.2617,-9.2617,-9.2617,-9.2617,-9.2617,-9.2617,-9.2617,-9.2617,-9.2617,-9.2617,-9.2617,-9.2617,-9.2617,-9.2617,-9.2617,-9.2617,-9.2617,-9.2617,-9.2617,-9.2617,-9.2617,-9.2617,-9.2617,-9.2617,-9.2617,-9.2617,-9.2617,-9.2617,-9.2617,-9.2617,-9.2617,-9.2617,-9.2617,-9.2617,-9.2617,-9.2617,-9.2617,-9.2617,-9.2617,-9.2617,-9.2617,-9.2617,-9.2617,-9.2617,-9.2617,-9.2617,-9.2616,-9.2606,-9.2585,-9.2561,-9.2522,-9.2482,-9.2482,-9.2482,-9.2482,-9.2482,-9.2482,-9.2482,-9.2482,-9.2482,-9.2482,-9.2482,-9.2482,-9.2482,-9.2482,-9.2482,-9.2482,-9.2482,-9.2482,-9.2482,-9.2482,-9.2482,-9.2482,-9.23,-9.1915,-9.1915,-9.1631,-8.7226,-8.7262,-8.7297,-8.7381,-8.7323,-8.7297,-8.7381,-8.7407,-8.7407,-8.7407,0.0,0.0,0.0,0.0,0.0,0.0,-8.7648,-8.7531,-8.7894,-8.7621,-8.7397,-8.7456,-8.7421,-8.7461,-8.75,-8.7812,-8.8359,-8.9179,-9.0039,-9.0937,-9.1797,-9.2344,-9.2617,-9.2617,-9.2617,-9.2617,-9.2617,-9.2518,-9.2471,-9.2471,-9.2373,-9.2351,-9.2461,-9.2461,-9.2539,-9.2617,-9.2617,-9.2617,-9.2617,-9.2617,-9.2617,-9.2617,-9.2617,-9.2617,-9.2617,-9.2617,-9.2617,-9.2617,-9.2617,-9.2617,-9.2617,-9.2617,-9.2617,-9.2617,-9.2617,-9.2617,-9.2617,-9.2617,-9.2617,-9.2617,-9.2617,-9.2617,-9.2617,-9.2617,-9.2617,-9.2617,-9.2617,-9.2617,-9.2617,-9.2617,-9.2617,-9.2616,-9.2606,-9.2585,-9.2561,-9.2522,-9.2482,-9.2482,-9.2482,-9.2482,-9.2482,-9.2482,-9.2482,-9.2482,-9.2482,-9.2482,-9.2482,-9.2482,-9.2482,-9.2482,-9.2482,-9.2482,-9.2482,-9.2482,-9.2482,-9.2482,-9.2482,-9.2482,-9.23,-9.1915,-9.1915,-9.1733,-8.7113,-8.7323,-8.7531,-8.7685,-8.7615,-8.7578,-8.7738,-8.7564,-8.7407,-8.7407,-8.7407,0.0,0.0,0.0,-8.7486,-8.772,0.0,-8.7486,-8.772,-8.7564,-8.7414,-8.7397,-8.7416,-8.7421,-8.7461,-8.7461,-8.7812,-8.8633,-8.9297,-9.0117,-9.125,-9.1914,-9.2344,-9.2578,-9.2617,-9.2617,-9.2617,-9.2462,-9.2373,-9.2401,-9.2187,-9.2182,-9.2319,-9.2377,-9.2461,-9.2539,-9.2578,-9.2617,-9.2617,-9.2617,-9.2617,-9.2617,-9.2617,-9.2617,-9.2617,-9.2617,-9.2617,-9.2617,-9.2617,-9.2617,-9.2617,-9.2617,-9.2617,-9.2617,-9.2617,-9.2617,-9.2617,-9.2617,-9.2617,-9.2617,-9.2617,-9.2617,-9.2617,-9.2617,-9.2617,-9.2617,-9.2617,-9.2617,-9.2617,-9.2617,-9.2617,-9.2616,-9.2606,-9.2585,-9.2561,-9.2522,-9.2482,-9.2482,-9.2482,-9.2482,-9.2482,-9.2482,-9.2482,-9.2482,-9.2482,-9.2482,-9.2482,-9.2482,-9.2482,-9.2482,-9.2482,-9.2482,-9.2482,-9.2482,-9.2482,-9.2482,-9.2482,-9.2482,-9.2334,-9.2087,-9.1977,-9.1757,-8.6958,-8.7614,-8.8314,-8.843,-8.8473,-8.8476,-8.8636,-8.7993,-8.7407,-8.7407,-8.7407,-8.7407,-8.7407,-8.7407,-8.7681,-8.854,-8.7954,0.0,0.0,-8.7915,-8.7407,-8.7407,-8.7397,-8.7414,-8.7383,-8.7383,-8.7773,-8.8633,-8.8711,-8.9492,-9.1211,-9.1328,-9.1719,-9.2578,-9.2617,-9.2617,-9.2617,-9.2462,-9.2373,-9.2373,-9.2208,-9.2119,-9.2134,-9.2303,-9.2383,-9.2422,-9.2539,-9.2617,-9.2617,-9.2617,-9.2617,-9.2617,-9.2617,-9.2617,-9.2617,-9.2617,-9.2617,-9.2617,-9.2617,-9.2617,-9.2617,-9.2617,-9.2617,-9.2617,-9.2617,-9.2617,-9.2617,-9.2617,-9.2617,-9.2617,-9.2617,-9.2617,-9.2617,-9.2617,-9.2617,-9.2617,-9.2617,-9.2617,-9.2617,-9.2617,-9.2617,-9.2616,-9.2606,-9.2585,-9.2561,-9.2522,-9.2482,-9.2482,-9.2482,-9.2482,-9.2482,-9.2482,-9.2482,-9.2482,-9.2482,-9.2482,-9.2482,-9.2482,-9.2482,-9.2482,-9.2482,-9.2482,-9.2482,-9.2482,-9.2482,-9.2482,-9.2482,-9.2482,-9.2482,-9.2475,-9.2104,-9.1657,-8.7572,-8.7955,-8.835,-8.9047,-8.9164,-8.913,-8.9255,-8.8707,-8.8124,-8.8124,-8.7752,-8.7407,-8.7407,-8.7407,-8.7486,-8.7798,-8.7603,-8.7486,0.0,-8.7603,-8.7407,-8.7407,-8.7414,-8.7387,-8.7397,-8.7418,-8.7539,-8.7812,-8.8359,-8.8945,-8.9531,-9.0664,-9.1445,-9.1719,-9.221,-9.2462,-9.2462,-9.2173,-9.2064,-9.2064,-9.1909,-9.187,-9.1976,-9.2049,-9.2183,-9.2383,-9.2461,-9.2539,-9.2617,-9.2617,-9.2617,-9.2617,-9.2617,-9.2617,-9.2617,-9.2617,-9.2617,-9.2617,-9.2617,-9.2617,-9.2617,-9.2617,-9.2617,-9.2617,-9.2617,-9.2617,-9.2617,-9.2617,-9.2617,-9.2617,-9.2617,-9.2617,-9.2617,-9.2617,-9.2617,-9.2617,-9.2617,-9.2617,-9.2617,-9.2617,-9.2617,-9.2617,-9.2616,-9.2606,-9.2585,-9.2567,-9.2522,-9.2482,-9.2482,-9.2482,-9.2482,-9.2482,-9.2482,-9.2482,-9.2482,-9.2482,-9.2482,-9.2482,-9.2482,-9.2482,-9.2482,-9.2482,-9.2482,-9.2482,-9.2482,-9.2482,-9.2482,-9.2482,-9.242,-9.23,-9.2168,-9.1938,-8.8356,-8.8706,-8.9079,-8.9776,-8.9885,-8.9873,-8.9988,-8.9423,-8.8797,-8.8485,-8.8041,-8.7616,-8.7304,-8.7297,-8.7327,-8.7327,-8.7387,-8.7407,0.0,-8.7407,-8.7407,-8.7407,-8.7407,-8.7407,-8.7407,-8.7401,-8.7418,-8.7422,-8.7929,-8.8359,-8.8672,-9.0078,-9.0976,-9.1289,-9.2066,-9.2459,-9.2401,-9.2102,-9.1948,-9.1909,-9.1754,-9.1754,-9.1832,-9.187,-9.2011,-9.2237,-9.2333,-9.2461,-9.2539,-9.2578,-9.2617,-9.2617,-9.2617,-9.2617,-9.2617,-9.2617,-9.2617,-9.2617,-9.2617,-9.2617,-9.2617,-9.2617,-9.2617,-9.2617,-9.2617,-9.2617,-9.2617,-9.2617,-9.2617,-9.2617,-9.2617,-9.2617,-9.2617,-9.2617,-9.2617,-9.2617,-9.2617,-9.2617,-9.2617,-9.2617,-9.2617,-9.2617,-9.2617,-9.2613,-9.2595,-9.2606,-9.2522,-9.2482,-9.2482,-9.2482,-9.2482,-9.2482,-9.2482,-9.2482,-9.2482,-9.2482,-9.2482,-9.2482,-9.2482,-9.2482,-9.2482,-9.2482,-9.2482,-9.2482,-9.2482,-9.2482,-9.2482,-9.2482,-9.242,-9.2312,-9.2168,-9.2013]}]]